[[{"header":{"parameterUnit":"m.s-1","parameterCategory":1,"la1":30.6,"la2":29.2853,"lo1":-89.7004,"lo2":-87.6739,"dy":0.0162,"dx":0.0183,"nx":112,"ny":82,"refTime":"2025-04-13T18:00:00:Z","depth":0,"parameterNumber":2,"parameterNumberName":"U-component_of_WINDS"},"data":[0.0,0.0,0.0,0.0,0.0,0.0,0.0,0.0,0.0,0.0,0.0,0.0,0.0,0.0,0.0,0.0,0.0,0.0,0.0,0.0,0.0,0.0,0.0,0.0,0.0,0.0,0.0,0.0,0.0,0.0,0.0,0.0,0.0,0.0,0.0,0.0,0.0,0.0,0.0,0.0,0.0,0.0,0.0,0.0,0.0,0.0,0.0,0.0,0.0,0.0,0.0,0.0,0.0,0.0,0.0,0.0,0.0,0.0,0.0,0.0,0.0,0.0,0.0,0.0,0.0,0.0,0.0,0.0,0.0,0.0,0.0,0.0,0.0,0.0,0.0,0.0,0.0,0.0,0.0,0.0,0.0,0.0,0.0,0.0,0.0,0.0,0.0,0.0,0.0,0.0,-3.9507,-3.9794,-3.9793,-3.9295,-3.808,-3.6822,-3.4857,-3.1917,0.0,0.0,0.0,0.0,0.0,0.0,0.0,0.0,0.0,0.0,0.0,0.0,0.0,0.0,0.0,0.0,0.0,0.0,0.0,0.0,0.0,0.0,0.0,0.0,0.0,0.0,0.0,0.0,0.0,0.0,0.0,0.0,0.0,0.0,0.0,0.0,0.0,0.0,0.0,0.0,0.0,0.0,0.0,0.0,0.0,0.0,0.0,0.0,0.0,0.0,0.0,0.0,0.0,0.0,0.0,0.0,0.0,0.0,0.0,0.0,0.0,0.0,0.0,0.0,0.0,0.0,0.0,0.0,0.0,0.0,0.0,0.0,0.0,0.0,0.0,0.0,0.0,0.0,0.0,0.0,0.0,0.0,0.0,0.0,0.0,0.0,0.0,0.0,0.0,0.0,0.0,0.0,0.0,0.0,0.0,0.0,0.0,0.0,0.0,0.0,0.0,0.0,0.0,0.0,-3.9087,-4.0619,-4.0683,-4.0226,-3.9226,-3.7835,-3.6056,-3.3814,0.0,0.0,0.0,0.0,0.0,0.0,0.0,0.0,0.0,0.0,0.0,0.0,0.0,0.0,0.0,0.0,0.0,0.0,0.0,0.0,0.0,0.0,0.0,0.0,0.0,0.0,0.0,0.0,0.0,0.0,0.0,0.0,0.0,0.0,0.0,0.0,0.0,0.0,0.0,0.0,0.0,0.0,0.0,0.0,0.0,0.0,0.0,0.0,0.0,0.0,0.0,0.0,0.0,0.0,0.0,0.0,0.0,0.0,0.0,0.0,0.0,0.0,0.0,0.0,0.0,0.0,0.0,0.0,0.0,0.0,0.0,0.0,0.0,0.0,0.0,0.0,0.0,0.0,0.0,0.0,0.0,0.0,0.0,0.0,0.0,0.0,0.0,0.0,0.0,0.0,0.0,0.0,0.0,0.0,0.0,0.0,0.0,0.0,0.0,0.0,0.0,0.0,0.0,-3.8549,-3.9548,-4.0953,-4.099,-4.0529,-3.9596,-3.8262,-3.6605,-3.4555,-3.2906,0.0,0.0,0.0,0.0,0.0,0.0,0.0,0.0,0.0,0.0,0.0,0.0,0.0,0.0,0.0,0.0,0.0,0.0,0.0,0.0,0.0,0.0,0.0,0.0,0.0,0.0,0.0,0.0,0.0,0.0,0.0,0.0,0.0,0.0,0.0,0.0,0.0,0.0,0.0,0.0,0.0,0.0,0.0,0.0,0.0,0.0,0.0,0.0,0.0,0.0,0.0,0.0,0.0,0.0,0.0,0.0,0.0,0.0,0.0,0.0,0.0,0.0,0.0,0.0,0.0,0.0,0.0,0.0,0.0,0.0,0.0,0.0,0.0,0.0,0.0,0.0,0.0,0.0,0.0,0.0,0.0,0.0,0.0,0.0,0.0,0.0,0.0,0.0,0.0,0.0,0.0,0.0,0.0,0.0,0.0,0.0,0.0,0.0,0.0,0.0,0.0,0.0,-3.9641,-4.0212,-4.1112,-4.108,-4.0706,-3.9987,-3.8548,-3.7041,-3.5513,-3.3903,0.0,0.0,0.0,0.0,0.0,0.0,0.0,0.0,0.0,0.0,0.0,0.0,0.0,0.0,0.0,0.0,0.0,0.0,0.0,0.0,0.0,0.0,0.0,0.0,0.0,0.0,0.0,0.0,0.0,0.0,0.0,0.0,0.0,0.0,0.0,0.0,0.0,0.0,0.0,0.0,0.0,0.0,0.0,0.0,0.0,0.0,0.0,0.0,0.0,0.0,0.0,0.0,0.0,0.0,0.0,0.0,0.0,0.0,0.0,0.0,0.0,0.0,0.0,0.0,0.0,0.0,0.0,0.0,0.0,0.0,0.0,0.0,0.0,0.0,0.0,0.0,0.0,0.0,0.0,0.0,0.0,0.0,0.0,0.0,0.0,0.0,0.0,0.0,0.0,0.0,0.0,0.0,0.0,0.0,0.0,0.0,0.0,0.0,0.0,0.0,0.0,0.0,-3.9758,-4.083,-4.1171,-4.108,-4.0975,-4.0912,-3.8942,-3.7632,-3.7495,-3.5646,0.0,0.0,0.0,0.0,0.0,0.0,0.0,0.0,0.0,0.0,0.0,0.0,0.0,0.0,0.0,0.0,0.0,0.0,0.0,0.0,0.0,0.0,0.0,0.0,0.0,0.0,0.0,0.0,0.0,0.0,0.0,0.0,0.0,0.0,0.0,0.0,0.0,0.0,0.0,0.0,0.0,0.0,0.0,0.0,0.0,0.0,0.0,0.0,0.0,0.0,0.0,0.0,0.0,0.0,0.0,0.0,0.0,0.0,0.0,0.0,0.0,0.0,0.0,0.0,0.0,0.0,0.0,0.0,0.0,0.0,0.0,0.0,0.0,0.0,0.0,0.0,0.0,0.0,0.0,0.0,0.0,0.0,0.0,0.0,0.0,0.0,0.0,0.0,0.0,0.0,0.0,0.0,0.0,0.0,0.0,0.0,0.0,0.0,0.0,0.0,0.0,0.0,-3.9337,-4.0349,0.0,-4.115,-4.0867,-4.0235,-3.8922,-3.7574,-3.624,0.0,0.0,0.0,0.0,0.0,0.0,0.0,0.0,0.0,0.0,0.0,0.0,0.0,0.0,0.0,0.0,0.0,0.0,0.0,0.0,0.0,0.0,0.0,0.0,0.0,0.0,0.0,0.0,0.0,0.0,0.0,0.0,0.0,0.0,0.0,0.0,0.0,0.0,0.0,0.0,0.0,0.0,0.0,0.0,0.0,0.0,0.0,0.0,0.0,0.0,0.0,0.0,0.0,0.0,0.0,0.0,0.0,0.0,0.0,0.0,0.0,0.0,0.0,0.0,0.0,0.0,0.0,0.0,0.0,0.0,0.0,0.0,0.0,0.0,0.0,0.0,0.0,0.0,0.0,0.0,0.0,0.0,0.0,0.0,0.0,0.0,0.0,0.0,0.0,0.0,0.0,0.0,0.0,0.0,0.0,0.0,0.0,0.0,0.0,0.0,0.0,0.0,-3.8073,-3.9276,-4.0165,0.0,-4.0761,-4.0409,-3.9436,-3.8527,-3.7281,-3.5524,0.0,0.0,0.0,0.0,0.0,0.0,0.0,0.0,0.0,0.0,0.0,0.0,0.0,0.0,0.0,0.0,0.0,0.0,0.0,0.0,0.0,0.0,0.0,0.0,0.0,0.0,0.0,0.0,0.0,0.0,0.0,0.0,0.0,0.0,0.0,0.0,0.0,0.0,0.0,0.0,0.0,0.0,0.0,0.0,0.0,0.0,0.0,0.0,0.0,0.0,0.0,0.0,0.0,0.0,0.0,0.0,0.0,0.0,0.0,0.0,0.0,0.0,0.0,0.0,0.0,0.0,0.0,0.0,0.0,0.0,0.0,0.0,0.0,0.0,0.0,0.0,0.0,0.0,0.0,0.0,0.0,0.0,0.0,0.0,0.0,0.0,0.0,0.0,0.0,0.0,0.0,0.0,0.0,0.0,0.0,0.0,0.0,0.0,0.0,0.0,0.0,0.0,-3.7972,-3.9688,-4.0484,-3.9757,-3.9798,-3.9531,-3.8652,-3.7722,-3.6803,0.0,0.0,0.0,0.0,0.0,0.0,0.0,0.0,0.0,0.0,0.0,0.0,0.0,0.0,0.0,0.0,0.0,0.0,0.0,0.0,0.0,0.0,0.0,0.0,0.0,0.0,0.0,0.0,0.0,0.0,0.0,0.0,0.0,0.0,0.0,0.0,0.0,0.0,0.0,0.0,0.0,0.0,0.0,0.0,0.0,0.0,0.0,0.0,0.0,0.0,0.0,0.0,0.0,0.0,0.0,0.0,0.0,0.0,0.0,0.0,0.0,0.0,0.0,0.0,0.0,0.0,0.0,0.0,0.0,0.0,0.0,0.0,0.0,0.0,0.0,0.0,0.0,0.0,0.0,0.0,0.0,0.0,0.0,0.0,0.0,0.0,0.0,0.0,0.0,0.0,0.0,0.0,0.0,0.0,0.0,0.0,0.0,0.0,0.0,0.0,0.0,0.0,0.0,-3.6256,-3.789,-3.8892,-3.8724,-3.8753,-3.8469,-3.7676,-3.6807,-3.5644,-3.4155,0.0,0.0,0.0,0.0,0.0,0.0,0.0,0.0,0.0,0.0,0.0,0.0,0.0,0.0,0.0,0.0,0.0,0.0,0.0,0.0,0.0,0.0,0.0,0.0,0.0,0.0,0.0,0.0,0.0,0.0,0.0,0.0,0.0,0.0,0.0,0.0,0.0,0.0,0.0,0.0,0.0,0.0,0.0,0.0,0.0,0.0,0.0,0.0,0.0,0.0,0.0,0.0,0.0,0.0,0.0,0.0,0.0,0.0,0.0,0.0,0.0,0.0,0.0,0.0,0.0,0.0,0.0,0.0,0.0,0.0,0.0,0.0,0.0,0.0,0.0,0.0,0.0,0.0,0.0,0.0,0.0,0.0,0.0,0.0,0.0,0.0,0.0,0.0,0.0,0.0,0.0,0.0,0.0,0.0,0.0,0.0,0.0,0.0,0.0,0.0,0.0,0.0,-3.5455,-3.7099,-3.8078,-3.7769,-3.7778,-3.7469,-3.667,-3.5834,-3.4747,-3.3356,0.0,0.0,0.0,0.0,0.0,0.0,0.0,0.0,0.0,0.0,0.0,0.0,0.0,0.0,0.0,0.0,0.0,0.0,0.0,0.0,0.0,0.0,0.0,0.0,0.0,0.0,0.0,0.0,0.0,0.0,0.0,0.0,0.0,0.0,0.0,0.0,0.0,0.0,0.0,0.0,0.0,0.0,0.0,0.0,0.0,0.0,0.0,0.0,0.0,0.0,0.0,0.0,0.0,0.0,0.0,0.0,0.0,0.0,0.0,0.0,0.0,0.0,0.0,0.0,0.0,0.0,0.0,0.0,0.0,0.0,0.0,0.0,0.0,0.0,0.0,0.0,0.0,0.0,0.0,0.0,0.0,0.0,0.0,0.0,0.0,0.0,0.0,0.0,0.0,0.0,0.0,0.0,0.0,0.0,0.0,0.0,0.0,0.0,0.0,0.0,0.0,0.0,-3.5114,-3.6831,-3.7652,-3.6848,-3.683,-3.6545,-3.5751,-3.4957,-3.4105,-3.3252,0.0,0.0,0.0,0.0,0.0,0.0,0.0,0.0,0.0,0.0,0.0,0.0,0.0,0.0,0.0,0.0,0.0,0.0,0.0,0.0,0.0,0.0,0.0,0.0,0.0,0.0,0.0,0.0,0.0,0.0,0.0,0.0,0.0,0.0,0.0,0.0,0.0,0.0,0.0,0.0,0.0,0.0,0.0,0.0,0.0,0.0,0.0,0.0,0.0,0.0,0.0,0.0,0.0,0.0,0.0,0.0,0.0,0.0,0.0,0.0,-4.1794,0.0,0.0,0.0,0.0,0.0,0.0,0.0,0.0,0.0,0.0,0.0,0.0,0.0,0.0,0.0,0.0,0.0,0.0,0.0,0.0,0.0,0.0,0.0,0.0,0.0,0.0,0.0,0.0,0.0,0.0,0.0,0.0,0.0,0.0,0.0,0.0,0.0,0.0,0.0,0.0,0.0,-3.3371,-3.4982,-3.601,-3.583,-3.581,-3.5767,-3.5626,-3.4851,-3.4014,-3.3249,-3.2208,0.0,0.0,0.0,0.0,0.0,0.0,0.0,0.0,0.0,0.0,0.0,0.0,0.0,0.0,0.0,0.0,0.0,0.0,0.0,0.0,0.0,0.0,0.0,0.0,0.0,0.0,0.0,0.0,0.0,0.0,0.0,0.0,0.0,0.0,0.0,0.0,0.0,0.0,0.0,0.0,0.0,0.0,0.0,0.0,0.0,0.0,0.0,0.0,0.0,0.0,0.0,0.0,0.0,0.0,0.0,0.0,0.0,0.0,0.0,0.0,-4.2824,0.0,0.0,0.0,0.0,0.0,0.0,0.0,0.0,0.0,0.0,0.0,0.0,0.0,0.0,0.0,0.0,0.0,0.0,0.0,0.0,0.0,0.0,0.0,0.0,0.0,0.0,0.0,0.0,0.0,0.0,0.0,0.0,0.0,0.0,0.0,0.0,0.0,0.0,0.0,0.0,-3.2716,-3.4258,-3.5361,-3.5493,-3.55,-3.5521,-3.5552,-3.4374,-3.3462,-3.3079,-3.1514,0.0,0.0,0.0,0.0,0.0,0.0,0.0,0.0,0.0,0.0,0.0,0.0,0.0,0.0,0.0,0.0,0.0,0.0,0.0,0.0,0.0,0.0,0.0,0.0,0.0,0.0,0.0,0.0,0.0,0.0,0.0,0.0,0.0,0.0,0.0,0.0,0.0,0.0,0.0,0.0,0.0,0.0,0.0,0.0,0.0,0.0,0.0,0.0,0.0,0.0,0.0,0.0,0.0,-4.3515,-4.3149,-4.2506,-4.2506,-4.2506,-4.254,-4.3098,-4.378,-4.4369,-4.2699,0.0,0.0,0.0,0.0,0.0,0.0,0.0,0.0,0.0,0.0,0.0,0.0,0.0,0.0,0.0,0.0,0.0,0.0,0.0,0.0,0.0,0.0,0.0,0.0,-3.736,-3.7073,0.0,0.0,0.0,0.0,0.0,0.0,0.0,0.0,0.0,0.0,0.0,0.0,-3.2504,-3.402,-3.519,-3.5417,-3.546,-3.5442,-3.5288,-3.3949,-3.3006,-3.2718,-3.0774,-2.9568,0.0,0.0,0.0,0.0,0.0,0.0,0.0,0.0,0.0,0.0,0.0,0.0,0.0,0.0,0.0,0.0,0.0,0.0,0.0,0.0,0.0,0.0,0.0,0.0,0.0,0.0,0.0,0.0,0.0,0.0,0.0,0.0,-4.2731,-4.2807,0.0,0.0,0.0,0.0,0.0,0.0,0.0,0.0,0.0,0.0,0.0,0.0,0.0,-4.269,-4.3496,-4.3515,-4.3515,-4.3515,-4.3515,-4.3441,-4.3332,-4.3332,-4.3332,-4.3349,-4.345,0.0,-4.3961,-4.2323,0.0,0.0,0.0,0.0,0.0,0.0,0.0,0.0,0.0,0.0,0.0,0.0,0.0,0.0,0.0,0.0,0.0,0.0,0.0,0.0,0.0,0.0,-3.8355,-3.7588,-3.7492,-3.7051,0.0,-3.4717,-3.4562,-3.4231,-3.3195,0.0,0.0,0.0,0.0,0.0,0.0,0.0,-3.2213,-3.3918,-3.5113,-3.5138,-3.5361,-3.5192,-3.443,-3.4167,-3.341,-3.1948,-3.1557,-3.1072,-3.0359,-2.9407,0.0,0.0,0.0,0.0,0.0,0.0,0.0,0.0,0.0,0.0,0.0,0.0,0.0,0.0,0.0,0.0,0.0,0.0,0.0,0.0,0.0,0.0,0.0,0.0,0.0,0.0,0.0,0.0,0.0,-4.1358,-4.1937,-4.2616,-4.2902,-4.3178,0.0,0.0,0.0,0.0,0.0,0.0,0.0,0.0,0.0,-4.28,-4.2488,-4.269,-4.3496,-4.3515,-4.3515,-4.3515,-4.3515,-4.3515,-4.3515,-4.3515,-4.324,-4.2837,-4.3313,-4.3065,-4.2306,-4.1622,-4.1415,-4.1378,0.0,0.0,0.0,0.0,-3.8803,-3.8667,-3.8427,-3.8356,0.0,-3.7716,0.0,0.0,0.0,0.0,0.0,0.0,0.0,0.0,0.0,0.0,-3.8505,-3.7694,-3.7492,-3.718,-3.5991,-3.5254,-3.4605,0.0,-3.3627,-3.2996,-3.1214,0.0,0.0,0.0,0.0,-3.1841,-3.2564,-3.3799,-3.4656,-3.487,-3.5113,-3.5128,-3.4745,-3.3841,-3.2986,-3.2252,-3.1187,-3.0414,-3.006,-2.9392,-2.8888,0.0,0.0,0.0,0.0,0.0,0.0,0.0,0.0,0.0,0.0,0.0,0.0,0.0,0.0,0.0,0.0,0.0,0.0,0.0,0.0,0.0,0.0,0.0,0.0,0.0,0.0,0.0,0.0,-4.081,-4.1291,-4.2342,-4.2616,-4.292,0.0,0.0,0.0,0.0,0.0,0.0,-4.2635,-4.2598,-4.2598,-4.2598,-4.2598,-4.2892,-4.3496,-4.3515,-4.3515,-4.3515,-4.3515,-4.3515,-4.3515,-4.3515,-4.3057,-4.2323,-4.2928,-4.2396,-4.1095,-4.1095,-4.0967,-4.0653,-3.9258,-3.8707,-3.8707,-3.8707,-3.8707,-3.8707,-3.8707,-3.8707,-3.8606,-3.7984,0.0,-3.6152,-3.5552,0.0,0.0,0.0,0.0,-3.729,-3.7713,-3.8102,-3.823,-3.7639,-3.7345,-3.6978,-3.6138,-3.5463,-3.4692,0.0,-3.4023,-3.3797,-3.1705,0.0,0.0,0.0,0.0,-3.1685,-3.2497,-3.3352,-3.3994,-3.425,-3.451,-3.4589,-3.4371,-3.3037,-3.2094,-3.1865,-3.0497,-2.9705,-2.9705,-2.9322,-2.9002,-2.8772,0.0,0.0,0.0,0.0,0.0,0.0,0.0,0.0,0.0,0.0,0.0,0.0,0.0,0.0,0.0,0.0,0.0,0.0,0.0,0.0,0.0,0.0,0.0,0.0,0.0,0.0,0.0,0.0,0.0,-4.1771,-4.2342,0.0,0.0,0.0,0.0,-4.3515,-4.3515,-4.3478,-4.3441,-4.3441,-4.3441,-4.3441,-4.3441,-4.346,-4.3515,-4.3515,-4.3515,-4.3515,-4.3515,-4.3515,-4.3515,-4.3515,-4.3057,-4.2304,-4.2341,-4.1882,-4.1095,-4.1095,-4.0653,-3.9882,-3.9038,-3.8707,-3.8707,-3.8707,-3.8707,-3.8707,-3.8707,-3.8707,-3.8579,-3.7783,-3.6423,-3.5087,-3.505,-3.4468,0.0,0.0,-3.6303,-3.6707,-3.8248,-3.8102,-3.7547,-3.7511,-3.6923,-3.6119,-3.5261,-3.5041,-3.4986,0.0,-3.433,-3.3566,-3.2671,0.0,-3.2241,-3.1464,-3.1391,-3.1415,-3.1477,-3.2407,-3.3075,-3.3086,-3.3329,-3.3176,-3.2402,-3.1561,-3.073,-2.9892,-2.9751,-2.9705,-2.9705,-2.9666,-2.9278,-2.8439,-2.8361,0.0,0.0,0.0,0.0,0.0,0.0,0.0,0.0,0.0,0.0,0.0,0.0,0.0,0.0,0.0,0.0,0.0,0.0,0.0,0.0,0.0,0.0,0.0,0.0,0.0,0.0,0.0,0.0,-4.1155,-4.1424,0.0,-4.2884,-4.2976,-4.3142,-4.3462,-4.3515,-4.3515,-4.3515,-4.3515,-4.3515,-4.3515,-4.3515,-4.3515,-4.3515,-4.3515,-4.3515,-4.3515,-4.3515,-4.3515,-4.3478,-4.2947,-4.2286,-4.1534,-4.1534,-4.0765,-3.9606,-4.012,-4.0157,-3.9808,-3.9019,-3.8707,-3.8707,-3.8707,-3.8707,-3.8634,-3.8102,-3.7933,-3.7698,-3.634,-3.5481,-3.4912,-3.438,-3.438,-3.4802,-3.5973,-3.6303,-3.6541,-3.7643,-3.7327,-3.6578,-3.6028,-3.5665,-3.5243,-3.4399,-3.4215,-3.4215,-3.4215,-3.4009,-3.3532,-3.2729,-3.2173,-3.1733,-3.1452,-3.0962,-3.0797,-3.1342,-3.1734,-3.1973,-3.1973,-3.2218,-3.225,-3.1977,-3.1209,-3.061,-3.03,-2.9634,-2.9241,-2.9241,-2.9415,-2.9354,-2.9045,-2.8619,-2.7867,0.0,0.0,0.0,0.0,0.0,0.0,0.0,0.0,0.0,0.0,0.0,0.0,0.0,0.0,0.0,0.0,0.0,0.0,0.0,0.0,0.0,0.0,0.0,0.0,0.0,0.0,-4.0311,-4.085,-4.0903,-4.138,-4.2578,-4.2711,-4.292,-4.3444,-4.3515,-4.3515,-4.3515,-4.3515,-4.3515,-4.3515,-4.3515,-4.3515,-4.3515,-4.3515,-4.3515,-4.3515,-4.3515,-4.3515,-4.3478,-4.2671,-4.1864,-4.1077,-4.0802,-3.9937,-3.8744,-3.9276,-3.9496,-3.9441,-3.8909,-3.8707,-3.8707,-3.8707,-3.8707,-3.8579,-3.7786,-3.7125,-3.6468,-3.5353,-3.4821,-3.4491,-3.3972,-3.416,-3.4766,-3.5624,-3.5862,-3.6046,-3.6886,-3.6486,-3.5734,-3.5151,-3.4784,-3.4454,-3.3917,-3.3807,-3.3807,-3.3807,-3.3807,-3.3532,-3.2729,-3.2173,-3.1715,-3.1452,-3.0723,-3.0393,-3.0925,-3.0999,-3.0999,-3.0999,-3.1147,-3.1266,-3.1266,-3.0524,-3.006,-3.006,-2.9388,-2.9005,-2.9005,-2.8901,-2.886,-2.886,-2.8031,-2.7456,-2.7196,0.0,0.0,0.0,0.0,0.0,0.0,0.0,0.0,0.0,0.0,0.0,0.0,0.0,0.0,0.0,0.0,0.0,0.0,0.0,0.0,0.0,0.0,0.0,-4.0096,-4.0096,-4.0286,-4.0803,-4.0897,-4.1358,-4.2539,-4.2655,-4.2902,-4.3444,-4.3515,-4.3515,-4.3515,-4.3515,-4.3515,-4.3515,-4.3515,-4.3515,-4.3515,-4.3515,-4.3515,-4.3515,-4.3515,-4.3496,-4.3441,-4.2635,-4.1827,-4.1022,-4.0212,-3.9423,-3.8707,-3.8707,-3.8707,-3.8707,-3.8707,-3.8707,-3.8707,-3.8707,-3.867,-3.8505,-3.7713,-3.634,-3.4968,-3.4968,-3.4435,-3.3807,-3.3807,-3.3807,-3.3972,-3.4766,-3.4986,-3.5169,-3.6028,-3.561,-3.4968,-3.4968,-3.4344,-3.3752,-3.3752,-3.3733,-3.3733,-3.3733,-3.3733,-3.3495,-3.2729,-3.2564,-3.2265,-3.1476,-3.0687,0.0,-3.0173,-3.0173,-3.0173,-3.0173,-3.0173,-3.0173,-3.0173,-2.9445,-2.9005,-2.9005,-2.9005,-2.9005,-2.9005,-2.8235,-2.7813,-2.7801,-2.6626,-2.6405,-2.7186,0.0,0.0,0.0,0.0,0.0,0.0,0.0,0.0,0.0,0.0,0.0,0.0,0.0,0.0,0.0,0.0,0.0,0.0,0.0,0.0,0.0,-4.0096,-4.0096,-4.0096,-4.0096,-4.0146,-4.0311,-4.0311,-4.0767,-4.1955,-4.2059,-4.2444,-4.3427,-4.3515,-4.3515,-4.3515,-4.3515,-4.3515,-4.3515,-4.3515,-4.3515,-4.3515,-4.3515,-4.3515,-4.3515,-4.3515,-4.3185,-4.2598,-4.1809,-4.1001,-4.0194,-3.9386,-3.8909,-3.8707,-3.8707,-3.8707,-3.8707,-3.8707,-3.8707,-3.8707,-3.8707,-3.7955,-3.6835,-3.5977,-3.5,-3.4137,-3.4137,-3.399,-3.3807,-3.3807,-3.3807,-3.3972,-3.4766,-3.4582,-3.4321,-3.5133,-3.4747,-3.4137,-3.4137,-3.3532,-3.2931,-3.2931,-3.2467,-3.2045,-3.2045,-3.2045,-3.2173,-3.2528,-3.1629,-3.0779,-3.0558,-2.9861,0.0,-2.9335,-2.9335,-2.9335,-2.9335,-2.9335,-2.9335,-2.9335,-2.9133,-2.9005,-2.9005,-2.9005,-2.9005,-2.9005,-2.8506,-2.8126,-2.7879,-2.6979,-2.6628,0.0,0.0,0.0,0.0,0.0,0.0,0.0,0.0,0.0,0.0,0.0,0.0,0.0,0.0,0.0,0.0,0.0,0.0,0.0,0.0,0.0,0.0,-4.0096,-4.0096,-4.0096,-4.0096,-4.0096,-4.0096,-4.0311,-4.0797,-4.1725,-4.2021,-4.2541,-4.3427,-4.3515,-4.3515,-4.3515,-4.3515,-4.3515,-4.3515,-4.3515,-4.3515,-4.3515,-4.3515,-4.3515,-4.3515,-4.3149,-4.2745,-4.2268,-4.113,-4.0341,0.0,-3.9056,-3.8707,-3.8707,-3.8707,-3.8707,0.0,0.0,0.0,0.0,0.0,-3.7165,-3.5665,-3.5188,-3.4472,-3.3807,-3.3807,-3.3807,-3.3807,-3.3807,-3.3807,-3.3899,-3.4362,-3.4174,-3.3917,-3.438,-3.4156,-3.3715,-3.3385,-3.2931,-3.2509,-3.2173,-3.1733,-3.1397,-3.1397,-3.114,0.0,-3.15,-3.0815,-3.0099,-2.9739,-2.9299,-2.894,-2.8773,-2.8749,-2.8682,-2.8545,-2.8551,-2.8551,-2.8551,-2.8551,0.0,0.0,0.0,-2.8388,-2.805,-2.7823,0.0,0.0,0.0,0.0,0.0,0.0,0.0,0.0,-2.6571,-2.6539,0.0,0.0,0.0,0.0,0.0,0.0,0.0,0.0,0.0,0.0,0.0,0.0,0.0,0.0,0.0,0.0,-4.0096,-4.0096,-4.0096,-4.0096,-4.0096,-4.0096,-4.0577,-4.1133,-4.1729,-4.2342,-4.292,-4.3444,-4.3515,-4.3515,-4.3515,0.0,0.0,0.0,0.0,-4.3515,-4.3515,-4.3515,-4.3515,-4.3496,-4.2671,-4.2249,-4.2121,-4.0579,-3.9845,-3.9717,-3.9019,-3.8707,-3.8707,-3.8707,-3.8652,-3.856,-3.856,-3.856,-3.8469,-3.7547,-3.6285,-3.4986,-3.4912,0.0,0.0,-3.3807,-3.3807,-3.3807,-3.3807,-3.3807,-3.3807,-3.3807,-3.3807,-3.3807,-3.3807,-3.3733,-3.3476,-3.2766,-3.2454,-3.2124,-3.1421,-3.1195,-3.114,-3.114,-3.0558,-3.0063,-3.0063,-3.0063,-2.9824,-2.9115,-2.9005,-2.8851,-2.8446,-2.8407,-2.8277,-2.794,0.0,0.0,-2.7897,-2.7897,-2.7897,-2.7897,-2.7897,-2.7568,-2.6795,-2.6778,-2.6697,-2.6585,-2.6308,-2.6488,-2.712,-2.6839,-2.6691,-2.6674,-2.5976,-2.583,0.0,0.0,0.0,0.0,0.0,0.0,0.0,0.0,0.0,0.0,0.0,0.0,0.0,0.0,0.0,-4.0096,-4.0096,-4.0096,-4.0096,-4.0096,-4.0096,-4.0096,-4.0577,-4.1133,-4.1729,-4.2342,-4.292,-4.3444,-4.3515,-4.3515,-4.3515,-4.3515,-4.3515,-4.3515,-4.3515,-4.3515,-4.3515,-4.3515,-4.3515,-4.3496,0.0,0.0,-4.1297,-4.0341,-3.9551,-3.8927,-3.8781,-3.8707,-3.8707,-3.8707,-3.8322,-3.7731,-3.7731,-3.7731,-3.7547,-3.6032,-3.5279,-3.4912,-3.4266,-3.3935,-3.3807,-3.3807,-3.3807,-3.3807,-3.3807,-3.3807,0.0,-3.3807,-3.3807,-3.3807,-3.3807,-3.333,-3.2784,-3.2638,-3.161,-3.0632,-3.0467,-2.9922,-2.9464,-2.9464,-2.9335,-2.9225,-2.9225,-2.9225,-2.9189,-2.9023,-2.9005,-2.8851,-2.8446,-2.8407,-2.8277,-2.794,-2.7897,-2.7897,-2.7897,-2.7897,-2.7897,-2.7897,-2.7897,-2.7683,-2.72,-2.7185,-2.6755,-2.583,-2.6314,-2.6366,-2.5925,-2.6453,-2.6691,-2.6708,-2.6535,-2.6516,0.0,0.0,0.0,0.0,0.0,0.0,0.0,0.0,0.0,0.0,0.0,-3.8576,-3.937,0.0,-4.0179,-4.0449,-4.0279,-4.0179,-4.0473,-4.0262,-4.0096,-4.0096,-4.0844,-4.1468,-4.1771,-4.2599,-4.3214,-4.3479,-4.3515,-4.3515,-4.3515,-4.3515,-4.3515,-4.3515,-4.3515,-4.3515,-4.3515,-4.3515,-4.3313,-4.2892,-4.2084,-4.1277,-4.0469,-3.9662,-3.9074,-3.8689,-3.8267,-3.8102,-3.8065,-3.7661,-3.7257,-3.6868,-3.6413,-3.6248,-3.6156,-3.5316,-3.4747,-3.4344,-3.3935,-3.3807,-3.3807,-3.3807,-3.3807,-3.3807,-3.3807,-3.3807,-3.3807,-3.3807,-3.3807,-3.3715,-3.3311,-3.2894,-3.2399,-3.1592,-3.0779,-3.0099,-2.9684,-2.928,-2.894,-2.8749,-2.8863,-2.894,-2.8737,-2.8863,-2.9005,-2.9005,-2.9005,-2.8791,-2.8224,-2.8156,-2.7918,-2.7363,-2.7303,-2.7303,-2.7303,-2.7303,-2.713,-2.6781,-2.6747,-2.65,-2.5922,-2.5905,-2.5625,-2.5066,-2.5422,-2.5592,-2.5592,-2.5981,-2.6336,-2.6691,-2.6691,-2.6691,0.0,0.0,0.0,0.0,0.0,0.0,0.0,0.0,-3.6093,-3.6348,-3.7613,-3.8745,-3.8881,-3.9558,-4.0286,-4.0803,-4.0546,-4.0466,-4.0995,-4.0696,-4.0417,-4.0417,-4.1127,-4.1664,-4.1789,-4.2734,-4.3392,-4.3479,-4.3515,-4.3515,-4.3515,-4.3515,-4.3515,-4.3515,-4.3515,-4.3423,-4.3276,-4.3276,-4.2855,-4.2066,-4.1242,-4.0524,-3.9863,-3.9074,-3.8707,-3.867,-3.786,-3.7419,-3.7199,-3.6376,-3.6046,-3.5954,-3.5096,-3.4766,-3.4766,-3.4766,-3.4362,-3.3807,-3.3807,-3.3807,-3.3807,-3.3807,-3.3807,-3.3807,-3.3807,-3.3807,-3.377,-3.3605,-3.3568,-3.3385,-3.2583,-3.2252,-3.1812,-3.0522,-3.0081,-2.9787,-2.9133,-2.894,-2.8815,-2.8565,-2.8725,-2.873,-2.8272,-2.8464,-2.8691,-2.8767,-2.8767,-2.8433,-2.7552,-2.7579,-2.7364,-2.6571,-2.6607,-2.664,-2.6488,-2.6488,-2.6167,-2.5439,-2.5389,-2.5118,-2.4525,-2.4491,-2.4423,-2.4288,-2.4423,-2.4728,-2.5186,-2.5457,-2.5913,-2.6488,-2.6623,-2.6691,-3.4025,-3.243,-3.1537,-3.1993,-3.1718,-3.1616,0.0,0.0,-3.3844,-3.5108,-3.6733,-3.8104,-3.8772,-3.9558,-4.0286,-4.0803,-4.0833,-4.1018,-4.1621,-4.166,-4.1617,-4.1617,-4.1246,-4.1223,-4.175,-4.2402,-4.2976,-4.3462,-4.3515,-4.3515,-4.3515,-4.3515,-4.3515,-4.3515,-4.3515,-4.3149,-4.2433,-4.2433,-4.2029,-4.1224,-4.0414,-3.9992,-3.9863,-3.9074,-3.8707,-3.867,-3.786,-3.7088,-3.6358,-3.55,-3.5151,-3.5059,-3.4247,-3.3935,-3.3935,-3.3935,-3.388,-3.3807,-3.3807,-3.3807,-3.3807,-3.3807,-3.3807,-3.3807,-3.3807,-3.3807,-3.3642,-3.2931,-3.2729,-3.2546,-3.1733,-3.0999,-3.043,-3.0246,-2.9647,-2.9115,-2.9023,-2.8725,-2.8565,-2.8863,-2.8682,-2.8236,-2.7543,-2.7453,-2.7597,-2.7882,-2.7934,-2.7407,-2.5953,-2.6401,-2.6551,-2.5808,-2.6302,-2.6437,-2.5795,-2.5711,-2.5406,-2.4677,-2.4626,-2.4592,-2.4491,-2.4491,-2.4186,-2.3543,-2.4169,-2.422,-2.3646,-2.4966,-2.5642,-2.5728,-2.6387,-2.6691,-3.0924,-3.0979,-3.1308,0.0,-3.1098,-3.1962,-3.2484,-3.2695,-3.3138,-3.4268,-3.5445,-3.6704,-3.8032,-3.8897,-3.9851,0.0,-4.115,-4.1281,-4.2183,-4.2021,-4.181,-4.181,-4.1578,-4.1664,-4.2282,-4.2539,-4.292,-4.3444,-4.3515,-4.3515,-4.3515,-4.3515,-4.3515,-4.3515,-4.3039,-4.2635,-4.2304,-4.1846,-4.1203,-4.0396,-4.0065,-3.9643,-3.9184,-3.8854,-3.8193,-3.7257,-3.6413,-3.5587,-3.4816,-3.4449,-3.4289,-3.427,-3.3935,-3.3807,-3.3807,-3.3807,-3.3807,-3.3807,-3.3807,-3.3807,-3.3807,-3.3807,-3.3807,-3.3715,-3.3238,-3.3096,-3.2926,-3.2137,-3.1898,-3.1715,-3.0907,-3.0448,-3.0081,-2.961,-2.9244,-2.8877,-2.8411,-2.8534,-2.853,-2.7797,-2.7709,-2.752,-2.6792,-2.648,-2.6205,-2.5883,-2.639,-2.6494,-2.5608,-2.5795,-2.5722,-2.5026,-2.5235,-2.5303,-2.4983,-2.4965,-2.466,-2.3915,-2.3864,-2.3663,-2.3241,-2.3224,-2.3071,-2.2767,-2.3054,-2.3274,-2.3393,-2.4019,-2.4543,-2.4982,-2.5727,-2.6065,-2.8349,0.0,0.0,-2.8388,-2.965,-3.116,-3.1319,-3.1788,-3.25,-3.3415,-3.4449,-3.5652,-3.7188,-3.823,-3.9415,-4.0995,-4.1223,-4.1565,-4.2557,-4.2462,-4.2266,-4.2266,-4.2124,-4.2284,-4.2846,-4.2788,-4.292,-4.3444,-4.3515,-4.3515,-4.3515,-4.358,-4.3537,-4.3299,-4.2744,-4.2228,-4.1751,-4.1105,-4.0377,-3.957,-3.957,-3.9258,-3.8689,-3.8469,-3.7606,-3.6248,-3.5371,-3.4546,-3.3807,-3.3807,-3.3807,-3.3807,-3.3807,-3.3807,-3.3807,-3.3807,-3.3807,-3.3807,-3.3807,-3.3807,-3.3807,-3.3807,-3.3642,-3.3366,-3.2784,-3.2454,-3.21,-3.1292,-3.1072,-3.087,-3.0081,-2.9879,-2.9721,-2.9133,-2.9005,-2.884,-2.8264,-2.8507,-2.8452,-2.7129,-2.7033,-2.6839,-2.5781,-2.5361,-2.4877,-2.4045,-2.4627,-2.5062,-2.4768,-2.4844,-2.4813,-2.4518,-2.4491,-2.4423,-2.4203,-2.4203,-2.3881,-2.3139,-2.3105,-2.2868,-2.2313,-2.2296,-2.2296,-2.2296,-2.2296,-2.2564,-2.3105,-2.3291,-2.3663,-2.422,-2.4949,-2.5304,0.0,0.0,-2.4562,-2.5025,-2.6302,-2.7621,-2.8124,-2.9782,-3.1499,-3.2464,-3.3999,-3.5493,-3.6461,-3.7873,-3.9116,-3.9767,-4.0932,-4.1979,-4.2616,-4.3124,-4.3444,-4.3444,-4.2995,-4.2883,0.0,-4.2995,-4.292,-4.3444,-4.3515,-4.3515,-4.3515,-4.382,-4.3617,-4.2843,-4.2809,-4.199,-4.0379,-4.0084,-3.9533,-3.8744,-3.8744,-3.8726,-3.867,-3.7896,-3.7088,-3.6248,-3.5371,-3.4546,-3.3807,-3.3807,-3.3807,-3.3807,-3.3807,-3.3807,-3.3807,-3.3807,-3.3807,-3.3807,-3.3807,-3.3807,-3.3807,-3.3807,-3.3275,-3.2619,-3.2601,-3.2063,-3.1268,-3.0467,-3.0246,-3.0063,-2.9244,-2.9042,-2.9023,-2.9005,-2.9005,-2.8987,-2.8968,-2.8682,-2.8198,-2.7441,-2.7033,-2.6233,-2.4373,-2.4058,-2.3745,-2.289,-2.2786,-2.2803,-2.279,-2.3175,-2.3727,-2.4438,-2.4491,-2.4203,-2.3477,-2.3427,-2.3122,-2.2381,-2.233,-2.2313,-2.2296,-2.2296,-2.2296,-2.2296,-2.2296,-2.2313,-2.233,-2.3054,-2.341,-2.3444,-2.4186,-2.4525,-2.4406,0.0,-2.4676,-2.4526,-2.5613,-2.699,-2.7888,-2.8627,-2.9808,-3.2114,-3.3094,-3.4114,-3.6198,-3.7469,-3.8547,-3.9615,-4.0599,-4.1556,-4.2577,-4.2864,-4.3105,-4.3444,-4.3339,0.0,0.0,0.0,0.0,-4.3444,-4.3515,-4.3276,-4.2727,-4.3026,-4.2835,-4.2017,-4.1654,-4.1106,-4.03,-3.9681,-3.9143,-3.8707,-3.8707,-3.8414,-3.7878,-3.7055,-3.6248,-3.5389,-3.4559,-3.4045,-3.3807,-3.3807,-3.3807,-3.3807,-3.3807,-3.3807,-3.3807,-3.3807,-3.3458,-3.3091,-3.3605,-3.3458,-3.2999,-3.2999,-3.2467,-3.1696,-3.1182,-3.0815,-3.0448,-2.9629,-2.939,-2.9335,-2.9078,-2.9005,-2.9005,-2.9005,-2.9005,-2.8782,-2.7979,-2.7906,-2.7562,-2.6061,-2.5473,-2.487,-2.379,-2.3198,-2.2774,-2.2474,-2.2586,-2.2708,-2.2708,-2.2668,-2.2767,-2.3004,-2.3038,-2.2936,-2.2699,-2.2682,-2.2564,-2.2313,-2.2296,-2.2296,-2.2296,-2.2296,-2.2296,-2.2296,-2.2296,-2.2296,-2.2296,-2.255,-2.2682,-2.2699,-2.3932,-2.4491,-2.2626,-2.3147,-2.3785,-2.3247,-2.451,-2.6127,-2.7088,-2.7714,-2.8851,-3.1533,-3.2393,-3.3248,-3.5295,-3.6858,-3.8088,-3.8943,-4.0116,-4.1246,-4.2223,-4.2559,-4.2902,-4.3427,-4.3515,-4.3515,0.0,0.0,0.0,-4.3462,-4.3515,-4.3198,-4.2521,-4.2798,-4.2529,-4.1518,-4.1163,-4.074,-4.0234,-3.9479,-3.8975,-3.8707,-3.8414,-3.7991,-3.7456,-3.634,-3.5518,-3.4968,-3.4156,-3.3807,-3.3807,-3.3807,-3.3807,-3.377,-3.3476,-3.3366,-3.3348,-3.3054,-3.2614,-3.2284,-3.3091,-3.2852,-3.2173,-3.2173,-3.1623,-3.087,-3.0356,-3.0008,-2.9647,-2.9152,-2.9005,-2.9005,-2.9005,-2.9005,-2.9005,-2.9005,-2.9005,-2.8686,-2.7495,-2.744,-2.7037,-2.5034,-2.4436,-2.3986,-2.3153,-2.2615,-2.2296,-2.2296,-2.2453,-2.2563,-2.2563,-2.2415,-2.2296,-2.2296,-2.2296,-2.2296,-2.2296,-2.2296,-2.2296,-2.2296,-2.2296,-2.2296,-2.2296,-2.2296,-2.2296,-2.2296,-2.2296,-2.2296,-2.2296,-2.2296,-2.2296,-2.2313,-2.3274,-2.3712,-2.1945,-2.1898,-2.1758,-2.1327,-2.3011,-2.4903,-2.5632,-2.6978,-2.867,-3.0781,-3.1924,-3.282,0.0,0.0,-3.769,-3.7793,-3.9502,-4.1024,-4.1664,-4.2264,-4.2846,0.0,0.0,0.0,0.0,0.0,0.0,-4.3441,0.0,-4.324,-4.2768,-4.3031,-4.26,-4.1281,-4.1255,-4.0883,-4.012,-3.9388,-3.8915,-3.8646,-3.7823,-3.7419,-3.7327,-3.572,-3.4986,-3.4894,-3.41,-3.3733,-3.3733,-3.3697,-3.3678,-3.3605,-3.2852,-3.2528,-3.2454,-3.1678,-3.1378,-3.1439,-3.221,-3.199,-3.1342,-3.1342,-3.0797,-3.0136,-3.0136,-2.961,-2.9005,-2.9005,-2.9005,-2.9005,-2.9005,-2.9005,-2.9005,-2.9005,-2.9005,-2.8679,-2.752,-2.7254,-2.6596,-2.4388,-2.3944,-2.358,-2.2499,-2.2296,-2.2296,-2.2296,-2.2296,-2.2296,-2.2296,-2.2296,-2.2296,-2.2296,-2.2296,-2.2296,-2.2296,-2.2296,-2.2296,-2.2296,-2.2296,-2.2296,-2.2296,-2.2296,-2.2296,-2.2296,-2.2296,-2.2296,-2.2296,-2.2296,-2.2296,-2.2296,-2.233,-2.2347,-2.1399,-2.1381,-2.1414,-2.167,-2.2696,-2.4055,-2.5476,-2.67,-2.8232,-3.0703,-3.1389,-3.2069,0.0,0.0,0.0,-3.7587,-3.8712,0.0,-4.0955,-4.1643,0.0,-4.2827,0.0,-4.3515,-4.3515,-4.2947,0.0,0.0,-4.2841,-4.2656,-4.1942,-4.1837,-4.1371,-4.0434,-4.0611,-4.0504,-4.0101,-3.8836,-3.8165,-3.8089,-3.709,-3.6266,-3.561,-3.5188,-3.4674,-3.4064,-3.3261,-3.2913,-3.2871,-3.2265,-3.2021,-3.2003,-3.1801,-3.1715,-3.1678,-3.1488,-3.1029,-3.054,-3.0742,-3.0687,-3.0503,-3.0503,-2.9971,-2.9317,-2.9317,-2.9152,-2.9005,-2.9005,-2.9005,-2.9005,-2.9005,-2.9005,-2.9005,-2.9005,-2.9005,-2.8608,-2.723,-2.6643,-2.5852,-2.3918,-2.3107,-2.264,-2.2358,-2.2296,-2.2296,-2.2296,-2.2296,-2.2296,-2.2296,-2.2296,-2.2296,-2.2296,-2.2296,-2.2296,-2.2296,-2.2296,-2.2296,-2.2296,-2.2296,-2.2296,-2.2296,-2.2296,-2.2296,-2.2296,-2.2296,-2.2296,-2.2296,-2.2296,-2.2296,-2.2313,-2.2868,-2.3122,-2.0958,-2.1084,-2.132,-2.183,-2.2939,-2.4301,-2.6007,-2.7245,-2.851,-3.0082,-3.0939,0.0,-3.1931,-3.3757,-3.5562,0.0,0.0,0.0,-4.0698,-4.1424,-4.2021,0.0,-4.2868,0.0,-4.2965,-4.2249,-4.182,0.0,-4.2158,-4.1977,-4.1285,-4.1272,-4.0988,-4.0297,-4.0414,-4.02,-3.9538,-3.8588,-3.7873,-3.7353,-3.6265,-3.5463,-3.5004,-3.4637,-3.4032,-3.3256,0.0,-3.2399,-3.2045,-3.1586,-3.1397,-3.136,-3.0999,-3.087,-3.0834,-3.0485,-3.0063,-2.9666,-2.9666,-2.9666,-2.9666,-2.9666,-2.9372,-2.9005,-2.9005,-2.9005,-2.9005,-2.9005,-2.9005,-2.9005,-2.9005,-2.9005,-2.9005,-2.9005,-2.8631,-2.7888,-2.656,-2.5686,-2.4728,-2.321,-2.2581,-2.2296,-2.2296,-2.2296,-2.2296,-2.2296,-2.2296,-2.2296,-2.2296,-2.2296,-2.2296,-2.2296,-2.2296,-2.2296,-2.2296,-2.2296,-2.2296,-2.2296,-2.2296,-2.2296,-2.2296,-2.2296,-2.2296,-2.2296,-2.2296,-2.2296,-2.2296,-2.2296,-2.2296,-2.2313,-2.2733,-2.2919,-2.0517,-2.0879,-2.1381,-2.1952,-2.3534,-2.5396,-2.7034,-2.8352,-2.9334,-2.9651,0.0,-3.1144,-3.0054,-3.2644,-3.5052,-3.5439,0.0,-3.9106,-4.0545,-4.1275,-4.1878,-4.2473,-4.2376,-4.2268,-4.2158,-4.1407,-4.107,-4.1388,-4.1367,-4.1205,-4.0882,-4.1064,-4.092,-4.0354,-4.0342,-3.9805,-3.8698,-3.8312,-3.7627,-3.6627,-3.5465,-3.489,-3.4871,-3.4132,-3.3366,-3.2583,-3.2491,0.0,-3.1231,-3.114,-3.1085,-3.0999,-3.032,-3.0044,-2.9971,-2.9262,-2.9005,-2.9005,-2.9005,-2.9005,-2.9005,-2.9005,-2.9005,-2.9005,-2.9005,-2.9005,-2.9005,-2.9005,-2.9005,-2.9005,-2.9005,-2.9005,-2.9005,-2.9005,-2.8165,-2.7049,-2.5864,-2.4651,-2.347,-2.2499,-2.2296,-2.2296,-2.2296,-2.2296,-2.2296,-2.2296,-2.2296,-2.2296,-2.2296,-2.2296,-2.2296,-2.2296,-2.2296,-2.2296,-2.2296,-2.2296,-2.2296,-2.2296,-2.2296,-2.2296,-2.2296,-2.2296,-2.2296,-2.2296,-2.2296,-2.2296,-2.2296,-2.2296,-2.2296,-2.2296,-2.2296,-2.2296,-2.0029,-2.0672,-2.1555,-2.238,-2.4712,-2.7198,-2.8689,-2.9781,0.0,0.0,-3.1013,-3.0956,-3.1523,-3.2647,-3.3944,-3.5352,-3.6416,-3.7764,-3.9707,-4.0506,-4.1065,0.0,-4.2012,-4.2047,-4.137,-4.0579,0.0,0.0,-4.017,-4.0325,-4.117,-4.0852,-4.0295,-3.9534,-3.9515,-3.9069,-3.8147,-3.7149,-3.6568,-3.635,-3.4993,-3.4346,-3.4327,-3.3957,-3.3366,-3.2564,-3.1898,0.0,-3.0356,-2.9684,-2.9427,-2.939,-2.9262,-2.9207,-2.9189,-2.906,-2.9005,-2.9005,-2.9005,-2.9005,-2.9005,-2.9005,-2.9005,-2.9005,-2.9005,-2.9005,-2.9005,-2.9005,-2.9005,-2.9005,-2.9005,-2.9005,-2.9005,-2.9005,-2.834,-2.7339,-2.5902,-2.4019,-2.2547,-2.2344,-2.2296,-2.2296,-2.2296,-2.2296,-2.2296,-2.2296,-2.2296,-2.2296,-2.2296,-2.2296,-2.2296,-2.2296,-2.2296,-2.2296,-2.2296,-2.2296,-2.2296,-2.2296,-2.2296,-2.2296,-2.2296,-2.2296,-2.2296,-2.2296,-2.2296,-2.2296,-2.2296,-2.2296,-2.2296,-2.2296,-2.2296,-2.2296,-2.0258,-2.1485,-2.3073,-2.4359,-2.686,-2.9411,-3.0966,0.0,0.0,0.0,-3.236,-3.2169,-3.1631,-3.2686,-3.394,-3.4889,-3.5984,-3.7291,-3.8955,-4.0062,-4.0726,-4.076,-4.1319,-4.1368,-4.0561,-3.9753,-3.928,-3.9258,-3.9048,-3.9429,-4.0605,-4.0175,-3.9496,-3.8642,-3.8623,-3.82,-3.7334,-3.6635,-3.6086,-3.5677,-3.4845,-3.4456,-3.4445,-3.3707,-3.2951,-3.2137,-3.1194,0.0,-2.9537,-2.9152,-2.9005,-2.9005,-2.9005,-2.9005,-2.9005,-2.9005,-2.9005,-2.9005,-2.9005,-2.9005,-2.9005,-2.9005,-2.9005,-2.9005,-2.9005,-2.9005,-2.9005,-2.9005,-2.9005,-2.9005,-2.9005,-2.9005,-2.8895,-2.8484,-2.7309,-2.5884,-2.4401,-2.3258,-2.2463,-2.2338,-2.2296,-2.2296,-2.2296,-2.2296,-2.2296,-2.2296,-2.2296,-2.2296,-2.2296,-2.2296,-2.2296,-2.2296,-2.2296,-2.2296,-2.2296,-2.2296,-2.2296,-2.2296,-2.2296,-2.2296,-2.2296,-2.2296,-2.2296,-2.2296,-2.2296,-2.2296,-2.2296,-2.2296,-2.2296,-2.2296,-2.2296,-2.218,-2.0635,-2.2388,-2.4607,-2.6414,-2.9059,-3.1646,-3.3298,-3.4656,0.0,0.0,-3.4056,-3.3742,-3.2021,-3.3163,-3.4396,0.0,-3.56,-3.6937,-3.8343,-3.9659,-4.0374,-4.0167,-4.0714,0.0,-3.9735,-3.8909,0.0,-3.823,-3.8165,-3.8597,-3.9613,-3.924,-3.8623,-3.7757,-3.7719,-3.7315,-3.6442,-3.6235,-3.581,-3.519,-3.4727,-3.4509,-3.4462,-3.332,-3.2369,-3.1557,-3.0713,0.0,0.0,-2.9127,-2.9082,-2.9005,-2.9055,-2.9044,-2.9005,-2.9005,-2.9005,-2.9005,-2.9005,-2.9005,-2.9005,-2.9005,-2.9005,-2.9005,-2.9005,-2.9005,-2.9005,-2.9005,-2.9005,-2.9005,-2.9005,-2.8877,-2.8503,-2.7512,-2.606,-2.4513,-2.3105,-2.2759,-2.2625,-2.2349,-2.2296,-2.2296,-2.2296,-2.2296,-2.2296,-2.2296,-2.2296,-2.2296,-2.2296,-2.2296,-2.2296,-2.2296,-2.2296,-2.2296,-2.2296,-2.2296,-2.2296,-2.2296,-2.2296,-2.2296,-2.2296,-2.2296,-2.2296,-2.2296,-2.2296,-2.2296,-2.2296,-2.2296,-2.2296,-2.2296,-2.2194,-2.1943,-2.0785,-2.2826,-2.5253,-2.7484,-3.0665,-3.3634,-3.5207,0.0,0.0,-3.6366,-3.5824,-3.5155,-3.4182,-3.4644,0.0,0.0,0.0,-3.6313,-3.8084,-3.9132,-3.9743,-3.992,0.0,0.0,-3.8964,-3.8065,-3.7704,-3.7914,-3.7764,-3.7825,-3.8162,-3.8154,-3.7719,-3.6846,-3.6808,-3.6423,-3.5615,-3.5602,-3.553,-3.5453,-3.4396,-3.387,-3.3843,-3.2704,-3.1732,-3.097,-3.0876,0.0,0.0,-2.9561,-2.9387,-2.901,-2.9267,-2.9203,-2.9005,-2.9005,-2.9005,-2.9005,-2.9005,-2.9005,-2.9005,-2.9005,-2.9005,-2.9005,-2.9005,-2.9005,-2.9005,-2.9005,-2.9005,-2.9005,-2.9005,-2.8466,-2.7512,-2.598,-2.5248,-2.4588,-2.3401,-2.2923,-2.2625,-2.2349,-2.2296,-2.2296,-2.2296,-2.2296,-2.2296,-2.2296,-2.2296,-2.2296,-2.2296,-2.2296,-2.2296,-2.2296,-2.2296,-2.2296,-2.2296,-2.2296,-2.2296,-2.2296,-2.2296,-2.2296,-2.2296,-2.2296,-2.2296,-2.2296,-2.2296,-2.2296,-2.2296,-2.2296,-2.2296,-2.2296,-2.1853,-2.1643,-2.2012,-2.4546,-2.7483,-2.9541,-3.2731,-3.5722,-3.7059,0.0,-3.8479,-3.8016,-3.7571,-3.7077,-3.6406,-3.637,-3.6384,0.0,0.0,0.0,-3.7935,-3.8774,-3.9265,-3.9195,-3.9882,0.0,0.0,0.0,-3.7521,-3.6979,-3.6563,-3.6389,-3.65,-3.6949,-3.6846,-3.6,-3.5981,-3.5827,-3.55,-3.55,-3.55,-3.55,-3.4508,-3.4038,-3.3993,-3.2365,-3.1442,-3.1092,-3.0464,0.0,0.0,-2.9661,-2.9523,-2.9246,-2.9361,-2.9235,-2.9005,-2.9005,-2.9005,-2.9005,-2.9005,-2.9005,-2.8932,-2.8448,-2.8282,-2.8282,-2.8282,-2.7941,-2.7647,-2.8136,-2.7934,-2.7666,-2.8154,-2.731,-2.6182,-2.554,-2.4927,-2.4307,-2.3649,-2.3236,-2.291,-2.2603,-2.2398,-2.2296,-2.2296,-2.2296,-2.2296,-2.2296,-2.2296,-2.2296,-2.2296,-2.2296,-2.2296,-2.2296,-2.2296,-2.2296,-2.2296,-2.2296,-2.2296,-2.2296,-2.2296,-2.2296,-2.2296,-2.2296,-2.2296,-2.2296,-2.2296,-2.2296,-2.2296,-2.2017,-2.1884,-2.1869,-2.1446,-2.1102,-2.3436,-2.5978,-2.8916,-3.1085,-3.4024,-3.6771,0.0,-3.9227,-3.9751,-3.9274,-3.8958,-3.8571,-3.7958,-3.7594,-3.736,0.0,0.0,-3.736,-3.7825,-3.8597,-3.9004,-3.8734,0.0,-3.957,0.0,-3.7998,-3.7031,-3.5768,-3.5488,-3.5376,-3.5376,-3.5991,-3.6096,-3.5519,-3.55,-3.55,-3.55,-3.55,-3.5365,-3.5122,-3.4237,-3.3686,-3.341,-3.1787,-3.1035,-3.099,-3.0232,0.0,0.0,-2.9872,-2.9731,-2.9494,-2.9542,-2.9385,-2.9123,-2.9123,-2.9067,-2.8968,-2.873,-2.8638,-2.851,-2.7714,-2.7273,-2.71,-2.71,-2.6851,-2.6722,-2.7291,-2.7034,-2.6686,-2.6998,-2.6256,-2.5328,-2.499,-2.4544,-2.4046,-2.3522,-2.33,-2.3069,-2.2665,-2.244,-2.2296,-2.2296,-2.2296,-2.2296,-2.2296,-2.2296,-2.2296,-2.2296,-2.2296,-2.2296,-2.2296,-2.2296,-2.2296,-2.2296,-2.2296,-2.2296,-2.2296,-2.2296,-2.2296,-2.2296,-2.2296,-2.2296,-2.2296,-2.2296,-2.2296,-2.2296,-2.1823,-2.1597,-2.1582,-2.1055,-2.055,-2.4984,-2.6743,-2.9027,-3.1736,-3.4159,-3.6396,-3.8354,-3.9682,-4.0406,-4.0148,-3.9819,-3.9339,-3.8549,-3.8105,-3.7737,0.0,0.0,0.0,-3.7825,-3.8597,-3.9004,0.0,0.0,-3.957,-3.8781,-3.7498,-3.6019,-3.4349,-3.4774,0.0,-3.5105,-3.5361,-3.5519,-3.55,-3.55,-3.55,-3.55,-3.55,-3.5064,-3.4205,-3.3333,-3.2506,-3.1698,-3.0808,-3.0398,0.0,0.0,0.0,0.0,-3.0273,-3.0121,-2.9722,-2.9916,-2.9756,-2.9402,-2.9402,-2.9225,-2.8895,-2.8081,-2.7805,-2.7677,-2.6869,-2.6062,-2.5411,-2.5411,-2.598,-2.6602,-2.6602,-2.6602,-2.6429,-2.5631,-2.5411,-2.5112,-2.3994,-2.3966,-2.3927,-2.2935,-2.2972,-2.3026,-2.2415,-2.231,-2.2296,-2.2296,-2.2296,-2.2296,-2.2296,-2.2296,-2.2296,-2.2296,-2.2296,-2.2296,-2.2296,-2.2296,-2.2296,-2.2296,-2.2296,-2.2296,-2.2296,-2.2296,-2.2296,-2.2296,-2.2296,-2.2296,-2.2296,-2.2296,-2.2296,-2.2296,-2.1823,-2.1597,-2.1582,-2.0699,-2.0089,-2.712,-2.8722,-3.0619,-3.2477,-3.502,-3.7365,-3.8527,-3.9689,-4.0473,-4.0389,-4.0139,-3.9789,-3.9314,-3.8948,-3.878,-3.901,0.0,0.0,0.0,0.0,0.0,-3.871,-3.8432,-3.8022,0.0,0.0,-3.5789,-3.4879,-3.5163,0.0,-3.5376,-3.5446,-3.55,-3.55,-3.55,-3.5212,-3.4622,-3.4603,-3.416,-3.3295,-3.2468,-3.1948,-3.1679,-3.0808,-3.0404,0.0,0.0,0.0,0.0,-3.0361,-3.0196,-2.9916,-2.9977,-2.9477,-2.8715,-2.8715,-2.8315,-2.7718,-2.7323,-2.7182,-2.7022,-2.6086,-2.5613,-2.5301,-2.475,-2.4759,-2.4961,-2.4961,-2.5364,-2.5595,-2.4787,-2.4585,-2.4492,-2.4129,-2.3955,-2.3774,-2.3448,-2.3105,-2.2797,-2.2612,-2.2426,-2.2296,-2.2296,-2.2296,-2.2296,-2.2296,-2.2296,-2.2296,-2.2296,-2.2296,-2.2296,-2.2296,-2.2296,-2.2296,-2.2296,-2.2296,-2.2296,-2.2296,-2.2296,-2.2296,-2.2296,-2.2296,-2.2296,-2.2296,-2.2296,-2.2135,-2.1809,-2.14,-2.0894,-2.0296,-2.0017,-1.9836,0.0,-3.0185,-3.1674,-3.3489,-3.5579,-3.756,-3.8963,-3.993,-4.0496,-4.0496,-4.0295,-4.0051,-3.9819,-3.9498,-3.9266,-3.9157,0.0,0.0,0.0,0.0,0.0,-3.8707,0.0,0.0,0.0,-3.6162,-3.5632,-3.4992,-3.5289,0.0,-3.55,-3.5192,-3.5007,-3.5007,-3.5007,-3.4584,-3.3725,-3.3705,-3.3276,-3.2449,-3.1948,-3.1525,-3.1192,-3.0654,-3.0404,0.0,0.0,0.0,0.0,-3.0038,-2.9812,-2.9633,-2.9327,-2.8734,-2.8055,-2.8055,-2.7708,-2.7131,-2.6705,-2.6568,-2.6383,-2.5394,-2.5012,-2.486,-2.4355,-2.419,-2.419,-2.419,-2.4566,-2.4824,-2.4318,-2.419,-2.417,-2.4036,-2.3847,-2.3639,-2.338,-2.2996,-2.2656,-2.2577,-2.2412,-2.2296,-2.2296,-2.2296,-2.2296,-2.2296,-2.2296,-2.2296,-2.2296,-2.2296,-2.2296,-2.2296,-2.2296,-2.2296,-2.2296,-2.2296,-2.2296,-2.2296,-2.2296,-2.2296,-2.2296,-2.2296,-2.2296,-2.2296,-2.212,-2.1899,-2.1597,-2.1023,-2.0381,-1.9708,-1.9708,-1.9708,0.0,-3.1314,-3.2266,-3.4555,-3.579,-3.7049,-3.9336,-4.0149,0.0,-4.0419,-4.0217,-4.0043,-4.0081,-3.9745,-3.9133,-3.8177,0.0,0.0,0.0,-3.8245,0.0,0.0,-3.7915,0.0,-3.6285,-3.598,-3.5495,-3.4769,-3.5141,0.0,-3.5404,-3.4584,-3.409,-3.4013,-3.4013,-3.3622,-3.2814,-3.2814,-3.241,-3.1621,-3.1621,-3.1173,-3.0404,-3.0404,-3.0404,0.0,0.0,0.0,0.0,-2.9371,-2.9011,-2.8934,-2.8184,-2.7704,-2.7439,-2.7439,-2.7277,-2.6951,-2.6197,-2.5933,-2.577,-2.4812,-2.4375,-2.4218,-2.4199,-2.419,-2.419,-2.419,-2.419,-2.419,-2.419,-2.419,-2.4113,-2.3806,-2.3714,-2.3533,-2.2885,-2.2721,-2.2625,-2.2349,-2.2296,-2.2296,-2.2296,-2.2296,-2.2296,-2.2296,-2.2296,-2.2296,-2.2296,-2.2296,-2.2296,-2.2296,-2.2296,-2.2296,-2.2296,-2.2296,-2.2296,-2.2296,-2.2296,-2.2296,-2.2296,-2.2296,-2.2296,-2.2296,-2.1809,-2.1536,-2.1506,-2.0682,-2.007,-1.9708,-1.9708,-1.9708,-3.3054,0.0,-3.3069,-3.405,-3.5163,-3.6305,0.0,-3.8585,-3.9573,-3.9573,0.0,-3.961,-4.0024,-3.8956,-3.8236,-3.8997,0.0,-3.8306,-3.8674,-3.8708,0.0,-3.786,-3.7055,-3.6248,-3.5389,-3.5103,-3.4902,-3.4713,0.0,-3.4507,-3.4507,-3.368,-3.291,-3.2314,-3.2295,-3.2199,-3.1987,-3.1987,-3.1545,-3.0712,-3.0712,-3.0596,-3.0404,-3.0404,-3.0404,0.0,0.0,0.0,-2.9333,-2.853,-2.8184,-2.8165,-2.7972,-2.7445,-2.6812,-2.6812,-2.6362,-2.5698,-2.5361,-2.5241,-2.5157,-2.4663,-2.4469,-2.4401,-2.4256,-2.419,-2.419,-2.419,-2.419,-2.419,-2.419,-2.419,-2.418,-2.4094,-2.3886,-2.3577,-2.3165,-2.2885,-2.2625,-2.2349,-2.2296,-2.2296,-2.2296,-2.2296,-2.2296,-2.2296,-2.2296,-2.2296,-2.2296,-2.2296,-2.2296,-2.2296,-2.2296,-2.2296,-2.2296,-2.2296,-2.2296,-2.2296,-2.2296,-2.2296,-2.2296,-2.2296,-2.2296,-2.2296,-2.1539,-2.0959,-2.0601,-2.0087,-1.98,-1.9708,-1.9708,-1.9708,-3.3734,-3.3908,-3.4223,-3.5039,-3.5856,-3.6649,-3.749,0.0,0.0,0.0,0.0,0.0,0.0,0.0,0.0,0.0,-3.858,0.0,0.0,0.0,-3.853,-3.7614,-3.6795,-3.5954,0.0,-3.4456,-3.4089,-3.4089,0.0,-3.3603,-3.3603,-3.2814,-3.216,-3.1718,-3.1308,-3.1096,-3.1096,-3.1096,-3.0865,-3.0404,-3.0404,-3.0404,-3.0404,-3.0404,-3.0173,0.0,0.0,0.0,-2.8472,-2.764,-2.7294,-2.7255,-2.6851,-2.6428,-2.6,-2.6,-2.5692,-2.5279,-2.5187,-2.5082,-2.498,-2.4783,-2.4628,-2.4478,-2.4366,-2.4266,-2.419,-2.419,-2.419,-2.419,-2.419,-2.419,-2.4161,-2.4006,-2.3714,-2.338,-2.3075,-2.2742,-2.2477,-2.2321,-2.2296,-2.2296,-2.2296,-2.2296,-2.2296,-2.2296,-2.2296,-2.2296,-2.2296,-2.2296,-2.2296,-2.2296,-2.2296,-2.2296,-2.2296,-2.2296,-2.2296,-2.2296,-2.2296,-2.2296,-2.2296,-2.2296,-2.2106,-2.1706,-2.1245,-2.0682,-2.0019,-1.9818,-1.9708,-1.9708,-1.9708,-1.9708,-3.3954,-3.4582,-3.5377,-3.6117,-3.6707,-3.7297,-3.8004,0.0,0.0,0.0,0.0,0.0,0.0,-3.8013,0.0,0.0,0.0,0.0,-3.9072,-3.8938,-3.8461,-3.7445,-3.6597,0.0,-3.4729,-3.3903,-3.3353,0.0,0.0,-3.2718,-3.2718,-3.1948,-3.1506,-3.1506,-3.0788,-3.0404,-3.0404,-3.0404,-3.0404,-3.0404,-3.0404,-3.0404,-3.0404,-3.0269,-2.9794,-2.9088,0.0,0.0,-2.7621,-2.6755,-2.6409,-2.6327,-2.5596,-2.5308,-2.5308,-2.5308,-2.5308,-2.5308,-2.5308,-2.5198,-2.504,-2.5016,-2.479,-2.4545,-2.4512,-2.4357,-2.419,-2.419,-2.419,-2.419,-2.419,-2.4161,-2.4046,-2.3774,-2.3437,-2.3117,-2.2837,-2.2558,-2.2349,-2.231,-2.2296,-2.2296,-2.2296,-2.2296,-2.2296,-2.2296,-2.2296,-2.2296,-2.2296,-2.2296,-2.2296,-2.2296,-2.2296,-2.2296,-2.2296,-2.2296,-2.2296,-2.2296,-2.2296,-2.2296,-2.2296,-2.2223,-2.1811,-2.1023,-2.0926,-2.0499,-1.9708,-1.9708,-1.9708,-1.9708,-1.9708,-1.9708,-3.4637,-3.5445,-3.5855,-3.4841,-3.5844,-3.6791,-3.5594,0.0,0.0,0.0,0.0,0.0,0.0,-3.69,-3.651,0.0,0.0,-3.8292,0.0,0.0,-3.7423,-3.6574,0.0,-3.4619,-3.3115,-3.3232,-3.3118,0.0,0.0,-3.1891,-3.1891,-3.1077,-3.0596,-3.0596,-3.0462,-3.0404,-3.0404,-3.0404,-3.0404,-3.0404,-3.0404,-3.0404,-3.0365,-2.964,-2.9223,-2.9011,0.0,-2.6909,-2.6736,-2.5865,-2.55,-2.55,-2.5346,-2.5308,-2.5308,-2.5308,-2.5308,-2.5308,-2.5308,-2.5274,-2.5224,-2.5065,-2.4897,-2.4723,-2.4543,-2.4357,-2.419,-2.419,-2.419,-2.419,-2.419,-2.3996,-2.3756,-2.3703,-2.3437,-2.3105,-2.2789,-2.2673,-2.256,-2.2349,-2.2296,-2.2296,-2.2296,-2.2296,-2.2296,-2.2296,-2.2296,-2.2296,-2.2296,-2.2296,-2.2296,-2.2296,-2.2296,-2.2296,-2.2296,-2.2296,-2.2296,-2.2296,-2.2296,-2.2296,-2.2296,-2.1913,-2.1476,-2.1023,-2.06,-2.0176,-1.9708,-1.9708,-1.9708,-1.9708,-1.9708,-1.9708,-3.4252,-3.4949,-3.5432,-3.4784,-3.6093,-3.7222,-3.6049,0.0,0.0,0.0,0.0,0.0,0.0,0.0,-3.6908,-3.7989,0.0,-3.8832,-3.891,-3.822,-3.7355,0.0,0.0,-3.438,-3.2766,-3.2653,0.0,0.0,0.0,0.0,-3.1,-3.0615,-3.0404,-3.0404,-3.0404,-3.0404,-3.0404,-2.9929,-2.9929,-3.0385,-2.9929,-2.9698,-2.9679,-2.8838,-2.8184,-2.7717,0.0,-2.6327,-2.5865,-2.5462,-2.5308,-2.5308,-2.5308,-2.5308,-2.5308,-2.5308,-2.5308,-2.5308,-2.5308,-2.5308,-2.5279,-2.5198,-2.5041,-2.4877,-2.4704,-2.4528,-2.433,-2.4228,-2.419,-2.419,-2.419,-2.4084,-2.3886,-2.3522,-2.3311,-2.3075,-2.2594,-2.2473,-2.245,-2.2321,-2.2296,-2.2296,-2.2296,-2.2296,-2.2296,-2.2296,-2.2296,-2.2296,-2.2296,-2.2296,-2.2296,-2.2296,-2.2296,-2.2296,-2.2296,-2.2296,-2.2296,-2.2296,-2.2296,-2.2296,-2.2296,-2.1838,-2.1414,-2.1023,-2.0533,-2.0089,-1.9708,-1.9708,-1.9708,-1.9708,-1.9708,-1.9708,-3.4054,-3.4527,-3.5059,-3.5261,0.0,-3.7445,-3.6753,0.0,0.0,0.0,0.0,0.0,0.0,-3.6087,0.0,-3.8287,-3.8825,-3.8958,-3.8497,-3.7745,-3.6914,-3.6093,-3.5059,-3.3885,-3.2454,0.0,0.0,0.0,0.0,0.0,-3.0404,-3.0404,-3.0308,-3.0096,-3.0096,-3.0,-2.9827,-2.914,-2.9256,-3.0096,-2.9236,-2.8819,-2.88,-2.7972,-2.7236,-2.6582,-2.6385,-2.5923,-2.5308,-2.5308,-2.5308,-2.5308,-2.5308,-2.5308,-2.5308,-2.5308,-2.5308,-2.5308,-2.5308,-2.5308,-2.5308,-2.5308,-2.5141,-2.4924,-2.4828,-2.4623,-2.4401,-2.4247,-2.419,-2.419,-2.419,-2.4151,-2.3947,-2.3437,-2.3189,-2.2965,-2.249,-2.2349,-2.2296,-2.2296,-2.2296,-2.2296,-2.2296,-2.2296,-2.2296,-2.2296,-2.2296,-2.2296,-2.2296,-2.2296,-2.2296,-2.2296,-2.2296,-2.2296,-2.2296,-2.2296,-2.2296,-2.2296,-2.2296,-2.2237,-2.2135,-2.1705,-2.126,-2.0845,-2.0382,-2.0017,-1.9708,-1.9708,-1.9708,-1.9708,-1.9708,-1.9708,-3.4775,-3.4968,-3.5188,-3.6009,-3.6504,0.0,-3.6412,-3.6677,0.0,0.0,0.0,0.0,0.0,-3.6323,-3.6686,-3.6532,-3.7147,-3.7382,-3.6618,0.0,-3.5179,-3.5096,-3.372,-3.2417,0.0,0.0,0.0,0.0,0.0,0.0,-3.0404,-3.0404,-3.0019,-2.9223,-2.9184,-2.8838,-2.8088,-2.803,-2.8396,-2.9184,-2.8376,-2.7992,-2.7953,-2.7082,-2.6659,-2.6544,-2.5731,-2.5365,-2.5308,-2.5308,-2.5308,-2.5308,-2.5308,-2.5308,-2.5308,-2.5308,-2.5308,-2.5308,-2.5308,-2.5308,-2.5308,-2.5308,-2.5086,-2.4818,-2.4804,-2.4537,-2.4218,-2.4199,-2.419,-2.419,-2.419,-2.3976,-2.3714,-2.3682,-2.3189,-2.2721,-2.2669,-2.2477,-2.2296,-2.2296,-2.2296,-2.2296,-2.2296,-2.2296,-2.2296,-2.2296,-2.2296,-2.2296,-2.2296,-2.2296,-2.2296,-2.2296,-2.2296,-2.2296,-2.2296,-2.2296,-2.2296,-2.2296,-2.2296,-2.2106,-2.1673,-2.126,-2.0813,-2.0365,-1.9962,-1.9744,-1.9708,-1.9708,-1.9708,-1.9708,-1.9708,-1.9708,-3.4451,-3.4745,-3.5078,-3.5408,0.0,0.0,0.0,0.0,0.0,0.0,0.0,0.0,0.0,0.0,-3.5845,-3.6443,-3.6648,-3.6652,-3.634,-3.5555,-3.4821,-3.4307,-3.3261,-3.2087,0.0,0.0,0.0,0.0,0.0,0.0,-2.9615,-2.9583,-2.9217,-2.8376,-2.8357,-2.8203,-2.7895,-2.7351,-2.7236,-2.7544,-2.7236,-2.7082,-2.7063,-2.6192,-2.5788,-2.5769,-2.5442,-2.5308,-2.5308,-2.5308,-2.5308,-2.5308,-2.5308,-2.5308,-2.5308,-2.5308,-2.5308,-2.5308,-2.5308,-2.5308,-2.5308,-2.5308,-2.5124,-2.491,-2.484,-2.4599,-2.4357,-2.4237,-2.419,-2.419,-2.419,-2.4103,-2.3966,-2.3764,-2.3346,-2.3009,-2.3009,-2.2634,-2.2349,-2.2527,-2.2412,-2.2296,-2.2296,-2.2296,-2.2296,-2.2296,-2.2296,-2.2296,-2.2296,-2.2296,-2.2296,-2.2296,-2.2296,-2.2296,-2.2296,-2.2296,-2.2296,-2.2296,-2.2296,-2.2092,-2.1628,-2.1213,-2.078,-2.0314,-1.9894,-1.9708,-1.9708,-1.9708,-1.9708,-1.9708,-1.9708,-1.9708,-3.4246,-3.4476,-3.4718,0.0,0.0,0.0,0.0,0.0,0.0,0.0,0.0,0.0,0.0,0.0,0.0,0.0,-3.5832,-3.5807,-3.555,-3.478,-3.4032,-3.3495,-3.2504,0.0,0.0,0.0,0.0,0.0,0.0,0.0,0.0,-2.8723,-2.8338,-2.7525,-2.7486,-2.7351,-2.7082,-2.6486,-2.6192,-2.6192,-2.6192,-2.6192,-2.6173,-2.5577,-2.5308,-2.5308,-2.5308,-2.5308,-2.5308,-2.5308,-2.5308,-2.5308,-2.5308,-2.5308,-2.5308,-2.5308,-2.5308,-2.5308,-2.5308,-2.5308,-2.5308,-2.5308,-2.513,-2.4923,-2.4821,-2.4615,-2.4375,-2.4247,-2.419,-2.419,-2.419,-2.419,-2.4151,-2.3907,-2.3522,-2.32,-2.32,-2.2738,-2.2346,-2.2537,-2.2426,-2.2296,-2.2296,-2.2296,-2.2296,-2.2296,-2.2296,-2.2296,-2.2296,-2.2296,-2.2296,-2.2296,-2.2296,-2.2296,-2.2296,-2.2296,-2.2296,-2.2296,-2.2149,-2.1884,-2.143,-2.115,-2.0731,-2.0124,-1.9839,-1.9708,-1.9708,-1.9708,-1.9708,-1.9708,-1.9708,-1.9708,-3.4371,-3.4218,-3.4135,0.0,0.0,0.0,0.0,0.0,0.0,0.0,0.0,-3.5144,-3.4002,0.0,0.0,-3.3984,-3.4454,-3.4692,-3.3899,-3.3091,-3.2583,-3.2583,0.0,0.0,0.0,0.0,0.0,0.0,0.0,0.0,0.0,-2.7895,-2.7486,-2.6621,-2.6582,-2.6173,-2.5308,-2.5308,-2.5308,-2.5308,-2.5308,-2.5308,-2.5308,-2.5308,-2.5308,-2.5308,-2.5308,-2.5308,-2.5308,-2.5308,-2.5308,-2.5308,-2.5308,-2.5308,-2.5308,-2.5308,-2.5308,-2.5308,-2.5308,-2.5308,-2.5308,-2.5308,-2.508,-2.4804,-2.4804,-2.4528,-2.4199,-2.419,-2.419,-2.419,-2.419,-2.419,-2.419,-2.419,-2.3692,-2.32,-2.32,-2.2738,-2.2296,-2.231,-2.2296,-2.2296,-2.2296,-2.2296,-2.2296,-2.2296,-2.2296,-2.2296,-2.2296,-2.2296,-2.2296,-2.2296,-2.2296,-2.2296,-2.2296,-2.2296,-2.2296,-2.2296,-2.1869,-2.1414,-2.1023,-2.1007,-2.0582,-1.9726,-1.9708,-1.9708,-1.9708,-1.9708,-1.9708,-1.9708,-1.9708,-1.9708,-3.4593,-3.4653,0.0,-3.3962,0.0,0.0,0.0,0.0,0.0,0.0,-3.5253,-3.4932,-3.4216,0.0,0.0,-3.3252,-3.2803,-3.2375,-3.2149,-3.1898,-3.1549,-3.098,0.0,0.0,0.0,0.0,0.0,0.0,0.0,0.0,0.0,-2.6913,-2.6582,-2.5712,-2.5692,-2.5558,-2.5308,-2.5308,-2.5308,-2.5308,-2.5308,-2.5308,-2.5308,-2.5308,-2.5308,-2.5308,-2.5308,-2.5308,-2.5308,-2.5308,-2.5308,-2.5308,-2.5308,-2.5308,-2.5308,-2.5308,-2.5308,-2.5308,-2.5308,-2.5308,-2.5308,-2.5308,-2.513,-2.4911,-2.4821,-2.4615,-2.4384,-2.4247,-2.419,-2.419,-2.419,-2.419,-2.419,-2.419,-2.3692,-2.3259,-2.3511,-2.2887,-2.2363,-2.2537,-2.2426,-2.2296,-2.2296,-2.2296,-2.2296,-2.2296,-2.2296,-2.2296,-2.2296,-2.2296,-2.2296,-2.2296,-2.2296,-2.2296,-2.2296,-2.2296,-2.2296,-2.2296,-2.1869,-2.1414,-2.1023,-2.0682,-2.0244,-1.9711,-1.9708,-1.9708,-1.9708,-1.9708,-1.9708,-1.9708,-1.9708,-1.9708,-3.4735,-3.4685,0.0,-3.3957,-3.4559,-3.5037,-3.4027,0.0,0.0,0.0,0.0,-3.432,-3.3691,-3.3036,0.0,-3.239,-3.1814,-3.1397,-3.1397,-3.1109,-3.0613,0.0,0.0,0.0,0.0,0.0,0.0,0.0,0.0,0.0,0.0,-2.5965,-2.5846,-2.5327,-2.5308,-2.5308,-2.5308,-2.5308,-2.5308,-2.5308,-2.5308,-2.5308,-2.5308,-2.5308,-2.5308,-2.5308,-2.5308,-2.5308,-2.5308,-2.5308,-2.5308,-2.5308,-2.5308,-2.5308,-2.5308,-2.5308,-2.5308,-2.5308,-2.5308,-2.5308,-2.5308,-2.5308,-2.5163,-2.4974,-2.4842,-2.4654,-2.4452,-2.4266,-2.419,-2.419,-2.419,-2.419,-2.419,-2.419,-2.3692,-2.3265,-2.3448,-2.2862,-2.2349,-2.2514,-2.2398,-2.2296,-2.2296,-2.2296,-2.2296,-2.2296,-2.2296,-2.2296,-2.2296,-2.2296,-2.2296,-2.2296,-2.2296,-2.2296,-2.2296,-2.2296,-2.2296,-2.2296,-2.1705,-2.1244,-2.1007,-2.055,-2.0106,-1.9708,-1.9708,-1.9708,-1.9708,-1.9708,-1.9708,-1.9708,-1.9708,-1.9708,-3.4709,0.0,0.0,-3.39,-3.3807,0.0,-3.3899,-3.3807,-3.3715,-3.377,0.0,-3.3476,-3.2729,-3.2472,-3.2142,-3.1415,-3.1231,-3.1182,-3.1182,-3.0485,0.0,0.0,0.0,0.0,0.0,0.0,0.0,0.0,0.0,0.0,0.0,-2.5173,-2.5308,-2.5308,-2.5308,-2.5308,-2.5308,-2.5308,-2.5308,-2.5308,-2.5308,-2.5308,-2.5308,-2.5308,-2.5308,-2.5308,-2.5308,-2.5308,-2.5308,-2.5308,-2.5308,-2.5308,-2.5308,-2.5308,-2.5308,-2.5308,-2.5308,-2.5308,-2.5308,-2.5308,-2.5308,-2.5308,-2.5187,-2.4998,-2.4862,-2.4685,-2.4486,-2.4284,-2.4209,-2.419,-2.419,-2.419,-2.419,-2.419,-2.3692,-2.32,-2.32,-2.2738,-2.2296,-2.2296,-2.2296,-2.2296,-2.2296,-2.2296,-2.2296,-2.2296,-2.2296,-2.2296,-2.2296,-2.2296,-2.2296,-2.2296,-2.2296,-2.2296,-2.2296,-2.2296,-2.2296,-2.2296,-2.1493,-2.0991,-2.0991,-2.0516,-2.0072,-1.9708,-1.9708,-1.9708,-1.9708,-1.9708,-1.9708,-1.9708,-1.9708,-1.9708,-3.4023,-3.4461,0.0,0.0,-3.3807,-3.3972,-3.4601,-3.3757,-3.3041,-3.3678,-3.3311,-3.2803,-3.2619,-3.1568,-3.0668,-3.0485,-2.9934,-2.9519,-2.9519,-2.8815,0.0,0.0,0.0,0.0,0.0,0.0,0.0,0.0,0.0,0.0,-2.4842,-2.5138,-2.5308,-2.5308,-2.5308,-2.5308,-2.5308,-2.5308,-2.5308,0.0,-2.5308,-2.5308,-2.5308,-2.5308,-2.5308,-2.5308,-2.5308,-2.5308,-2.5308,-2.5308,-2.5308,-2.5308,-2.5308,-2.5308,-2.5308,-2.5308,-2.5308,-2.5308,-2.5308,-2.5308,-2.5308,-2.5308,-2.5269,-2.5203,-2.5004,-2.485,-2.4693,-2.4495,-2.433,-2.419,-2.419,-2.419,-2.419,-2.419,-2.3692,-2.32,-2.32,-2.2738,-2.2296,-2.2296,-2.2296,-2.2296,-2.2296,-2.2296,-2.2296,-2.2296,-2.2296,-2.2296,-2.2296,-2.2296,-2.2296,-2.2296,-2.2296,-2.2296,-2.2296,-2.2296,-2.2296,-2.2296,-2.1493,-2.0991,-2.0991,-2.026,-1.9782,-1.9708,-1.9708,-1.9708,-1.9708,-1.9708,-1.9708,-1.9708,-1.9708,-1.9708,-3.3868,0.0,0.0,-3.4972,0.0,-3.4196,-3.408,-3.3395,-3.2748,-3.2671,-3.232,-3.1916,-3.1531,-3.0779,-2.9953,-2.9182,-2.8705,-2.829,-2.7904,-2.7493,0.0,0.0,0.0,0.0,0.0,0.0,0.0,0.0,0.0,-2.4654,-2.4654,-2.4968,-2.5157,-2.5157,-2.5253,-2.5308,-2.5308,-2.5308,-2.5308,-2.5308,-2.5308,-2.5308,-2.5308,-2.5308,-2.5308,-2.5308,-2.5308,-2.5308,-2.5308,-2.5308,-2.5308,-2.5308,-2.5308,-2.5308,-2.5308,-2.5308,-2.5308,-2.5308,-2.5308,-2.5308,-2.5308,-2.5308,-2.5308,-2.5253,-2.4981,-2.4862,-2.4738,-2.4435,-2.4275,-2.419,-2.419,-2.419,-2.419,-2.419,-2.3806,-2.3437,-2.3437,-2.3068,-2.2669,-2.2514,-2.2487,-2.245,-2.2307,-2.2296,-2.2296,-2.2296,-2.2296,-2.2296,-2.2296,-2.2296,-2.2209,-2.1988,-2.1957,-2.1884,-2.1691,-2.1691,-2.1691,-2.1691,-2.1039,-2.0666,-2.0666,-2.0035,-1.9708,-1.9708,-1.9708,-1.9708,-1.9708,-1.9708,-1.9708,-1.9708,-1.9708,-1.9708,-3.3581,0.0,-3.569,-3.5852,-3.5308,0.0,-3.3328,-3.2955,-3.256,-3.1488,-3.1232,-3.0993,-3.032,-3.0033,-2.9435,-2.8026,-2.7743,-2.7438,-2.6693,0.0,0.0,0.0,0.0,0.0,0.0,0.0,0.0,0.0,0.0,-2.4503,-2.4503,-2.4809,-2.498,-2.5004,-2.5157,-2.5264,-2.5308,-2.5308,-2.5308,-2.5308,-2.5308,-2.5308,-2.5308,-2.5308,-2.5308,-2.5308,-2.5308,-2.5308,-2.5308,-2.5308,-2.5308,-2.5308,-2.5308,-2.5308,-2.5308,-2.5308,-2.5308,-2.5308,-2.5308,-2.5308,-2.5308,-2.5308,-2.5274,-2.5192,-2.4916,-2.4785,-2.4678,-2.4358,-2.4228,-2.419,-2.419,-2.419,-2.419,-2.419,-2.3986,-2.3774,-2.3714,-2.3444,-2.3105,-2.2772,-2.2656,-2.2563,-2.2335,-2.2296,-2.2296,-2.2296,-2.2296,-2.2296,-2.2296,-2.2296,-2.212,-2.1658,-2.1597,-2.143,-2.1023,-2.0991,-2.0991,-2.0991,-2.055,-2.0297,-2.0297,-1.9909,-1.9708,-1.9708,-1.9708,-1.9708,-1.9708,-1.9708,-1.9708,-1.9708,-1.9708,-1.9708,0.0,0.0,-3.4182,0.0,-3.5287,-3.4447,0.0,0.0,-3.2003,0.0,-3.0515,-3.0338,-3.0228,-2.9356,-2.8463,-2.79,-2.7517,-2.7132,-2.6661,0.0,0.0,0.0,0.0,0.0,0.0,0.0,0.0,0.0,-2.4384,-2.4503,-2.4503,-2.4716,-2.4877,-2.5004,-2.5028,-2.5116,-2.5303,-2.5308,-2.5308,-2.5308,-2.5308,-2.5308,-2.5308,-2.5308,-2.5308,-2.5308,-2.5308,-2.5308,-2.5308,-2.5308,-2.5308,-2.5308,-2.5308,-2.5308,-2.5308,-2.5308,-2.5308,-2.5308,-2.5308,-2.5308,-2.5308,-2.5308,-2.5173,-2.5028,-2.4986,-2.4773,-2.4537,-2.4478,-2.4321,-2.419,-2.419,-2.419,-2.419,-2.419,-2.417,-2.4046,-2.3774,-2.3444,-2.3105,-2.2772,-2.2514,-2.2349,-2.231,-2.2296,-2.2296,-2.2296,-2.2296,-2.2296,-2.2296,-2.2296,-2.212,-2.1658,-2.1597,-2.143,-2.1023,-2.0991,-2.0991,-2.0991,-2.055,-2.0297,-2.0297,-1.9909,-1.9708,-1.9708,-1.9708,-1.9708,-1.9708,-1.9708,-1.9708,-1.9708,-1.9708,-1.9708,-3.3591,-3.3907,-3.4352,0.0,-3.5801,-3.477,-3.3291,0.0,-3.1944,-3.0258,-2.9829,-2.9643,-2.9271,-2.8407,-2.7494,-2.6651,-2.6159,-2.5687,0.0,0.0,0.0,0.0,0.0,0.0,0.0,0.0,0.0,0.0,-2.4275,-2.4321,-2.4321,-2.4528,-2.4651,-2.4723,-2.483,-2.4968,-2.5141,-2.5122,-2.5198,-2.5308,-2.5308,-2.5308,-2.5308,-2.5308,-2.5308,-2.5308,-2.5308,-2.5308,-2.5308,-2.5308,-2.5308,-2.5308,-2.5308,-2.5308,-2.5308,-2.5308,-2.5308,-2.5308,-2.5308,-2.5308,-2.5308,-2.5308,-2.5229,-2.5135,-2.4943,-2.4785,-2.4615,-2.4401,-2.4257,-2.419,-2.419,-2.419,-2.419,-2.419,-2.419,-2.4103,-2.3774,-2.3577,-2.3335,-2.281,-2.2473,-2.2296,-2.2296,-2.2296,-2.2296,-2.2296,-2.2296,-2.2296,-2.2296,-2.2296,-2.212,-2.1658,-2.1399,-2.1086,-2.0649,-2.0398,-2.0277,-2.0277,-2.007,-1.9965,-1.9965,-1.98,-1.9708,-1.9708,-1.9708,-1.9708,-1.9708,-1.9708,-1.9708,-1.9708,-1.9708,-1.9708,0.0,0.0,-3.4392,-3.5916,-3.59,-3.5021,0.0,0.0,-3.2092,0.0,-2.9513,-2.919,-2.8233,-2.757,-2.6738,-2.5417,-2.4901,-2.4413,0.0,0.0,0.0,0.0,0.0,0.0,0.0,0.0,0.0,0.0,-2.419,-2.419,-2.419,-2.433,-2.4444,-2.4503,-2.4647,-2.4802,-2.5004,-2.5046,-2.5152,-2.5308,-2.5308,-2.5308,-2.5308,-2.5308,-2.5308,-2.5308,-2.5308,-2.5308,-2.5308,-2.5308,-2.5308,-2.5308,-2.5308,-2.5308,-2.5308,-2.5308,-2.5308,-2.5308,-2.5308,-2.5308,-2.5308,-2.5308,-2.5264,-2.5182,-2.4929,-2.4785,-2.4662,-2.4357,-2.4247,-2.419,-2.419,-2.419,-2.419,-2.419,-2.419,-2.4103,-2.3774,-2.3566,-2.3311,-2.2797,-2.2473,-2.2296,-2.2296,-2.2296,-2.2296,-2.2296,-2.2296,-2.2296,-2.2296,-2.2296,-2.212,-2.1658,-2.1244,-2.0813,-2.0348,-1.9929,-1.9708,-1.9708,-1.9708,-1.9708,-1.9708,-1.9708,-1.9708,-1.9708,-1.9708,-1.9708,-1.9708,-1.9708,-1.9708,-1.9708,-1.9708,-1.9708,0.0,-3.2674,0.0,-3.4402,-3.5105,0.0,0.0,0.0,-3.2327,-3.0364,-2.9813,-2.9158,-2.7482,-2.6985,-2.6317,-2.4731,-2.4173,-2.3893,0.0,0.0,0.0,0.0,0.0,0.0,0.0,0.0,0.0,0.0,-2.419,-2.419,-2.419,-2.4209,-2.4303,-2.4495,-2.4512,-2.4663,-2.5004,-2.5198,-2.5298,-2.5308,-2.5308,-2.5308,-2.5308,-2.5308,-2.5308,-2.5308,-2.5308,-2.5308,-2.5308,-2.5308,-2.5308,-2.5308,-2.5308,-2.5308,-2.5308,-2.5308,-2.5308,-2.5308,-2.5308,-2.5308,-2.5308,-2.5308,-2.5168,-2.5016,-2.4979,-2.478,-2.4512,-2.4495,-2.4358,-2.419,-2.419,-2.419,-2.419,-2.419,-2.419,-2.4103,-2.3774,-2.32,-2.2746,-2.2708,-2.2473,-2.2296,-2.2296,-2.2296,-2.2296,-2.2296,-2.2296,-2.2296,-2.2296,-2.2296,-2.212,-2.1658,-2.1244,-2.0813,-2.0348,-1.9929,-1.9708,-1.9708,-1.9708,-1.9708,-1.9708,-1.9708,-1.9708,-1.9708,-1.9708,-1.9708,-1.9708,-1.9708,-1.9708,-1.9708,-1.9708,-1.9708,0.0,0.0,0.0,-3.3445,-3.3806,-3.3647,-3.2529,-3.2227,-3.1774,-3.03,-2.9837,-2.9082,-2.7085,-2.6339,-2.5535,-2.4009,-2.339,0.0,0.0,0.0,0.0,0.0,0.0,0.0,0.0,0.0,0.0,0.0,0.0,-2.419,-2.419,-2.419,-2.4237,-2.4312,-2.4312,-2.4485,-2.4876,-2.516,-2.5308,-2.5308,-2.5308,-2.5308,-2.5308,-2.5308,-2.5308,-2.5308,-2.5308,-2.5308,-2.5308,-2.5308,-2.5308,-2.5308,-2.5308,-2.5308,-2.5308,-2.5308,-2.5308,-2.5308,-2.5308,-2.5308,-2.5308,-2.5308,-2.5259,-2.5163,-2.5034,-2.4864,-2.4662,-2.4545,-2.4367,-2.419,-2.419,-2.419,-2.4151,-2.3927,-2.3714,-2.3477,-2.3129,-2.2873,-2.2647,-2.249,-2.2377,-2.2296,-2.2296,-2.2296,-2.2296,-2.2296,-2.2296,-2.2296,-2.2296,-2.2296,-2.2237,-2.2077,-2.1415,-2.0926,-2.0748,-2.0104,-1.9708,-1.9708,-1.9708,-1.9708,-1.9708,-1.9708,-1.9708,-1.9708,-1.9708,-1.9708,-1.9708,-1.9708,-1.9708,-1.9708,-1.9708,-1.9708,-3.1056,0.0,0.0,0.0,0.0,-3.2854,-3.2027,0.0,-3.1497,-3.0393,-2.9972,-2.9158,-2.6999,-2.6231,-2.53,-2.346,-2.2839,0.0,0.0,0.0,0.0,0.0,0.0,0.0,0.0,0.0,0.0,0.0,0.0,0.0,-2.419,-2.419,-2.419,-2.419,-2.4275,-2.4461,-2.4797,-2.5066,-2.5224,-2.5308,-2.5308,-2.5308,-2.5308,-2.5308,-2.5308,-2.5308,-2.5308,-2.5308,-2.5308,-2.5308,-2.5308,-2.5308,-2.5308,-2.5308,-2.5308,-2.5308,-2.5308,-2.5308,-2.5308,-2.5308,-2.5308,-2.5308,-2.5308,-2.5274,-2.5146,-2.4993,-2.4835,-2.4654,-2.4452,-2.4284,-2.4218,-2.419,-2.4151,-2.3917,-2.3692,-2.3414,-2.2972,-2.2699,-2.2514,-2.2335,-2.2296,-2.2296,-2.2296,-2.2296,-2.2296,-2.2296,-2.2296,-2.2296,-2.2296,-2.2296,-2.2237,-2.2092,-2.1431,-2.0943,-2.078,-2.0104,-1.9708,-1.9708,-1.9708,-1.9708,-1.9708,-1.9708,-1.9708,-1.9708,-1.9708,-1.9708,-1.9708,-1.9708,-1.9708,-1.9708,-1.9708,-1.9708,0.0,0.0,0.0,0.0,0.0,0.0,-3.2012,0.0,-3.1456,-3.0662,-3.0225,-2.9334,-2.7215,-2.6655,-2.5673,-2.3145,-2.2487,0.0,0.0,0.0,0.0,0.0,0.0,0.0,0.0,0.0,0.0,0.0,-2.3692,-2.3837,-2.417,-2.419,-2.419,-2.419,-2.4401,-2.4591,-2.4797,-2.4924,-2.5099,-2.5308,-2.5308,-2.5308,-2.5308,-2.5308,-2.5288,-2.5269,-2.5288,-2.5288,-2.5269,-2.5288,-2.5308,-2.5308,-2.5308,-2.5308,-2.5308,-2.5308,-2.5308,-2.5308,-2.5308,-2.5308,-2.5308,-2.5308,-2.5308,-2.5308,-2.5308,-2.5157,-2.4974,-2.4835,-2.4654,-2.4452,-2.4256,-2.419,-2.4208,-2.418,-2.418,-2.4006,-2.3346,-2.2734,-2.2324,-2.231,-2.2296,-2.2296,-2.2296,-2.2296,-2.2296,-2.2296,-2.2282,-2.2282,-2.2282,-2.2268,-2.2092,-2.1643,-2.1213,-2.0781,-2.0348,-1.9929,-1.9708,-1.9708,-1.9708,-1.9708,-1.9708,-1.9708,-1.9708,-1.9708,-1.9708,-1.9708,-1.9708,-1.9708,-1.9708,-1.9708,-1.9708,-1.9708,-3.0016,0.0,0.0,0.0,0.0,0.0,0.0,0.0,-2.9407,-3.0377,-2.9875,-2.8898,-2.7674,-2.7081,-2.6104,-2.3982,-2.3041,0.0,0.0,0.0,0.0,0.0,0.0,0.0,0.0,0.0,0.0,0.0,-2.3426,-2.3735,-2.3827,-2.4074,-2.419,-2.419,-2.4401,-2.4591,-2.4797,-2.4924,-2.5099,-2.5308,-2.5308,-2.5308,-2.5308,-2.5308,-2.4981,-2.4452,-2.5058,-2.4962,-2.449,-2.5058,-2.5308,-2.5308,-2.5308,-2.5308,-2.5308,-2.5308,-2.5308,-2.5308,-2.5308,-2.5308,-2.5308,-2.5308,-2.5308,-2.5308,-2.5308,-2.5157,-2.4974,-2.4835,-2.4654,-2.4452,-2.4256,-2.419,-2.4141,-2.3896,-2.3837,-2.3714,-2.33,-2.3075,-2.2824,-2.2374,-2.2296,-2.2296,-2.2296,-2.2296,-2.2296,-2.2296,-2.2017,-2.1794,-2.1794,-2.1538,-2.1307,-2.1181,-2.0764,-2.0449,-2.0314,-1.9929,-1.9708,-1.9708,-1.9708,-1.9708,-1.9708,-1.9708,-1.9708,-1.9708,-1.9708,-1.9708,-1.9708,-1.9708,-1.9708,-1.9708,-1.9708,-1.9708,0.0,0.0,0.0,0.0,0.0,0.0,-2.9299,-2.8912,0.0,0.0,-2.9775,-2.8806,-2.7881,-2.7146,-2.6136,-2.4435,-2.3642,0.0,0.0,0.0,0.0,0.0,0.0,0.0,0.0,-2.2436,-2.2573,-2.2695,-2.3057,-2.3403,-2.3682,-2.4016,-2.4043,-2.3712,-2.3814,-2.3998,-2.4257,-2.4346,-2.4698,-2.5308,-2.5308,-2.5308,-2.5288,-2.4947,-2.4548,-2.411,-2.4216,-2.4013,-2.3627,-2.4081,-2.4466,-2.4832,-2.5173,-2.5096,-2.4832,-2.5173,-2.5308,-2.5308,-2.5308,-2.5308,-2.5308,-2.5308,-2.5308,-2.5308,-2.5308,-2.5219,-2.5071,-2.4855,-2.4591,-2.4339,-2.4228,-2.419,-2.4151,-2.3966,-2.3907,-2.3816,-2.3488,-2.3403,-2.3218,-2.2594,-2.2463,-2.244,-2.2324,-2.2296,-2.2296,-2.2296,-2.1899,-2.1597,-2.1597,-2.1244,-2.0926,-2.0731,-2.0466,-2.0229,-2.0054,-1.9821,-1.9708,-1.9708,-1.9708,-1.9708,-1.9708,-1.9708,-1.9708,-1.9708,-1.9708,-1.9708,-1.9708,-1.9708,-1.9708,-1.9708,-1.9708,-1.9708,0.0,0.0,0.0,0.0,0.0,0.0,-2.8904,-2.8851,-2.9113,0.0,-2.949,-2.8616,-2.7727,-2.6954,-2.6005,-2.4696,-2.4289,0.0,0.0,0.0,0.0,0.0,0.0,0.0,-2.2166,-2.2194,-2.2329,-2.2565,-2.2656,-2.2996,-2.3671,-2.3986,-2.3794,-2.3024,-2.3006,-2.3151,-2.3508,-2.3496,-2.4062,-2.5173,-2.5173,-2.5115,-2.5,-2.4279,-2.3903,-2.3777,-2.3103,-2.279,-2.2769,-2.2798,-2.3266,-2.4045,-2.4754,-2.46,-2.4047,-2.4769,-2.5087,-2.5154,-2.5058,-2.5096,-2.5154,-2.5058,-2.5019,-2.5019,-2.5019,-2.5096,-2.5118,-2.4864,-2.4512,-2.419,-2.419,-2.419,-2.419,-2.419,-2.419,-2.4103,-2.3774,-2.3703,-2.3522,-2.2885,-2.2733,-2.2621,-2.2388,-2.2324,-2.2296,-2.2296,-2.1869,-2.1521,-2.1521,-2.1134,-2.0698,-2.028,-2.0229,-2.0089,-1.9729,-1.9708,-1.9708,-1.9708,-1.9708,-1.9708,-1.9708,-1.9708,-1.9708,-1.9708,-1.9708,-1.9708,-1.9708,-1.9708,-1.9708,-1.9708,-1.9708,-1.9708,0.0,0.0,0.0,0.0,0.0,0.0,-2.7046,-2.6705,-2.6976,0.0,-2.7527,-2.6943,-2.6697,-2.6699,-2.6331,-2.5156,-2.4968,0.0,0.0,0.0,0.0,0.0,0.0,0.0,-2.126,-2.1553,-2.1763,-2.1803,-2.2361,-2.2996,-2.3671,-2.3764,-2.3543,-2.3015,-2.3006,-2.3151,-2.3508,-2.3496,-2.3776,-2.4336,-2.4336,-2.3971,-2.3274,-2.3124,-2.2705,-2.2119,-2.2641,-2.2514,-2.1974,-2.2617,-2.3008,-2.3229,-2.332,-2.3276,-2.3141,-2.3315,-2.379,-2.4221,-2.3528,-2.3759,-2.4221,-2.3528,-2.3293,-2.3293,-2.3293,-2.3778,-2.4399,-2.4712,-2.4512,-2.419,-2.419,-2.419,-2.419,-2.419,-2.419,-2.4103,-2.3774,-2.3703,-2.3577,-2.3177,-2.2868,-2.2682,-2.2621,-2.2436,-2.2296,-2.2296,-2.1615,-2.1118,-2.1118,-2.0447,-1.9909,-1.9836,-1.9836,-1.9782,-1.9708,-1.9708,-1.9708,-1.9708,-1.9708,-1.9708,-1.9708,-1.9708,-1.9708,-1.9708,-1.9708,-1.9708,-1.9708,-1.9708,-1.9708,-1.9708,-1.9708,-1.9708,0.0,0.0,0.0,-2.8541,0.0,0.0,0.0,-2.6339,-2.6303,-2.7211,-2.6806,-2.6299,-2.6258,0.0,-2.5767,-2.5195,-2.5106,-2.4907,0.0,0.0,0.0,0.0,0.0,0.0,-2.1007,-2.1181,-2.1384,-2.1582,-2.2099,-2.2479,-2.264,-2.2948,-2.2652,-2.1635,-2.2118,-2.2566,-2.2898,-2.2904,-2.3295,-2.4091,-2.3663,-2.322,-2.2797,-2.2385,-2.1986,-2.1604,-2.1643,-2.1444,-2.1138,-2.1493,-2.1712,-2.1879,-2.2608,-2.2649,-2.2353,-2.2799,-2.3175,-2.345,-2.3006,-2.3109,-2.3374,-2.2932,-2.2797,-2.2797,-2.2797,-2.3279,-2.3933,-2.4601,-2.4512,-2.419,-2.419,-2.419,-2.419,-2.419,-2.419,-2.4103,-2.3774,-2.3703,-2.3599,-2.3277,-2.2935,-2.2759,-2.2923,-2.2704,-2.25,-2.25,-2.164,-2.0991,-2.0991,-2.0243,-1.9708,-1.9708,-1.9708,-1.9708,-1.9708,-1.9708,-1.9708,-1.9708,-1.9708,-1.9708,-1.9708,-1.9708,-1.9708,-1.9708,-1.9708,-1.9708,-1.9708,-1.9708,-1.9708,-1.9708,-1.9708,-1.9708,0.0,0.0,0.0,0.0,0.0,-2.7244,0.0,0.0,0.0,-2.6586,-2.6223,0.0,0.0,0.0,0.0,0.0,0.0,0.0,0.0,0.0,0.0,0.0,0.0,0.0,0.0,-2.0682,-2.091,-2.1305,-2.1755,-2.1912,-2.1699,-2.2138,-2.18,-2.0454,-2.1141,-2.1721,-2.2073,-2.2067,-2.2585,-2.3586,-2.2893,-2.247,-2.2297,-2.1642,-2.1362,-2.1321,-2.0692,-2.0468,-2.0512,-2.0441,-2.0484,-2.0722,-2.1963,-2.2046,-2.1547,-2.2263,-2.2574,-2.2649,-2.2475,-2.248,-2.2538,-2.2361,-2.2425,-2.2586,-2.2759,-2.3152,-2.3723,-2.4577,-2.4545,-2.4256,-2.4209,-2.419,-2.419,-2.419,-2.419,-2.4103,-2.3774,-2.366,-2.3533,-2.3247,-2.2935,-2.2784,-2.3057,-2.284,-2.2621,-2.2621,-2.1757,-2.1086,-2.1023,-2.0311,-1.9782,-1.9708,-1.9708,-1.9708,-1.9708,-1.9708,-1.9708,-1.9708,-1.9708,-1.9708,-1.9708,-1.9708,-1.9708,-1.9708,-1.9708,-1.9708,-1.9708,-1.9708,-1.9708,-1.9708,-1.9708,-1.9639,0.0,0.0,0.0,0.0,-2.7746,0.0,0.0,0.0,-2.5289,-2.4681,0.0,0.0,0.0,0.0,0.0,0.0,0.0,0.0,-2.4439,-2.4181,0.0,0.0,0.0,0.0,0.0,-1.9513,-1.9926,-2.0323,-2.1164,-2.1768,-2.2033,-2.2051,-2.1786,-2.1191,-2.0823,-2.0841,-2.1223,-2.1242,-2.1423,-2.1793,-2.1696,-2.1273,-2.0581,-2.0486,-2.0482,-2.0538,-2.0507,-2.0537,-2.0585,-2.0513,-2.0538,-2.0605,-2.0724,-2.0713,-2.0658,-2.0755,-2.1236,-2.1733,-2.094,-2.1152,-2.1607,-2.0837,-2.1073,-2.1793,-2.2566,-2.3245,-2.3903,-2.4594,-2.4639,-2.4418,-2.4256,-2.419,-2.419,-2.419,-2.419,-2.4103,-2.3774,-2.3477,-2.3253,-2.32,-2.2935,-2.2708,-2.2759,-2.2527,-2.2349,-2.2349,-2.1882,-2.1399,-2.1039,-2.055,-2.0089,-1.9729,-1.9708,-1.9708,-1.9708,-1.9708,-1.9708,-1.9708,-1.9708,-1.9708,-1.9708,-1.9708,-1.9708,-1.9708,-1.9708,-1.9708,-1.9708,-1.9708,-1.9708,-1.9708,-1.9708,-1.9442,0.0,0.0,0.0,0.0,0.0,0.0,-2.5257,0.0,-2.4317,0.0,0.0,0.0,0.0,0.0,0.0,0.0,0.0,0.0,0.0,0.0,-2.3652,0.0,0.0,0.0,0.0,0.0,0.0,0.0,-2.0878,-2.1234,-2.1169,-2.1712,-2.15,-2.04,-2.0943,-2.1194,-2.1109,-2.1054,-2.1192,-2.1485,-2.1019,-2.0627,-2.0299,-2.0341,-2.0385,-2.045,-2.0537,-2.0565,-2.0605,-2.0565,-2.0565,-2.0605,-2.0565,-2.0563,-2.0563,-2.0563,-2.0747,-2.0953,-2.0584,-2.0651,-2.0849,-2.0421,-2.0523,-2.1043,-2.2389,-2.291,-2.3293,-2.4468,-2.4654,-2.4452,-2.4256,-2.419,-2.419,-2.419,-2.3841,-2.3545,-2.3666,-2.3218,-2.2823,-2.2896,-2.2797,-2.2647,-2.2487,-2.25,-2.2523,-2.2523,-2.1994,-2.1536,-2.1368,-2.0716,-2.0244,-2.007,-1.9839,-1.9708,-1.9708,-1.9708,-1.9708,-1.9708,-1.9708,-1.9708,-1.9708,-1.9708,-1.9708,-1.9708,-1.9708,-1.9708,-1.9708,-1.9708,-1.9708,-1.9708,-1.9708,-1.9406,-3.0406,0.0,0.0,0.0,0.0,0.0,0.0,0.0,0.0,0.0,0.0,0.0,0.0,0.0,0.0,0.0,0.0,0.0,0.0,0.0,0.0,0.0,0.0,0.0,0.0,0.0,0.0,0.0,0.0,-2.117,-2.0809,-2.1556,-2.1487,-2.0368,-2.1116,-2.1377,-2.1072,-2.0832,-2.0882,-2.1154,-2.0577,-2.0303,-2.0294,-2.0363,-2.0318,-2.0157,-2.0467,-2.0332,-1.9922,-2.0391,-2.0469,-2.0273,-2.0508,-2.0605,-2.0605,-2.0605,-2.0565,-2.0537,-2.0537,-2.0475,-2.0381,-2.0316,-2.0446,-2.0865,-2.2062,-2.2513,-2.2798,-2.3866,-2.4046,-2.3857,-2.3656,-2.3732,-2.3823,-2.3584,-2.3272,-2.3088,-2.3432,-2.2896,-2.2471,-2.2777,-2.2699,-2.2541,-2.2335,-2.2463,-2.2586,-2.2586,-2.2122,-2.1749,-2.1628,-2.1038,-2.0567,-2.0331,-2.0052,-1.9836,-1.9708,-1.9708,-1.9708,-1.9708,-1.9708,-1.9708,-1.9708,-1.9708,-1.9708,-1.9708,-1.9708,-1.9708,-1.9708,-1.9708,-1.9621,-1.9479,-1.9479,-1.9188,0.0,0.0,0.0,-2.7345,0.0,0.0,0.0,0.0,-2.3703,0.0,0.0,0.0,0.0,0.0,0.0,0.0,0.0,0.0,0.0,0.0,0.0,0.0,0.0,0.0,0.0,0.0,0.0,0.0,0.0,0.0,-2.1579,-2.1837,-2.1982,-2.1929,-2.1221,-2.0896,-2.0998,-2.0364,-2.014,-2.0346,-2.0308,-2.0303,-2.0294,-2.0363,-1.9986,-1.9297,-2.0194,-1.9648,-1.8203,-1.9902,-2.0098,-1.9434,-2.0273,-2.0605,-2.0605,-2.0605,-2.0605,-2.0605,-2.0605,-2.0511,-2.0381,-2.0316,-2.0829,-2.1466,-2.1523,-2.2139,-2.2762,-2.2612,-2.2482,-2.2315,-2.2111,-2.254,-2.2841,-2.2069,-2.2446,-2.3006,-2.3015,-2.2486,-2.2252,-2.3035,-2.2708,-2.231,-2.2296,-2.231,-2.2307,-2.2307,-2.2296,-2.2106,-2.1658,-2.1582,-2.1228,-2.0399,-2.0297,-2.0124,-1.9729,-1.9708,-1.9708,-1.9708,-1.9708,-1.9708,-1.9708,-1.9708,-1.9708,-1.9708,-1.9708,-1.9708,-1.9708,-1.9708,-1.9424,-1.893,-1.893,-1.8631,0.0,0.0,-2.8247,-2.7011,0.0,0.0,0.0,0.0,0.0,0.0,0.0,0.0,0.0,0.0,0.0,0.0,0.0,0.0,0.0,0.0,0.0,0.0,0.0,0.0,0.0,0.0,0.0,0.0,-2.2337,0.0,0.0,-2.3024,-2.3075,-2.2539,-2.1924,-2.1468,-2.1206,-2.0402,-2.0108,-2.0305,-2.0305,-2.0358,-2.0414,-1.986,-1.9473,-1.9256,-1.8984,-1.8535,-1.8047,-1.8633,-1.9043,-1.9336,-1.9629,-2.0098,-2.0605,-2.0605,-2.0605,-2.0605,-2.0605,-2.0512,-2.0406,-2.0368,-2.0511,-2.0808,-2.135,-2.1716,-2.2017,-2.2388,-2.2393,-2.2246,-2.2051,-2.2095,-2.2143,-2.1867,-2.1565,-2.1648,-2.2767,-2.2401,-2.2123,-2.304,-2.3038,-2.276,-2.2363,-2.2296,-2.2296,-2.2296,-2.2296,-2.2237,-2.2092,-2.1794,-2.1384,-2.0813,-2.0483,-2.0141,-1.9729,-1.9708,-1.9708,-1.9708,-1.9708,-1.9708,-1.9708,-1.9708,-1.9708,-1.9708,-1.9708,-1.9708,-1.9708,-1.935,-1.908,-1.8874,-1.8185,-1.7747,-2.8912,-2.824,0.0,-2.6481,-2.5778,0.0,-2.5044,0.0,0.0,0.0,0.0,0.0,0.0,0.0,0.0,0.0,0.0,0.0,0.0,-2.2519,0.0,0.0,0.0,0.0,0.0,0.0,-2.2729,-2.2893,-2.3177,0.0,0.0,0.0,-2.3814,-2.3352,-2.2813,-2.2277,-2.1727,-2.0952,-2.0489,-2.0291,-2.0319,-2.0385,-2.0469,-1.9608,-1.9074,-1.8809,-1.8242,-1.7656,-1.7129,-1.7734,-1.8144,-1.8437,-1.9062,-1.9648,-2.0176,-2.0488,-2.0605,-2.0605,-2.0605,-2.0537,-2.0432,-2.0414,-2.0358,-2.0392,-2.0916,-2.1077,-2.1156,-2.1603,-2.16,-2.1431,-2.1262,-2.1335,-2.1353,-2.1003,-2.0703,-2.0878,-2.2281,-2.2063,-2.1979,-2.3144,-2.3177,-2.2903,-2.2517,-2.236,-2.2296,-2.2296,-2.2296,-2.2296,-2.2296,-2.2032,-2.169,-2.126,-2.0813,-2.0313,-1.9747,-1.9708,-1.9708,-1.9708,-1.9708,-1.9708,-1.9708,-1.9708,-1.9603,-1.9424,-1.9424,-1.9332,-1.9132,-1.8779,-1.8516,-1.8322,-1.7626,-1.7188]},{"header":{"parameterUnit":"m.s-1","parameterCategory":1,"la1":30.6,"la2":29.2853,"lo1":-89.7004,"lo2":-87.6739,"dy":0.0162,"dx":0.0183,"nx":112,"ny":82,"refTime":"2025-04-13T18:00:00:Z","depth":0,"parameterNumber":3,"parameterNumberName":"V-component_of_WINDS"},"data":[0.0,0.0,0.0,0.0,0.0,0.0,0.0,0.0,0.0,0.0,0.0,0.0,0.0,0.0,0.0,0.0,0.0,0.0,0.0,0.0,0.0,0.0,0.0,0.0,0.0,0.0,0.0,0.0,0.0,0.0,0.0,0.0,0.0,0.0,0.0,0.0,0.0,0.0,0.0,0.0,0.0,0.0,0.0,0.0,0.0,0.0,0.0,0.0,0.0,0.0,0.0,0.0,0.0,0.0,0.0,0.0,0.0,0.0,0.0,0.0,0.0,0.0,0.0,0.0,0.0,0.0,0.0,0.0,0.0,0.0,0.0,0.0,0.0,0.0,0.0,0.0,0.0,0.0,0.0,0.0,0.0,0.0,0.0,0.0,0.0,0.0,0.0,0.0,0.0,0.0,0.3109,0.2652,-0.0955,-0.413,-0.6031,-0.8248,-0.9954,-1.0912,0.0,0.0,0.0,0.0,0.0,0.0,0.0,0.0,0.0,0.0,0.0,0.0,0.0,0.0,0.0,0.0,0.0,0.0,0.0,0.0,0.0,0.0,0.0,0.0,0.0,0.0,0.0,0.0,0.0,0.0,0.0,0.0,0.0,0.0,0.0,0.0,0.0,0.0,0.0,0.0,0.0,0.0,0.0,0.0,0.0,0.0,0.0,0.0,0.0,0.0,0.0,0.0,0.0,0.0,0.0,0.0,0.0,0.0,0.0,0.0,0.0,0.0,0.0,0.0,0.0,0.0,0.0,0.0,0.0,0.0,0.0,0.0,0.0,0.0,0.0,0.0,0.0,0.0,0.0,0.0,0.0,0.0,0.0,0.0,0.0,0.0,0.0,0.0,0.0,0.0,0.0,0.0,0.0,0.0,0.0,0.0,0.0,0.0,0.0,0.0,0.0,0.0,0.0,0.0,0.2048,-0.0709,-0.2533,-0.4051,-0.5208,-0.7999,-0.9872,-1.0378,0.0,0.0,0.0,0.0,0.0,0.0,0.0,0.0,0.0,0.0,0.0,0.0,0.0,0.0,0.0,0.0,0.0,0.0,0.0,0.0,0.0,0.0,0.0,0.0,0.0,0.0,0.0,0.0,0.0,0.0,0.0,0.0,0.0,0.0,0.0,0.0,0.0,0.0,0.0,0.0,0.0,0.0,0.0,0.0,0.0,0.0,0.0,0.0,0.0,0.0,0.0,0.0,0.0,0.0,0.0,0.0,0.0,0.0,0.0,0.0,0.0,0.0,0.0,0.0,0.0,0.0,0.0,0.0,0.0,0.0,0.0,0.0,0.0,0.0,0.0,0.0,0.0,0.0,0.0,0.0,0.0,0.0,0.0,0.0,0.0,0.0,0.0,0.0,0.0,0.0,0.0,0.0,0.0,0.0,0.0,0.0,0.0,0.0,0.0,0.0,0.0,0.0,0.0,0.4477,0.2202,-0.0536,-0.1924,-0.3056,-0.4074,-0.6489,-0.8409,-0.9583,-1.1693,0.0,0.0,0.0,0.0,0.0,0.0,0.0,0.0,0.0,0.0,0.0,0.0,0.0,0.0,0.0,0.0,0.0,0.0,0.0,0.0,0.0,0.0,0.0,0.0,0.0,0.0,0.0,0.0,0.0,0.0,0.0,0.0,0.0,0.0,0.0,0.0,0.0,0.0,0.0,0.0,0.0,0.0,0.0,0.0,0.0,0.0,0.0,0.0,0.0,0.0,0.0,0.0,0.0,0.0,0.0,0.0,0.0,0.0,0.0,0.0,0.0,0.0,0.0,0.0,0.0,0.0,0.0,0.0,0.0,0.0,0.0,0.0,0.0,0.0,0.0,0.0,0.0,0.0,0.0,0.0,0.0,0.0,0.0,0.0,0.0,0.0,0.0,0.0,0.0,0.0,0.0,0.0,0.0,0.0,0.0,0.0,0.0,0.0,0.0,0.0,0.0,0.0,0.3381,0.2548,0.0269,-0.1076,-0.2133,-0.2972,-0.5118,-0.6991,-0.8362,-1.0083,0.0,0.0,0.0,0.0,0.0,0.0,0.0,0.0,0.0,0.0,0.0,0.0,0.0,0.0,0.0,0.0,0.0,0.0,0.0,0.0,0.0,0.0,0.0,0.0,0.0,0.0,0.0,0.0,0.0,0.0,0.0,0.0,0.0,0.0,0.0,0.0,0.0,0.0,0.0,0.0,0.0,0.0,0.0,0.0,0.0,0.0,0.0,0.0,0.0,0.0,0.0,0.0,0.0,0.0,0.0,0.0,0.0,0.0,0.0,0.0,0.0,0.0,0.0,0.0,0.0,0.0,0.0,0.0,0.0,0.0,0.0,0.0,0.0,0.0,0.0,0.0,0.0,0.0,0.0,0.0,0.0,0.0,0.0,0.0,0.0,0.0,0.0,0.0,0.0,0.0,0.0,0.0,0.0,0.0,0.0,0.0,0.0,0.0,0.0,0.0,0.0,0.0,0.3391,0.2676,0.0269,-0.1076,-0.1834,-0.192,-0.4652,-0.6466,-0.6569,-0.8394,0.0,0.0,0.0,0.0,0.0,0.0,0.0,0.0,0.0,0.0,0.0,0.0,0.0,0.0,0.0,0.0,0.0,0.0,0.0,0.0,0.0,0.0,0.0,0.0,0.0,0.0,0.0,0.0,0.0,0.0,0.0,0.0,0.0,0.0,0.0,0.0,0.0,0.0,0.0,0.0,0.0,0.0,0.0,0.0,0.0,0.0,0.0,0.0,0.0,0.0,0.0,0.0,0.0,0.0,0.0,0.0,0.0,0.0,0.0,0.0,0.0,0.0,0.0,0.0,0.0,0.0,0.0,0.0,0.0,0.0,0.0,0.0,0.0,0.0,0.0,0.0,0.0,0.0,0.0,0.0,0.0,0.0,0.0,0.0,0.0,0.0,0.0,0.0,0.0,0.0,0.0,0.0,0.0,0.0,0.0,0.0,0.0,0.0,0.0,0.0,0.0,0.0,0.3269,0.2556,0.0,-0.0404,-0.0981,-0.1757,-0.2807,-0.424,-0.6146,0.0,0.0,0.0,0.0,0.0,0.0,0.0,0.0,0.0,0.0,0.0,0.0,0.0,0.0,0.0,0.0,0.0,0.0,0.0,0.0,0.0,0.0,0.0,0.0,0.0,0.0,0.0,0.0,0.0,0.0,0.0,0.0,0.0,0.0,0.0,0.0,0.0,0.0,0.0,0.0,0.0,0.0,0.0,0.0,0.0,0.0,0.0,0.0,0.0,0.0,0.0,0.0,0.0,0.0,0.0,0.0,0.0,0.0,0.0,0.0,0.0,0.0,0.0,0.0,0.0,0.0,0.0,0.0,0.0,0.0,0.0,0.0,0.0,0.0,0.0,0.0,0.0,0.0,0.0,0.0,0.0,0.0,0.0,0.0,0.0,0.0,0.0,0.0,0.0,0.0,0.0,0.0,0.0,0.0,0.0,0.0,0.0,0.0,0.0,0.0,0.0,0.0,0.417,0.3523,0.2677,0.0,0.0222,-0.0353,-0.1162,-0.1472,-0.2484,-0.4598,0.0,0.0,0.0,0.0,0.0,0.0,0.0,0.0,0.0,0.0,0.0,0.0,0.0,0.0,0.0,0.0,0.0,0.0,0.0,0.0,0.0,0.0,0.0,0.0,0.0,0.0,0.0,0.0,0.0,0.0,0.0,0.0,0.0,0.0,0.0,0.0,0.0,0.0,0.0,0.0,0.0,0.0,0.0,0.0,0.0,0.0,0.0,0.0,0.0,0.0,0.0,0.0,0.0,0.0,0.0,0.0,0.0,0.0,0.0,0.0,0.0,0.0,0.0,0.0,0.0,0.0,0.0,0.0,0.0,0.0,0.0,0.0,0.0,0.0,0.0,0.0,0.0,0.0,0.0,0.0,0.0,0.0,0.0,0.0,0.0,0.0,0.0,0.0,0.0,0.0,0.0,0.0,0.0,0.0,0.0,0.0,0.0,0.0,0.0,0.0,0.0,0.0,0.5294,0.4128,0.3142,0.1953,0.0738,0.0043,0.0,-0.0947,-0.1567,0.0,0.0,0.0,0.0,0.0,0.0,0.0,0.0,0.0,0.0,0.0,0.0,0.0,0.0,0.0,0.0,0.0,0.0,0.0,0.0,0.0,0.0,0.0,0.0,0.0,0.0,0.0,0.0,0.0,0.0,0.0,0.0,0.0,0.0,0.0,0.0,0.0,0.0,0.0,0.0,0.0,0.0,0.0,0.0,0.0,0.0,0.0,0.0,0.0,0.0,0.0,0.0,0.0,0.0,0.0,0.0,0.0,0.0,0.0,0.0,0.0,0.0,0.0,0.0,0.0,0.0,0.0,0.0,0.0,0.0,0.0,0.0,0.0,0.0,0.0,0.0,0.0,0.0,0.0,0.0,0.0,0.0,0.0,0.0,0.0,0.0,0.0,0.0,0.0,0.0,0.0,0.0,0.0,0.0,0.0,0.0,0.0,0.0,0.0,0.0,0.0,0.0,0.0,0.5015,0.4568,0.4045,0.2835,0.2413,0.189,0.1192,0.0843,0.0078,-0.1305,0.0,0.0,0.0,0.0,0.0,0.0,0.0,0.0,0.0,0.0,0.0,0.0,0.0,0.0,0.0,0.0,0.0,0.0,0.0,0.0,0.0,0.0,0.0,0.0,0.0,0.0,0.0,0.0,0.0,0.0,0.0,0.0,0.0,0.0,0.0,0.0,0.0,0.0,0.0,0.0,0.0,0.0,0.0,0.0,0.0,0.0,0.0,0.0,0.0,0.0,0.0,0.0,0.0,0.0,0.0,0.0,0.0,0.0,0.0,0.0,0.0,0.0,0.0,0.0,0.0,0.0,0.0,0.0,0.0,0.0,0.0,0.0,0.0,0.0,0.0,0.0,0.0,0.0,0.0,0.0,0.0,0.0,0.0,0.0,0.0,0.0,0.0,0.0,0.0,0.0,0.0,0.0,0.0,0.0,0.0,0.0,0.0,0.0,0.0,0.0,0.0,0.0,0.5497,0.5049,0.4633,0.3886,0.3388,0.2867,0.2243,0.2152,0.1631,0.0437,0.0,0.0,0.0,0.0,0.0,0.0,0.0,0.0,0.0,0.0,0.0,0.0,0.0,0.0,0.0,0.0,0.0,0.0,0.0,0.0,0.0,0.0,0.0,0.0,0.0,0.0,0.0,0.0,0.0,0.0,0.0,0.0,0.0,0.0,0.0,0.0,0.0,0.0,0.0,0.0,0.0,0.0,0.0,0.0,0.0,0.0,0.0,0.0,0.0,0.0,0.0,0.0,0.0,0.0,0.0,0.0,0.0,0.0,0.0,0.0,0.0,0.0,0.0,0.0,0.0,0.0,0.0,0.0,0.0,0.0,0.0,0.0,0.0,0.0,0.0,0.0,0.0,0.0,0.0,0.0,0.0,0.0,0.0,0.0,0.0,0.0,0.0,0.0,0.0,0.0,0.0,0.0,0.0,0.0,0.0,0.0,0.0,0.0,0.0,0.0,0.0,0.0,0.635,0.5545,0.5041,0.5015,0.4034,0.3358,0.3246,0.3135,0.3021,0.2909,0.0,0.0,0.0,0.0,0.0,0.0,0.0,0.0,0.0,0.0,0.0,0.0,0.0,0.0,0.0,0.0,0.0,0.0,0.0,0.0,0.0,0.0,0.0,0.0,0.0,0.0,0.0,0.0,0.0,0.0,0.0,0.0,0.0,0.0,0.0,0.0,0.0,0.0,0.0,0.0,0.0,0.0,0.0,0.0,0.0,0.0,0.0,0.0,0.0,0.0,0.0,0.0,0.0,0.0,0.0,0.0,0.0,0.0,0.0,0.0,1.0227,0.0,0.0,0.0,0.0,0.0,0.0,0.0,0.0,0.0,0.0,0.0,0.0,0.0,0.0,0.0,0.0,0.0,0.0,0.0,0.0,0.0,0.0,0.0,0.0,0.0,0.0,0.0,0.0,0.0,0.0,0.0,0.0,0.0,0.0,0.0,0.0,0.0,0.0,0.0,0.0,0.0,0.611,0.5972,0.5986,0.5996,0.5752,0.5266,0.4414,0.4318,0.3913,0.2945,0.2499,0.0,0.0,0.0,0.0,0.0,0.0,0.0,0.0,0.0,0.0,0.0,0.0,0.0,0.0,0.0,0.0,0.0,0.0,0.0,0.0,0.0,0.0,0.0,0.0,0.0,0.0,0.0,0.0,0.0,0.0,0.0,0.0,0.0,0.0,0.0,0.0,0.0,0.0,0.0,0.0,0.0,0.0,0.0,0.0,0.0,0.0,0.0,0.0,0.0,0.0,0.0,0.0,0.0,0.0,0.0,0.0,0.0,0.0,0.0,0.0,1.1175,0.0,0.0,0.0,0.0,0.0,0.0,0.0,0.0,0.0,0.0,0.0,0.0,0.0,0.0,0.0,0.0,0.0,0.0,0.0,0.0,0.0,0.0,0.0,0.0,0.0,0.0,0.0,0.0,0.0,0.0,0.0,0.0,0.0,0.0,0.0,0.0,0.0,0.0,0.0,0.0,0.6619,0.6776,0.6834,0.6338,0.63,0.6064,0.5512,0.5329,0.4964,0.4318,0.3765,0.0,0.0,0.0,0.0,0.0,0.0,0.0,0.0,0.0,0.0,0.0,0.0,0.0,0.0,0.0,0.0,0.0,0.0,0.0,0.0,0.0,0.0,0.0,0.0,0.0,0.0,0.0,0.0,0.0,0.0,0.0,0.0,0.0,0.0,0.0,0.0,0.0,0.0,0.0,0.0,0.0,0.0,0.0,0.0,0.0,0.0,0.0,0.0,0.0,0.0,0.0,0.0,0.0,1.5784,1.5705,1.5471,1.5471,1.5471,1.5378,1.3279,1.2347,1.22,1.1791,0.0,0.0,0.0,0.0,0.0,0.0,0.0,0.0,0.0,0.0,0.0,0.0,0.0,0.0,0.0,0.0,0.0,0.0,0.0,0.0,0.0,0.0,0.0,0.0,1.2184,1.1867,0.0,0.0,0.0,0.0,0.0,0.0,0.0,0.0,0.0,0.0,0.0,0.0,0.7504,0.762,0.748,0.6644,0.6412,0.6289,0.6262,0.5986,0.582,0.5769,0.484,0.4188,0.0,0.0,0.0,0.0,0.0,0.0,0.0,0.0,0.0,0.0,0.0,0.0,0.0,0.0,0.0,0.0,0.0,0.0,0.0,0.0,0.0,0.0,0.0,0.0,0.0,0.0,0.0,0.0,0.0,0.0,0.0,0.0,1.7645,1.7458,0.0,0.0,0.0,0.0,0.0,0.0,0.0,0.0,0.0,0.0,0.0,0.0,0.0,1.5538,1.5778,1.5784,1.5784,1.5784,1.5784,1.5758,1.5772,1.5772,1.5772,1.5724,1.5386,0.0,1.3598,1.3142,0.0,0.0,0.0,0.0,0.0,0.0,0.0,0.0,0.0,0.0,0.0,0.0,0.0,0.0,0.0,0.0,0.0,0.0,0.0,0.0,0.0,0.0,1.3913,1.3449,1.3369,1.3211,0.0,1.0697,0.9261,0.9212,0.8778,0.0,0.0,0.0,0.0,0.0,0.0,0.0,0.8519,0.8065,0.7744,0.7629,0.6834,0.6245,0.6071,0.5986,0.5891,0.5633,0.5493,0.4956,0.403,0.3774,0.0,0.0,0.0,0.0,0.0,0.0,0.0,0.0,0.0,0.0,0.0,0.0,0.0,0.0,0.0,0.0,0.0,0.0,0.0,0.0,0.0,0.0,0.0,0.0,0.0,0.0,0.0,0.0,0.0,2.0395,1.9222,1.787,1.7225,1.6574,0.0,0.0,0.0,0.0,0.0,0.0,0.0,0.0,0.0,1.5578,1.5464,1.5538,1.5778,1.5784,1.5784,1.5784,1.5784,1.5784,1.5784,1.5784,1.5738,1.5591,1.5711,1.5303,1.4515,1.4281,1.3857,1.3345,0.0,0.0,0.0,0.0,1.3646,1.4026,1.3419,1.3207,0.0,1.1711,0.0,0.0,0.0,0.0,0.0,0.0,0.0,0.0,0.0,0.0,1.4015,1.3673,1.36,1.3487,1.31,1.2139,1.1119,0.0,0.9563,0.8918,0.8473,0.0,0.0,0.0,0.0,1.0461,0.9723,0.9532,0.9286,0.8694,0.7744,0.7107,0.703,0.677,0.6561,0.6452,0.6771,0.6743,0.6252,0.5282,0.4511,0.0,0.0,0.0,0.0,0.0,0.0,0.0,0.0,0.0,0.0,0.0,0.0,0.0,0.0,0.0,0.0,0.0,0.0,0.0,0.0,0.0,0.0,0.0,0.0,0.0,0.0,0.0,0.0,2.1471,2.0531,1.8411,1.787,1.7178,0.0,0.0,0.0,0.0,0.0,0.0,1.5518,1.5504,1.5504,1.5504,1.5504,1.5611,1.5778,1.5784,1.5784,1.5784,1.5784,1.5784,1.5784,1.5784,1.5671,1.5404,1.5625,1.5431,1.5008,1.5008,1.4961,1.4796,1.4289,1.4088,1.4088,1.4088,1.4088,1.4088,1.4088,1.4088,1.3909,1.2848,0.0,1.1921,1.168,0.0,0.0,0.0,0.0,1.3527,1.368,1.3868,1.3915,1.3653,1.3547,1.3413,1.3153,1.2951,1.2499,0.0,1.0564,0.9891,0.9391,0.0,0.0,0.0,0.0,1.122,1.0716,1.0676,1.0393,0.9659,0.8684,0.8025,0.8014,0.7627,0.7373,0.732,0.7745,0.7994,0.7994,0.6702,0.5966,0.5919,0.0,0.0,0.0,0.0,0.0,0.0,0.0,0.0,0.0,0.0,0.0,0.0,0.0,0.0,0.0,0.0,0.0,0.0,0.0,0.0,0.0,0.0,0.0,0.0,0.0,0.0,0.0,0.0,0.0,1.9534,1.8411,0.0,0.0,0.0,0.0,1.5784,1.5784,1.5771,1.5758,1.5758,1.5758,1.5758,1.5758,1.5764,1.5784,1.5784,1.5784,1.5784,1.5784,1.5784,1.5784,1.5784,1.5671,1.5398,1.5411,1.5244,1.5008,1.5008,1.4796,1.4516,1.4208,1.4088,1.4088,1.4088,1.4088,1.4088,1.4088,1.4088,1.4041,1.3658,1.3167,1.2727,1.2714,1.2545,0.0,0.0,1.3213,1.336,1.3921,1.3868,1.362,1.3606,1.3393,1.3146,1.2878,1.2797,1.2777,0.0,1.241,1.2051,1.177,0.0,1.1695,1.1374,1.1348,1.1395,1.134,1.0804,1.0389,1.0353,0.94,0.8696,0.8568,0.8309,0.8091,0.7975,0.7972,0.7994,0.7994,0.7914,0.7777,0.7587,0.75,0.0,0.0,0.0,0.0,0.0,0.0,0.0,0.0,0.0,0.0,0.0,0.0,0.0,0.0,0.0,0.0,0.0,0.0,0.0,0.0,0.0,0.0,0.0,0.0,0.0,0.0,0.0,0.0,2.08,2.026,0.0,1.7217,1.7037,1.6669,1.5872,1.5784,1.5784,1.5784,1.5784,1.5784,1.5784,1.5784,1.5784,1.5784,1.5784,1.5784,1.5784,1.5784,1.5784,1.5771,1.5631,1.5391,1.5117,1.5117,1.4888,1.4416,1.4603,1.4616,1.4489,1.4202,1.4088,1.4088,1.4088,1.4088,1.4062,1.3868,1.376,1.3721,1.3227,1.2958,1.275,1.2556,1.2556,1.271,1.3093,1.3213,1.33,1.3701,1.354,1.3313,1.3113,1.3025,1.2871,1.2563,1.2496,1.2496,1.2496,1.2378,1.2204,1.1953,1.171,1.155,1.1409,1.1269,1.1209,1.1369,1.1199,1.1048,1.1048,1.012,0.9476,0.9434,0.9208,0.9031,0.8975,0.9415,0.9678,0.9678,0.9134,0.88,0.8742,0.8038,0.7532,0.0,0.0,0.0,0.0,0.0,0.0,0.0,0.0,0.0,0.0,0.0,0.0,0.0,0.0,0.0,0.0,0.0,0.0,0.0,0.0,0.0,0.0,0.0,0.0,0.0,0.0,2.2633,2.1436,2.1293,2.035,1.7909,1.7692,1.7178,1.592,1.5784,1.5784,1.5784,1.5784,1.5784,1.5784,1.5784,1.5784,1.5784,1.5784,1.5784,1.5784,1.5784,1.5784,1.5771,1.5531,1.5237,1.5001,1.4901,1.4536,1.4102,1.4295,1.4376,1.4355,1.4162,1.4088,1.4088,1.4088,1.4088,1.4041,1.3706,1.3467,1.3273,1.2911,1.2717,1.2596,1.2365,1.2476,1.2697,1.2966,1.3053,1.312,1.338,1.328,1.3006,1.2837,1.2703,1.2583,1.2345,1.2305,1.2305,1.2305,1.2305,1.2204,1.1953,1.171,1.1543,1.1409,1.1182,1.1062,1.1256,1.1283,1.1283,1.1283,1.0687,1.0272,1.0272,1.0028,0.9876,0.9876,1.0335,1.0593,1.0593,0.9951,0.9586,0.9586,0.904,0.8723,0.864,0.0,0.0,0.0,0.0,0.0,0.0,0.0,0.0,0.0,0.0,0.0,0.0,0.0,0.0,0.0,0.0,0.0,0.0,0.0,0.0,0.0,0.0,0.0,2.3091,2.3091,2.2677,2.1525,2.1346,2.0395,1.8002,1.7777,1.7225,1.592,1.5784,1.5784,1.5784,1.5784,1.5784,1.5784,1.5784,1.5784,1.5784,1.5784,1.5784,1.5784,1.5784,1.5778,1.5758,1.5518,1.5224,1.4981,1.4636,1.4349,1.4088,1.4088,1.4088,1.4088,1.4088,1.4088,1.4088,1.4088,1.4075,1.4015,1.368,1.3227,1.277,1.277,1.2576,1.2305,1.2305,1.2305,1.2365,1.2697,1.2777,1.2844,1.3113,1.3005,1.277,1.277,1.2543,1.2285,1.2285,1.2278,1.2278,1.2278,1.2278,1.2191,1.1953,1.1893,1.1744,1.1456,1.1169,0.0,1.0982,1.0982,1.0982,1.0982,1.0982,1.0982,1.0982,1.0754,1.0593,1.0593,1.0593,1.0593,1.0593,1.0311,1.0157,1.0188,1.069,1.1073,1.1331,0.0,0.0,0.0,0.0,0.0,0.0,0.0,0.0,0.0,0.0,0.0,0.0,0.0,0.0,0.0,0.0,0.0,0.0,0.0,0.0,0.0,2.3091,2.3091,2.3091,2.3091,2.3003,2.2633,2.2633,2.1676,1.9231,1.9001,1.8126,1.5967,1.5784,1.5784,1.5784,1.5784,1.5784,1.5784,1.5784,1.5784,1.5784,1.5784,1.5784,1.5784,1.5784,1.5718,1.5504,1.5217,1.4923,1.4629,1.4335,1.4162,1.4088,1.4088,1.4088,1.4088,1.4088,1.4088,1.4088,1.4088,1.3814,1.3407,1.3139,1.2739,1.2425,1.2425,1.2371,1.2305,1.2305,1.2305,1.2365,1.2697,1.263,1.2492,1.2831,1.269,1.2425,1.2425,1.2204,1.2027,1.2027,1.1817,1.1663,1.1663,1.1663,1.171,1.1879,1.1551,1.1202,1.1122,1.0868,0.0,1.0713,1.0713,1.0713,1.0713,1.0713,1.0713,1.0713,1.064,1.0593,1.0593,1.0593,1.0593,1.0593,1.1085,1.1614,1.2195,1.2153,1.217,0.0,0.0,0.0,0.0,0.0,0.0,0.0,0.0,0.0,0.0,0.0,0.0,0.0,0.0,0.0,0.0,0.0,0.0,0.0,0.0,0.0,0.0,2.3091,2.3091,2.3091,2.3091,2.3091,2.3091,2.2633,2.1578,1.9679,1.9039,1.7948,1.5967,1.5784,1.5784,1.5784,1.5784,1.5784,1.5784,1.5784,1.5784,1.5784,1.5784,1.5784,1.5784,1.5705,1.5558,1.5384,1.497,1.4683,0.0,1.4215,1.4088,1.4088,1.4088,1.4088,0.0,0.0,0.0,0.0,0.0,1.3527,1.3025,1.2851,1.2589,1.2305,1.2305,1.2305,1.2305,1.2305,1.2305,1.2338,1.2549,1.2438,1.2345,1.2556,1.2432,1.2271,1.2151,1.2027,1.1873,1.171,1.155,1.1389,1.1389,1.1295,0.0,1.1504,1.1216,1.0955,1.0861,1.07,1.0713,1.1045,1.1108,1.1226,1.1569,1.1608,1.1608,1.1608,1.1608,0.0,0.0,0.0,1.1542,1.144,1.1882,0.0,0.0,0.0,0.0,0.0,0.0,0.0,0.0,1.2888,1.2729,0.0,0.0,0.0,0.0,0.0,0.0,0.0,0.0,0.0,0.0,0.0,0.0,0.0,0.0,0.0,0.0,2.3091,2.3091,2.3091,2.3091,2.3091,2.3091,2.2031,2.0845,1.9625,1.8411,1.7178,1.592,1.5784,1.5784,1.5784,0.0,0.0,0.0,0.0,1.5784,1.5784,1.5784,1.5784,1.5778,1.5531,1.5378,1.5331,1.477,1.4502,1.4456,1.4202,1.4088,1.4088,1.4088,1.4068,1.4035,1.4035,1.4035,1.4001,1.362,1.3206,1.2777,1.275,0.0,0.0,1.2305,1.2305,1.2305,1.2305,1.2305,1.2305,1.2305,1.2305,1.2305,1.2305,1.2278,1.2184,1.1966,1.1852,1.1732,1.1436,1.1315,1.1295,1.1295,1.1122,1.0942,1.0942,1.0942,1.0855,1.0633,1.0593,1.0895,1.171,1.1803,1.2112,1.2917,0.0,0.0,1.3009,1.3009,1.3009,1.3009,1.3009,1.2929,1.2781,1.2772,1.2805,1.2859,1.3586,1.4084,1.4269,1.5031,1.541,1.5362,1.3378,1.3019,0.0,0.0,0.0,0.0,0.0,0.0,0.0,0.0,0.0,0.0,0.0,0.0,0.0,0.0,0.0,2.3091,2.3091,2.3091,2.3091,2.3091,2.3091,2.3091,2.2031,2.0845,1.9625,1.8411,1.7178,1.592,1.5784,1.5784,1.5784,1.5784,1.5784,1.5784,1.5784,1.5784,1.5784,1.5784,1.5784,1.5778,0.0,0.0,1.5082,1.4683,1.4396,1.4168,1.4115,1.4088,1.4088,1.4088,1.3948,1.3686,1.3686,1.3686,1.362,1.3159,1.2884,1.275,1.2472,1.2351,1.2305,1.2305,1.2305,1.2305,1.2305,1.2305,0.0,1.2305,1.2305,1.2305,1.2305,1.2131,1.1973,1.1919,1.1544,1.1149,1.1089,1.0928,1.076,1.076,1.0713,1.0673,1.0673,1.0673,1.066,1.06,1.0593,1.0895,1.171,1.1803,1.2112,1.2917,1.3009,1.3009,1.3009,1.3009,1.3009,1.3009,1.3009,1.3278,1.3859,1.3889,1.4039,1.4355,1.485,1.4955,1.4705,1.5158,1.541,1.5381,1.4975,1.4888,0.0,0.0,0.0,0.0,0.0,0.0,0.0,0.0,0.0,0.0,0.0,2.4399,2.4008,0.0,2.2906,2.2306,2.2731,2.2906,2.2262,2.2721,2.3091,2.3091,2.1489,2.0169,1.9534,1.7809,1.648,1.5825,1.5784,1.5784,1.5784,1.5784,1.5784,1.5784,1.5784,1.5784,1.5784,1.5784,1.5711,1.5611,1.5317,1.5023,1.473,1.4436,1.4222,1.4082,1.3928,1.3868,1.3854,1.3707,1.3561,1.3373,1.3253,1.3193,1.316,1.2898,1.269,1.2543,1.2351,1.2305,1.2305,1.2305,1.2305,1.2305,1.2305,1.2305,1.2305,1.2305,1.2305,1.2271,1.2124,1.2013,1.1832,1.1538,1.1202,1.0955,1.0841,1.0693,1.0713,1.1108,1.0863,1.0713,1.1139,1.0863,1.0593,1.0593,1.0593,1.1052,1.2235,1.2389,1.287,1.4055,1.4213,1.4213,1.4213,1.4213,1.4123,1.3904,1.3886,1.3979,1.4148,1.4138,1.4241,1.4436,1.464,1.4775,1.4813,1.5,1.5205,1.541,1.541,1.541,0.0,0.0,0.0,0.0,0.0,0.0,0.0,0.0,2.6646,2.653,2.579,2.5041,2.483,2.3887,2.2677,2.1525,2.2129,2.2315,2.1114,2.181,2.2403,2.2403,2.0899,1.9761,1.9542,1.7483,1.6062,1.5825,1.5784,1.5784,1.5784,1.5784,1.5784,1.5784,1.5784,1.5751,1.5698,1.5698,1.5598,1.5311,1.5062,1.475,1.4509,1.4222,1.4088,1.4075,1.3733,1.3573,1.3493,1.324,1.312,1.3086,1.2817,1.2697,1.2697,1.2697,1.2549,1.2305,1.2305,1.2305,1.2305,1.2305,1.2305,1.2305,1.2305,1.2305,1.2291,1.2231,1.2218,1.2151,1.1899,1.1779,1.1618,1.1109,1.0949,1.0842,1.064,1.0713,1.0989,1.1469,1.117,1.0993,1.1567,1.1141,1.0656,1.0506,1.0506,1.1057,1.2592,1.286,1.3532,1.511,1.5361,1.5381,1.5293,1.5293,1.5107,1.4687,1.4658,1.4502,1.4124,1.4104,1.4065,1.3987,1.4065,1.4241,1.4541,1.4735,1.4961,1.5293,1.5371,1.541,2.5466,2.5681,2.6346,2.8243,2.8434,2.8781,0.0,0.0,2.9746,2.9199,2.7618,2.6005,2.4999,2.3887,2.2677,2.1525,2.1426,2.1069,1.9852,1.9815,1.9906,1.9906,2.0621,2.0666,1.9579,1.8272,1.7037,1.5872,1.5784,1.5784,1.5784,1.5784,1.5784,1.5784,1.5784,1.5705,1.5444,1.5444,1.5297,1.5055,1.471,1.4556,1.4509,1.4222,1.4088,1.4075,1.3733,1.3453,1.3233,1.2965,1.2837,1.2804,1.2465,1.2351,1.2351,1.2351,1.2331,1.2305,1.2305,1.2305,1.2305,1.2305,1.2305,1.2305,1.2305,1.2305,1.2245,1.2027,1.1953,1.1886,1.155,1.1283,1.1076,1.1009,1.0827,1.0633,1.06,1.117,1.1469,1.0863,1.1226,1.1552,1.1233,1.1092,1.0836,1.0252,1.0167,1.0624,1.1862,1.2381,1.3238,1.4713,1.5186,1.5264,1.4893,1.4882,1.4668,1.4211,1.4182,1.4163,1.4104,1.4104,1.3929,1.3558,1.3919,1.3948,1.3652,1.4414,1.4805,1.4891,1.5234,1.541,2.8524,2.8952,2.9516,0.0,3.0828,3.1204,3.2343,3.2129,3.1446,3.0652,2.9283,2.7721,2.6077,2.484,2.324,0.0,2.0854,2.0638,1.8726,1.9039,1.9497,1.9497,1.9943,1.9761,1.8549,1.8002,1.7178,1.592,1.5784,1.5784,1.5784,1.5784,1.5784,1.5784,1.5665,1.5518,1.5398,1.5231,1.4997,1.4703,1.4583,1.4429,1.4262,1.4142,1.3901,1.3561,1.3253,1.2953,1.2672,1.2538,1.2522,1.2516,1.2351,1.2305,1.2305,1.2305,1.2305,1.2305,1.2305,1.2305,1.2305,1.2305,1.2305,1.2271,1.2098,1.2087,1.1984,1.1697,1.161,1.1543,1.1249,1.1082,1.0949,1.0814,1.068,1.0546,1.0341,1.0739,1.1238,1.1692,1.1548,1.1646,1.2422,1.1928,1.1293,1.0854,1.0595,1.0805,1.1771,1.2063,1.2755,1.4231,1.4533,1.4572,1.4424,1.4377,1.4202,1.3773,1.3743,1.3662,1.3418,1.3408,1.332,1.3145,1.3311,1.3437,1.3506,1.3867,1.417,1.4387,1.4853,1.5049,3.1005,0.0,0.0,3.28,3.3147,3.3488,3.3659,3.3352,3.2713,3.1779,3.0478,2.8999,2.7267,2.5786,2.3859,2.0944,2.0666,2.0104,1.801,1.8133,1.8488,1.8488,1.881,1.8495,1.7311,1.7505,1.7178,1.592,1.5784,1.5784,1.5784,1.5486,1.5257,1.5227,1.4979,1.4798,1.4682,1.4809,1.4696,1.4402,1.4402,1.4289,1.4082,1.4001,1.3687,1.3193,1.2918,1.2616,1.2305,1.2305,1.2305,1.2305,1.2305,1.2305,1.2305,1.2305,1.2305,1.2305,1.2305,1.2305,1.2305,1.2305,1.2245,1.2144,1.1973,1.1852,1.1683,1.139,1.1309,1.1236,1.0949,1.0875,1.0854,1.064,1.0593,1.0533,1.0287,1.0588,1.1172,1.2008,1.1789,1.1844,1.303,1.2472,1.1766,1.1469,1.1191,1.1224,1.1814,1.2151,1.2779,1.3978,1.4104,1.4065,1.3938,1.3938,1.3753,1.3359,1.334,1.3203,1.2915,1.2905,1.2905,1.2905,1.2905,1.3027,1.334,1.3447,1.3662,1.3948,1.4404,1.4609,0.0,0.0,3.4755,3.5409,3.5545,3.5674,3.6322,3.518,3.3705,3.2749,3.095,2.9193,2.8231,2.6273,2.4383,2.3075,2.1025,1.9131,1.787,1.6662,1.592,1.592,1.699,1.7271,0.0,1.699,1.7178,1.592,1.5784,1.5784,1.5784,1.4609,1.3909,1.3766,1.3549,1.329,1.2877,1.3949,1.4389,1.4102,1.4102,1.4095,1.4075,1.3746,1.3453,1.3193,1.2918,1.2616,1.2305,1.2305,1.2305,1.2305,1.2305,1.2305,1.2305,1.2305,1.2305,1.2305,1.2305,1.2305,1.2305,1.2305,1.2111,1.1913,1.1906,1.167,1.1342,1.1089,1.1009,1.0942,1.068,1.0606,1.06,1.0593,1.0593,1.0586,1.0579,1.1226,1.1644,1.1226,1.1789,1.2372,1.2352,1.2324,1.2164,1.1821,1.1767,1.1776,1.1801,1.278,1.363,1.4038,1.4104,1.3938,1.3555,1.3525,1.335,1.2954,1.2925,1.2915,1.2905,1.2905,1.2905,1.2905,1.2905,1.2915,1.2925,1.3311,1.3516,1.3535,1.3929,1.4124,3.398,0.0,3.5653,3.6793,3.7094,3.6979,3.6675,3.6151,3.5133,3.3038,3.2028,3.0852,2.8536,2.6912,2.5273,2.3335,2.1701,1.9988,1.7963,1.7318,1.6763,1.592,1.6204,0.0,0.0,0.0,0.0,1.592,1.5784,1.5698,1.5551,1.4396,1.366,1.3399,1.2388,1.2176,1.2803,1.2941,1.3382,1.4088,1.4088,1.3981,1.374,1.3487,1.3193,1.2924,1.2579,1.2392,1.2305,1.2305,1.2305,1.2305,1.2305,1.2305,1.2305,1.2305,1.2178,1.2044,1.2231,1.2178,1.2011,1.2011,1.1817,1.1536,1.1349,1.1216,1.1082,1.0821,1.0734,1.0713,1.062,1.0593,1.0593,1.0593,1.0593,1.069,1.0986,1.0852,1.1031,1.2187,1.2014,1.1963,1.2917,1.2859,1.2656,1.2554,1.2104,1.1789,1.1789,1.2565,1.3145,1.3281,1.3301,1.3242,1.3105,1.3096,1.3027,1.2915,1.2905,1.2905,1.2905,1.2905,1.2905,1.2905,1.2905,1.2905,1.2905,1.3052,1.3096,1.3105,1.3782,1.4104,3.4841,3.59,3.6626,3.7293,3.7832,3.7926,3.6859,3.6611,3.5948,3.3593,3.282,3.1897,2.9616,2.7711,2.5994,2.4512,2.2581,2.0621,1.8634,1.7956,1.7225,1.5967,1.5784,1.5784,0.0,0.0,0.0,1.5872,1.5784,1.551,1.4849,1.3648,1.2598,1.1807,1.0885,1.0726,1.1395,1.2023,1.2899,1.4088,1.3981,1.3828,1.3586,1.3227,1.2971,1.277,1.2432,1.2305,1.2305,1.2305,1.2305,1.2291,1.2184,1.2144,1.2138,1.2031,1.187,1.175,1.2044,1.1957,1.171,1.171,1.151,1.1236,1.1049,1.0922,1.0827,1.0646,1.0593,1.0593,1.0593,1.0593,1.0593,1.0593,1.0593,1.0725,1.1144,1.0809,1.0924,1.2516,1.2183,1.1992,1.3099,1.3057,1.2905,1.2905,1.251,1.2187,1.2187,1.2618,1.2905,1.2905,1.2905,1.2905,1.2905,1.2905,1.2905,1.2905,1.2905,1.2905,1.2905,1.2905,1.2905,1.2905,1.2905,1.2905,1.2905,1.2905,1.2905,1.2915,1.3437,1.3656,3.4697,3.6265,3.7686,3.7032,3.7828,3.8439,3.7034,3.6625,3.6043,3.4336,3.3276,3.2393,0.0,0.0,2.6637,2.6524,2.3677,2.1016,1.9761,1.8542,1.7311,0.0,0.0,0.0,0.0,0.0,0.0,1.5758,0.0,1.51,1.3742,1.2339,1.0869,0.9341,0.9099,0.897,0.8894,1.1155,1.2832,1.3971,1.372,1.3573,1.354,1.3045,1.2777,1.2744,1.2412,1.2278,1.2278,1.2265,1.2258,1.2231,1.1957,1.1879,1.1852,1.153,1.1382,1.1443,1.1724,1.1643,1.1369,1.1369,1.1209,1.0969,1.0969,1.0814,1.0593,1.0593,1.0593,1.0593,1.0593,1.0593,1.0593,1.0593,1.0593,1.0687,1.1084,1.1115,1.1324,1.2192,1.2332,1.2439,1.2827,1.2905,1.2905,1.2905,1.2905,1.2905,1.2905,1.2905,1.2905,1.2905,1.2905,1.2905,1.2905,1.2905,1.2905,1.2905,1.2905,1.2905,1.2905,1.2905,1.2905,1.2905,1.2905,1.2905,1.2905,1.2905,1.2905,1.2905,1.2925,1.2935,3.579,3.6662,3.7185,3.7533,3.7494,3.7219,3.6809,3.6248,3.5492,3.4249,3.3808,3.3136,0.0,0.0,0.0,2.6748,2.502,0.0,2.115,1.9807,0.0,1.7358,0.0,1.5784,1.5784,1.5631,0.0,0.0,1.4699,1.3963,1.3375,1.1161,0.9646,0.901,0.8078,0.8011,0.889,1.0953,1.2171,1.2468,1.3043,1.32,1.3005,1.2851,1.2663,1.2398,1.2147,1.202,1.1964,1.1744,1.1615,1.1608,1.1535,1.1543,1.153,1.1422,1.1255,1.1116,1.1189,1.1169,1.1102,1.1102,1.0909,1.0707,1.0707,1.0646,1.0593,1.0593,1.0593,1.0593,1.0593,1.0593,1.0593,1.0593,1.0593,1.0874,1.1875,1.1412,1.1274,1.2885,1.2941,1.2776,1.2876,1.2905,1.2905,1.2905,1.2905,1.2905,1.2905,1.2905,1.2905,1.2905,1.2905,1.2905,1.2905,1.2905,1.2905,1.2905,1.2905,1.2905,1.2905,1.2905,1.2905,1.2905,1.2905,1.2905,1.2905,1.2905,1.2905,1.2915,1.3203,1.335,3.5937,3.6518,3.6743,3.6511,3.6356,3.6027,3.4986,3.4406,3.3902,3.3336,3.3106,0.0,3.1792,3.0461,2.8862,0.0,0.0,0.0,2.164,2.026,1.9039,0.0,1.6455,0.0,1.5638,1.5378,1.5015,0.0,1.3851,1.3135,1.2327,1.0386,0.8946,0.8153,0.7445,0.7632,0.8811,1.0385,1.1398,1.1822,1.262,1.2951,1.2784,1.265,1.2429,1.2104,0.0,1.1832,1.1663,1.1496,1.1389,1.1375,1.1283,1.1236,1.1223,1.1096,1.0942,1.0834,1.0834,1.0834,1.0834,1.0834,1.0727,1.0593,1.0593,1.0593,1.0593,1.0593,1.0593,1.0593,1.0593,1.0593,1.0593,1.0593,1.0705,1.1056,1.1895,1.174,1.1762,1.2998,1.3037,1.2905,1.2905,1.2905,1.2905,1.2905,1.2905,1.2905,1.2905,1.2905,1.2905,1.2905,1.2905,1.2905,1.2905,1.2905,1.2905,1.2905,1.2905,1.2905,1.2905,1.2905,1.2905,1.2905,1.2905,1.2905,1.2905,1.2905,1.2905,1.2915,1.3125,1.3232,3.5447,3.5892,3.6028,3.4624,3.4565,3.4321,3.2362,3.1766,3.1664,3.1797,0.0,3.1692,3.174,3.0575,2.9023,2.7255,0.0,2.4141,2.1843,2.0298,1.8975,1.7756,1.632,1.5384,1.5344,1.5122,1.4443,1.3248,1.2993,1.2254,1.0954,0.9669,0.8418,0.7115,0.7068,0.7512,0.8446,0.9419,1.0346,1.1198,1.2125,1.2527,1.252,1.2381,1.2144,1.1899,1.1866,0.0,1.1329,1.1295,1.1275,1.1283,1.1035,1.0935,1.0909,1.0687,1.0593,1.0593,1.0593,1.0593,1.0593,1.0593,1.0593,1.0593,1.0593,1.0593,1.0593,1.0593,1.0593,1.0593,1.0593,1.0593,1.0593,1.0593,1.0776,1.1101,1.1583,1.2056,1.2479,1.2827,1.2905,1.2905,1.2905,1.2905,1.2905,1.2905,1.2905,1.2905,1.2905,1.2905,1.2905,1.2905,1.2905,1.2905,1.2905,1.2905,1.2905,1.2905,1.2905,1.2905,1.2905,1.2905,1.2905,1.2905,1.2905,1.2905,1.2905,1.2905,1.2905,1.2905,1.2905,1.2905,3.4692,3.4404,3.3834,3.287,3.1701,3.0675,3.01,2.9522,0.0,0.0,3.0609,3.0888,3.0111,3.0113,2.9572,2.7558,2.6336,2.4936,2.2983,2.0527,1.8498,0.0,1.6179,1.5304,1.5109,1.477,0.0,0.0,1.1756,1.0617,0.9647,0.8265,0.7332,0.6927,0.6923,0.6977,0.7027,0.7939,0.8484,0.8643,1.0324,1.116,1.1154,1.1942,1.2144,1.1893,1.161,0.0,1.1049,1.0841,1.0747,1.0734,1.0687,1.0667,1.066,1.0613,1.0593,1.0593,1.0593,1.0593,1.0593,1.0593,1.0593,1.0593,1.0593,1.0593,1.0593,1.0593,1.0593,1.0593,1.0593,1.0593,1.0593,1.0593,1.042,1.0529,1.1499,1.2272,1.2821,1.29,1.2905,1.2905,1.2905,1.2905,1.2905,1.2905,1.2905,1.2905,1.2905,1.2905,1.2905,1.2905,1.2905,1.2905,1.2905,1.2905,1.2905,1.2905,1.2905,1.2905,1.2905,1.2905,1.2905,1.2905,1.2905,1.2905,1.2905,1.2905,1.2905,1.2905,1.2905,1.2905,3.3467,3.2927,3.2051,3.0761,2.9057,2.7426,2.6447,0.0,0.0,0.0,2.6854,2.7475,2.7679,2.8102,2.7792,2.5876,2.5021,2.3872,2.1816,1.9974,1.8346,1.7144,1.5913,1.5057,1.4763,1.4469,1.3525,1.1675,1.0921,1.0105,0.9141,0.7764,0.692,0.6814,0.681,0.6736,0.6583,0.7537,0.7959,0.7909,0.9337,1.0002,1.004,1.0912,1.1145,1.087,1.1085,0.0,1.0787,1.0646,1.0593,1.0593,1.0593,1.0593,1.0593,1.0593,1.0593,1.0593,1.0593,1.0593,1.0593,1.0593,1.0593,1.0593,1.0593,1.0593,1.0593,1.0593,1.0593,1.0593,1.0593,1.0593,1.0553,1.0367,1.0279,1.0491,1.1541,1.2043,1.2452,1.2832,1.2905,1.2905,1.2905,1.2905,1.2905,1.2905,1.2905,1.2905,1.2905,1.2905,1.2905,1.2905,1.2905,1.2905,1.2905,1.2905,1.2905,1.2905,1.2905,1.2905,1.2905,1.2905,1.2905,1.2905,1.2905,1.2905,1.2905,1.2905,1.2905,1.2905,1.2905,1.3065,3.2081,3.146,3.0388,2.8512,2.6396,2.4337,2.2619,2.0669,0.0,0.0,2.2434,2.3353,2.4905,2.5504,2.5393,0.0,2.3675,2.2635,2.0495,1.929,1.8081,1.6484,1.5527,0.0,1.4462,1.4162,0.0,1.0872,1.0226,0.9489,0.8465,0.745,0.681,0.6658,0.6651,0.658,0.6467,0.7249,0.7571,0.748,0.8458,0.8925,0.8952,0.9712,0.9896,0.961,1.0202,0.0,0.0,1.0136,1.0263,1.0593,1.0396,1.0428,1.0593,1.0593,1.0593,1.0593,1.0593,1.0593,1.0593,1.0593,1.0593,1.0593,1.0593,1.0593,1.0593,1.0593,1.0593,1.0593,1.0593,1.0546,1.0374,1.0013,1.0101,1.0532,1.1394,1.169,1.203,1.2774,1.2905,1.2905,1.2905,1.2905,1.2905,1.2905,1.2905,1.2905,1.2905,1.2905,1.2905,1.2905,1.2905,1.2905,1.2905,1.2905,1.2905,1.2905,1.2905,1.2905,1.2905,1.2905,1.2905,1.2905,1.2905,1.2905,1.2905,1.2905,1.2905,1.2905,1.3041,1.3348,3.0671,2.995,2.8796,2.6253,2.369,2.1324,1.9515,0.0,0.0,1.7395,1.8401,1.9688,2.1881,2.2713,0.0,0.0,0.0,2.2307,2.0357,1.9033,1.7384,1.4975,0.0,0.0,1.4182,1.3854,1.3121,1.1863,0.9679,0.7954,0.6944,0.677,0.6651,0.6538,0.6532,0.6463,0.632,0.6398,0.6465,0.6451,0.7272,0.7664,0.7697,0.8572,0.88,0.8552,0.8599,0.0,0.0,0.8581,0.916,1.0523,0.9722,0.9913,1.0593,1.0593,1.0593,1.0593,1.0593,1.0593,1.0593,1.0593,1.0593,1.0593,1.0593,1.0593,1.0593,1.0593,1.0593,1.0593,1.0593,1.0361,1.0013,0.9424,0.9818,1.0405,1.0819,1.1366,1.203,1.2774,1.2905,1.2905,1.2905,1.2905,1.2905,1.2905,1.2905,1.2905,1.2905,1.2905,1.2905,1.2905,1.2905,1.2905,1.2905,1.2905,1.2905,1.2905,1.2905,1.2905,1.2905,1.2905,1.2905,1.2905,1.2905,1.2905,1.2905,1.2905,1.2905,1.2905,1.3457,1.3755,2.8752,2.7805,2.6367,2.3603,2.0852,1.83,1.6306,0.0,1.2782,1.3931,1.5037,1.6266,1.7806,1.8833,1.9601,0.0,0.0,0.0,1.7639,1.7162,1.6264,1.446,1.4516,0.0,0.0,0.0,1.1875,0.9822,0.8064,0.6868,0.6477,0.6515,0.6538,0.6388,0.6385,0.6358,0.63,0.63,0.63,0.63,0.6513,0.6578,0.6607,0.7324,0.7585,0.7536,0.795,0.0,0.0,0.8156,0.871,0.9786,0.9434,0.9817,1.0593,1.0593,1.0593,1.0593,1.0593,1.0593,1.0566,1.0354,1.0294,1.0294,1.0294,1.0204,1.0097,1.0241,1.0167,1.0104,1.0247,0.994,0.9497,0.9264,0.9289,0.9544,1.0069,1.0712,1.1391,1.2113,1.2608,1.2905,1.2905,1.2905,1.2905,1.2905,1.2905,1.2905,1.2905,1.2905,1.2905,1.2905,1.2905,1.2905,1.2905,1.2905,1.2905,1.2905,1.2905,1.2905,1.2905,1.2905,1.2905,1.2905,1.2905,1.2905,1.2905,1.3262,1.3443,1.3467,1.4061,1.4537,2.696,2.5922,2.4425,2.1665,1.8666,1.5893,0.0,1.1434,0.9865,1.0984,1.219,1.3422,1.4856,1.6055,1.6927,0.0,0.0,1.6927,1.5861,1.5938,1.561,1.4242,0.0,1.4402,0.0,1.2806,1.1145,0.9126,0.7584,0.6756,0.6756,0.6549,0.6405,0.6303,0.63,0.63,0.63,0.63,0.6276,0.6193,0.6037,0.5902,0.5891,0.6287,0.6455,0.6481,0.7014,0.0,0.0,0.7344,0.7897,0.8877,0.8646,0.923,1.0206,1.0206,1.0364,1.0579,1.0492,1.0459,1.0412,1.0087,0.9927,0.983,0.983,0.9773,0.9726,0.9933,0.984,0.9713,0.9826,0.9524,0.9218,0.9343,0.9085,0.908,1.0167,1.0618,1.1065,1.1956,1.2535,1.2905,1.2905,1.2905,1.2905,1.2905,1.2905,1.2905,1.2905,1.2905,1.2905,1.2905,1.2905,1.2905,1.2905,1.2905,1.2905,1.2905,1.2905,1.2905,1.2905,1.2905,1.2905,1.2905,1.2905,1.2905,1.2905,1.3505,1.3792,1.3815,1.4606,1.5276,2.5423,2.4559,2.3245,2.0807,1.7452,1.4291,1.2601,0.9573,0.7489,0.8671,0.9836,1.1327,1.3604,1.4962,1.6067,0.0,0.0,0.0,1.5861,1.5938,1.561,0.0,0.0,1.4402,1.4115,1.2638,1.1443,1.083,0.8912,0.0,0.7783,0.6834,0.6303,0.63,0.63,0.63,0.63,0.63,0.6183,0.5993,0.5878,0.5732,0.5589,0.5467,0.5428,0.0,0.0,0.0,0.0,0.5782,0.6437,0.7929,0.7079,0.78,0.9306,0.9306,0.9849,1.0553,1.0221,1.012,1.0074,0.978,0.9486,0.9217,0.9217,0.9424,0.9715,0.9715,0.9715,0.9619,0.9297,0.9217,0.9295,0.9694,0.929,0.9335,1.1341,1.1266,1.12,1.2618,1.2881,1.2905,1.2905,1.2905,1.2905,1.2905,1.2905,1.2905,1.2905,1.2905,1.2905,1.2905,1.2905,1.2905,1.2905,1.2905,1.2905,1.2905,1.2905,1.2905,1.2905,1.2905,1.2905,1.2905,1.2905,1.2905,1.2905,1.3505,1.3792,1.3815,1.5039,1.5908,2.301,2.189,2.0266,1.7588,1.482,1.2231,1.0233,0.8391,0.7228,0.7577,0.8623,0.9874,1.1413,1.2608,1.3828,1.517,0.0,0.0,0.0,0.0,0.0,1.4137,1.3988,1.3511,0.0,0.0,0.9883,0.8818,0.7514,0.0,0.6756,0.649,0.63,0.63,0.63,0.6248,0.6105,0.6101,0.6023,0.5871,0.5725,0.5633,0.5586,0.5467,0.5395,0.0,0.0,0.0,0.0,0.5524,0.6075,0.7079,0.6817,0.7315,0.82,0.82,0.832,0.854,0.8944,0.9062,0.9107,0.9302,0.9291,0.9178,0.8978,0.9011,0.9085,0.9085,0.9232,0.9284,0.8991,0.8918,0.8945,0.9081,0.9316,0.9666,1.0287,1.099,1.1616,1.2055,1.2559,1.2905,1.2905,1.2905,1.2905,1.2905,1.2905,1.2905,1.2905,1.2905,1.2905,1.2905,1.2905,1.2905,1.2905,1.2905,1.2905,1.2905,1.2905,1.2905,1.2905,1.2905,1.2905,1.2905,1.2905,1.3104,1.3529,1.4131,1.4835,1.5644,1.603,1.6315,0.0,1.9323,1.7829,1.5527,1.3258,1.1081,0.9219,0.7897,0.7095,0.7095,0.8061,0.9109,0.9836,1.0907,1.2052,1.334,0.0,0.0,0.0,0.0,0.0,1.4088,0.0,0.0,0.0,1.0712,0.934,0.8441,0.7099,0.0,0.63,0.6245,0.6173,0.6173,0.6173,0.6098,0.5909,0.5905,0.5867,0.5722,0.5633,0.5559,0.5535,0.544,0.5395,0.0,0.0,0.0,0.0,0.533,0.5593,0.6096,0.6033,0.6469,0.7125,0.7125,0.7295,0.7556,0.791,0.8028,0.8098,0.8497,0.8826,0.9018,0.8864,0.8804,0.8804,0.8804,0.8911,0.9004,0.8851,0.8804,0.8857,0.9106,0.9484,0.9943,1.044,1.1216,1.1888,1.2163,1.2584,1.2905,1.2905,1.2905,1.2905,1.2905,1.2905,1.2905,1.2905,1.2905,1.2905,1.2905,1.2905,1.2905,1.2905,1.2905,1.2905,1.2905,1.2905,1.2905,1.2905,1.2905,1.2905,1.2905,1.3128,1.342,1.3792,1.4618,1.5533,1.65,1.65,1.65,0.0,1.6782,1.5824,1.4313,1.2499,1.0668,0.9081,0.7895,0.0,0.7082,0.7954,0.8786,0.8886,0.9726,1.0761,1.1672,0.0,0.0,0.0,1.3873,0.0,0.0,1.3753,0.0,1.3206,1.1043,0.9552,0.9316,0.7429,0.0,0.6282,0.6098,0.5973,0.5959,0.5959,0.5928,0.5786,0.5786,0.5715,0.5576,0.5576,0.5532,0.5395,0.5395,0.5395,0.0,0.0,0.0,0.0,0.5179,0.5083,0.5069,0.4938,0.5385,0.6083,0.6083,0.6611,0.7253,0.705,0.6979,0.7056,0.7556,0.8156,0.8725,0.8778,0.8804,0.8804,0.8804,0.8804,0.8804,0.8804,0.8804,0.8956,0.9588,0.9762,1.0141,1.1441,1.1765,1.203,1.2774,1.2905,1.2905,1.2905,1.2905,1.2905,1.2905,1.2905,1.2905,1.2905,1.2905,1.2905,1.2905,1.2905,1.2905,1.2905,1.2905,1.2905,1.2905,1.2905,1.2905,1.2905,1.2905,1.2905,1.2905,1.3529,1.3886,1.3933,1.5096,1.5964,1.65,1.65,1.65,1.3649,0.0,1.3867,1.1974,1.0709,0.9389,0.0,0.7021,0.6933,0.6933,0.0,0.7699,0.869,0.8904,0.9401,1.0815,0.0,1.2308,1.2753,1.3565,0.0,1.3733,1.3487,1.3193,1.2924,1.0774,0.9352,0.9301,0.0,0.6084,0.6084,0.5939,0.5803,0.5698,0.5694,0.5677,0.564,0.564,0.5562,0.545,0.545,0.5429,0.5395,0.5395,0.5395,0.0,0.0,0.0,0.5172,0.4999,0.4938,0.4935,0.4901,0.4963,0.506,0.506,0.5124,0.5258,0.571,0.5885,0.6069,0.7306,0.7803,0.8076,0.8619,0.8804,0.8804,0.8804,0.8804,0.8804,0.8804,0.8804,0.8831,0.9008,0.9439,1.0038,1.0864,1.1441,1.203,1.2774,1.2905,1.2905,1.2905,1.2905,1.2905,1.2905,1.2905,1.2905,1.2905,1.2905,1.2905,1.2905,1.2905,1.2905,1.2905,1.2905,1.2905,1.2905,1.2905,1.2905,1.2905,1.2905,1.2905,1.2905,1.3954,1.471,1.5174,1.5942,1.6358,1.65,1.65,1.65,1.2445,1.2762,1.2923,1.1427,1.0366,0.9308,0.7841,0.0,0.0,0.0,0.0,0.0,0.0,0.0,0.0,0.0,1.0926,0.0,0.0,0.0,1.3361,1.3551,1.3347,1.3086,0.0,1.0617,0.9214,0.9214,0.0,0.5925,0.5925,0.5786,0.5671,0.5593,0.5556,0.5518,0.5518,0.5518,0.5477,0.5395,0.5395,0.5395,0.5395,0.5395,0.5354,0.0,0.0,0.0,0.4988,0.4874,0.4813,0.4806,0.4735,0.466,0.4614,0.4614,0.4559,0.4543,0.4924,0.5246,0.5624,0.6438,0.7149,0.7777,0.8182,0.8533,0.8804,0.8804,0.8804,0.8804,0.8804,0.8804,0.8883,0.9185,0.9762,1.044,1.1099,1.1807,1.2427,1.2822,1.2905,1.2905,1.2905,1.2905,1.2905,1.2905,1.2905,1.2905,1.2905,1.2905,1.2905,1.2905,1.2905,1.2905,1.2905,1.2905,1.2905,1.2905,1.2905,1.2905,1.2905,1.2905,1.3152,1.3729,1.4363,1.513,1.5996,1.6337,1.65,1.65,1.65,1.65,1.2358,1.263,1.2614,1.1648,1.0656,0.9689,0.8949,0.0,0.0,0.0,0.0,0.0,0.0,0.8558,0.0,0.0,0.0,0.0,1.2413,1.2511,1.2776,1.3444,1.332,0.0,1.2683,1.0487,0.9093,0.0,0.0,0.5769,0.5769,0.5633,0.5555,0.5555,0.5463,0.5395,0.5395,0.5395,0.5395,0.5395,0.5395,0.5395,0.5395,0.5371,0.5254,0.5096,0.0,0.0,0.487,0.4718,0.4657,0.4672,0.4542,0.4491,0.4491,0.4491,0.4491,0.4491,0.4491,0.4869,0.5351,0.546,0.6411,0.7563,0.767,0.8209,0.8804,0.8804,0.8804,0.8804,0.8804,0.8883,0.908,0.9666,1.0312,1.0965,1.1667,1.228,1.2774,1.2881,1.2905,1.2905,1.2905,1.2905,1.2905,1.2905,1.2905,1.2905,1.2905,1.2905,1.2905,1.2905,1.2905,1.2905,1.2905,1.2905,1.2905,1.2905,1.2905,1.2905,1.2905,1.2992,1.3563,1.4686,1.4789,1.5377,1.65,1.65,1.65,1.65,1.65,1.65,1.265,1.2945,1.2785,1.1279,1.0405,0.9772,0.933,0.0,0.0,0.0,0.0,0.0,0.0,0.8944,0.9612,0.0,0.0,1.235,0.0,0.0,1.339,1.3267,0.0,1.2643,1.2094,1.0279,0.899,0.0,0.0,0.5623,0.5623,0.5515,0.5429,0.5429,0.5405,0.5395,0.5395,0.5395,0.5395,0.5395,0.5395,0.5395,0.5388,0.5226,0.512,0.5083,0.0,0.4745,0.4714,0.459,0.4525,0.4525,0.4498,0.4491,0.4491,0.4491,0.4491,0.4491,0.4491,0.457,0.4732,0.5328,0.6064,0.6885,0.7503,0.8209,0.8804,0.8804,0.8804,0.8804,0.8804,0.9211,0.9658,0.9788,1.0312,1.099,1.1674,1.1898,1.2153,1.2774,1.2905,1.2905,1.2905,1.2905,1.2905,1.2905,1.2905,1.2905,1.2905,1.2905,1.2905,1.2905,1.2905,1.2905,1.2905,1.2905,1.2905,1.2905,1.2905,1.2905,1.2905,1.3396,1.398,1.4686,1.5208,1.5798,1.65,1.65,1.65,1.65,1.65,1.65,1.2509,1.2764,1.2809,1.2062,1.1467,1.0982,1.0678,0.0,0.0,0.0,0.0,0.0,0.0,0.0,1.0235,1.1073,0.0,1.1733,1.2972,1.2881,1.2817,0.0,0.0,1.2556,1.1966,1.01,0.0,0.0,0.0,0.0,0.5501,0.5433,0.5395,0.5395,0.5395,0.5395,0.5395,0.5277,0.5277,0.5392,0.5277,0.5237,0.5233,0.5052,0.4938,0.4887,0.0,0.4672,0.459,0.4518,0.4491,0.4491,0.4491,0.4491,0.4491,0.4491,0.4491,0.4491,0.4491,0.4491,0.4543,0.4869,0.5437,0.6145,0.688,0.7616,0.8289,0.8699,0.8804,0.8804,0.8804,0.9035,0.9439,1.0167,1.0593,1.1099,1.2172,1.2393,1.2476,1.2822,1.2905,1.2905,1.2905,1.2905,1.2905,1.2905,1.2905,1.2905,1.2905,1.2905,1.2905,1.2905,1.2905,1.2905,1.2905,1.2905,1.2905,1.2905,1.2905,1.2905,1.2905,1.3481,1.4073,1.4686,1.5298,1.5908,1.65,1.65,1.65,1.65,1.65,1.65,1.2311,1.261,1.2804,1.2878,0.0,1.1986,1.203,0.0,0.0,0.0,0.0,0.0,0.0,1.005,0.0,1.2302,1.1824,1.1586,1.2416,1.2264,1.2351,1.3048,1.2804,1.2375,1.1852,0.0,0.0,0.0,0.0,0.0,0.5395,0.5395,0.5378,0.5341,0.5341,0.5324,0.5293,0.5138,0.5159,0.5341,0.5155,0.5049,0.5046,0.4901,0.4802,0.4687,0.4682,0.46,0.4491,0.4491,0.4491,0.4491,0.4491,0.4491,0.4491,0.4491,0.4491,0.4491,0.4491,0.4491,0.4491,0.4491,0.5058,0.5869,0.6421,0.7235,0.8076,0.8646,0.8804,0.8804,0.8804,0.891,0.9283,1.0312,1.0813,1.1325,1.2403,1.2774,1.2905,1.2905,1.2905,1.2905,1.2905,1.2905,1.2905,1.2905,1.2905,1.2905,1.2905,1.2905,1.2905,1.2905,1.2905,1.2905,1.2905,1.2905,1.2905,1.2905,1.2905,1.2968,1.3104,1.3695,1.4306,1.4903,1.5499,1.603,1.65,1.65,1.65,1.65,1.65,1.65,1.2443,1.277,1.2851,1.3106,1.2347,0.0,1.285,1.1433,0.0,0.0,0.0,0.0,0.0,1.0716,1.192,1.2981,1.3291,1.333,1.3147,0.0,1.2761,1.2817,1.2315,1.1839,0.0,0.0,0.0,0.0,0.0,0.0,0.5395,0.5395,0.5327,0.512,0.5113,0.5052,0.4921,0.4911,0.4975,0.5113,0.4972,0.4904,0.4897,0.4775,0.4701,0.468,0.4566,0.4501,0.4491,0.4491,0.4491,0.4491,0.4491,0.4491,0.4491,0.4491,0.4491,0.4491,0.4491,0.4491,0.4491,0.4491,0.5418,0.6534,0.6588,0.7589,0.8725,0.8778,0.8804,0.8804,0.8804,0.9263,0.9762,0.984,1.0813,1.1765,1.1864,1.2427,1.2905,1.2905,1.2905,1.2905,1.2905,1.2905,1.2905,1.2905,1.2905,1.2905,1.2905,1.2905,1.2905,1.2905,1.2905,1.2905,1.2905,1.2905,1.2905,1.2905,1.2905,1.3152,1.3708,1.4306,1.4915,1.5521,1.6129,1.6457,1.65,1.65,1.65,1.65,1.65,1.65,1.1402,1.2176,1.2811,1.2931,0.0,0.0,0.0,0.0,0.0,0.0,0.0,0.0,0.0,0.0,1.2342,1.2282,1.2888,1.334,1.3227,1.2985,1.2717,1.2529,1.2147,1.1718,0.0,0.0,0.0,0.0,0.0,0.0,0.5255,0.5216,0.5152,0.4972,0.4968,0.4941,0.4887,0.4823,0.4802,0.4857,0.4802,0.4775,0.4772,0.4648,0.4576,0.4573,0.4515,0.4491,0.4491,0.4491,0.4491,0.4491,0.4491,0.4491,0.4491,0.4491,0.4491,0.4491,0.4491,0.4491,0.4491,0.4491,0.514,0.6009,0.6453,0.7316,0.8209,0.8672,0.8804,0.8804,0.8804,0.8982,0.929,0.9692,1.0517,1.1191,1.1191,1.2098,1.2774,1.2295,1.2584,1.2905,1.2905,1.2905,1.2905,1.2905,1.2905,1.2905,1.2905,1.2905,1.2905,1.2905,1.2905,1.2905,1.2905,1.2905,1.2905,1.2905,1.2905,1.3176,1.3779,1.4376,1.4994,1.5588,1.6182,1.65,1.65,1.65,1.65,1.65,1.65,1.65,1.0634,1.1452,1.2252,0.0,0.0,0.0,0.0,0.0,0.0,0.0,0.0,0.0,0.0,0.0,0.0,0.0,1.2557,1.3033,1.2939,1.2659,1.2429,1.2191,1.183,0.0,0.0,0.0,0.0,0.0,0.0,0.0,0.0,0.5032,0.4965,0.4853,0.4847,0.4823,0.4775,0.467,0.4648,0.4648,0.4648,0.4648,0.4644,0.4539,0.4491,0.4491,0.4491,0.4491,0.4491,0.4491,0.4491,0.4491,0.4491,0.4491,0.4491,0.4491,0.4491,0.4491,0.4491,0.4491,0.4491,0.4491,0.5113,0.5955,0.6448,0.7262,0.8156,0.8646,0.8804,0.8804,0.8804,0.8804,0.891,0.9387,1.0167,1.0788,1.0788,1.19,1.274,1.2236,1.2559,1.2905,1.2905,1.2905,1.2905,1.2905,1.2905,1.2905,1.2905,1.2905,1.2905,1.2905,1.2905,1.2905,1.2905,1.2905,1.2905,1.2905,1.3079,1.3443,1.405,1.4468,1.5062,1.5864,1.6281,1.65,1.65,1.65,1.65,1.65,1.65,1.65,1.0222,1.0789,1.105,0.0,0.0,0.0,0.0,0.0,0.0,0.0,0.0,1.1419,1.2166,0.0,0.0,1.216,1.2583,1.267,1.2338,1.2044,1.1899,1.1899,0.0,0.0,0.0,0.0,0.0,0.0,0.0,0.0,0.0,0.4887,0.4847,0.4694,0.4687,0.4644,0.4491,0.4491,0.4491,0.4491,0.4491,0.4491,0.4491,0.4491,0.4491,0.4491,0.4491,0.4491,0.4491,0.4491,0.4491,0.4491,0.4491,0.4491,0.4491,0.4491,0.4491,0.4491,0.4491,0.4491,0.4491,0.4491,0.5445,0.6588,0.6588,0.7616,0.8778,0.8804,0.8804,0.8804,0.8804,0.8804,0.8804,0.8804,0.9814,1.0788,1.0788,1.19,1.2905,1.2881,1.2905,1.2905,1.2905,1.2905,1.2905,1.2905,1.2905,1.2905,1.2905,1.2905,1.2905,1.2905,1.2905,1.2905,1.2905,1.2905,1.2905,1.2905,1.3467,1.4073,1.4686,1.4709,1.5265,1.6479,1.65,1.65,1.65,1.65,1.65,1.65,1.65,1.65,0.9593,1.0968,0.0,1.2277,0.0,0.0,0.0,0.0,0.0,0.0,1.2614,1.2113,1.1366,0.0,0.0,1.1046,1.1455,1.1784,1.1662,1.161,1.1483,1.1276,0.0,0.0,0.0,0.0,0.0,0.0,0.0,0.0,0.0,0.5049,0.4687,0.4563,0.4559,0.4535,0.4491,0.4491,0.4491,0.4491,0.4491,0.4491,0.4491,0.4491,0.4491,0.4491,0.4491,0.4491,0.4491,0.4491,0.4491,0.4491,0.4491,0.4491,0.4491,0.4491,0.4491,0.4491,0.4491,0.4491,0.4491,0.4491,0.5113,0.5923,0.6448,0.7262,0.8129,0.8646,0.8804,0.8804,0.8804,0.8804,0.8804,0.8804,0.9814,1.0661,1.0192,1.1568,1.2749,1.2236,1.2559,1.2905,1.2905,1.2905,1.2905,1.2905,1.2905,1.2905,1.2905,1.2905,1.2905,1.2905,1.2905,1.2905,1.2905,1.2905,1.2905,1.2905,1.3467,1.4073,1.4686,1.5096,1.571,1.6466,1.65,1.65,1.65,1.65,1.65,1.65,1.65,1.65,0.9064,1.0604,0.0,1.2234,1.2579,1.2752,1.2385,0.0,0.0,0.0,0.0,1.2322,1.1396,1.1618,0.0,1.0916,1.1149,1.1389,1.1389,1.1323,1.1142,0.0,0.0,0.0,0.0,0.0,0.0,0.0,0.0,0.0,0.0,0.5018,0.4586,0.4494,0.4491,0.4491,0.4491,0.4491,0.4491,0.4491,0.4491,0.4491,0.4491,0.4491,0.4491,0.4491,0.4491,0.4491,0.4491,0.4491,0.4491,0.4491,0.4491,0.4491,0.4491,0.4491,0.4491,0.4491,0.4491,0.4491,0.4491,0.4491,0.4948,0.5651,0.6367,0.7128,0.7857,0.8593,0.8804,0.8804,0.8804,0.8804,0.8804,0.8804,0.9814,1.0695,1.0287,1.1617,1.2774,1.232,1.2608,1.2905,1.2905,1.2905,1.2905,1.2905,1.2905,1.2905,1.2905,1.2905,1.2905,1.2905,1.2905,1.2905,1.2905,1.2905,1.2905,1.2905,1.3695,1.4329,1.4675,1.5276,1.5886,1.65,1.65,1.65,1.65,1.65,1.65,1.65,1.65,1.65,0.8614,0.0,0.0,1.2046,1.2305,0.0,1.2338,1.2305,1.2271,1.2291,0.0,1.2184,1.1953,1.1859,1.1739,1.1395,1.1329,1.1349,1.1349,1.1096,0.0,0.0,0.0,0.0,0.0,0.0,0.0,0.0,0.0,0.0,0.0,0.4893,0.4491,0.4491,0.4491,0.4491,0.4491,0.4491,0.4491,0.4491,0.4491,0.4491,0.4491,0.4491,0.4491,0.4491,0.4491,0.4491,0.4491,0.4491,0.4491,0.4491,0.4491,0.4491,0.4491,0.4491,0.4491,0.4491,0.4491,0.4491,0.4491,0.4491,0.4924,0.5542,0.6285,0.702,0.775,0.848,0.8752,0.8804,0.8804,0.8804,0.8804,0.8804,0.9814,1.0788,1.0788,1.19,1.2905,1.2905,1.2905,1.2905,1.2905,1.2905,1.2905,1.2905,1.2905,1.2905,1.2905,1.2905,1.2905,1.2905,1.2905,1.2905,1.2905,1.2905,1.2905,1.2905,1.4025,1.4698,1.4698,1.532,1.593,1.65,1.65,1.65,1.65,1.65,1.65,1.65,1.65,1.65,0.7699,0.9557,0.0,0.0,1.2305,1.2365,1.2636,1.2328,1.2067,1.2258,1.2124,1.198,1.1913,1.149,1.1162,1.1096,1.0895,1.078,1.078,1.0488,0.0,0.0,0.0,0.0,0.0,0.0,0.0,0.0,0.0,0.0,0.6367,0.5171,0.4491,0.4491,0.4491,0.4491,0.4491,0.4491,0.4491,0.0,0.4491,0.4491,0.4491,0.4491,0.4491,0.4491,0.4491,0.4491,0.4491,0.4491,0.4491,0.4491,0.4491,0.4491,0.4491,0.4491,0.4491,0.4491,0.4491,0.4491,0.4491,0.4491,0.4598,0.4842,0.5515,0.6253,0.6993,0.7723,0.8348,0.8804,0.8804,0.8804,0.8804,0.8804,0.9814,1.0788,1.0788,1.19,1.2905,1.2905,1.2905,1.2905,1.2905,1.2905,1.2905,1.2905,1.2905,1.2905,1.2905,1.2905,1.2905,1.2905,1.2905,1.2905,1.2905,1.2905,1.2905,1.2905,1.4025,1.4698,1.4698,1.5722,1.638,1.65,1.65,1.65,1.65,1.65,1.65,1.65,1.65,1.65,0.643,0.0,0.0,1.0734,0.0,1.0987,1.1527,1.1417,1.1316,1.177,1.1764,1.1617,1.1476,1.1202,1.0902,1.0621,1.0448,1.0332,1.0191,1.0007,0.0,0.0,0.0,0.0,0.0,0.0,0.0,0.0,0.0,0.7128,0.7128,0.5764,0.4976,0.4976,0.468,0.4491,0.4491,0.4491,0.4491,0.4491,0.4491,0.4491,0.4491,0.4491,0.4491,0.4491,0.4491,0.4491,0.4491,0.4491,0.4491,0.4491,0.4491,0.4491,0.4491,0.4491,0.4491,0.4491,0.4491,0.4491,0.4491,0.4491,0.4491,0.468,0.571,0.6285,0.6831,0.791,0.8507,0.8804,0.8804,0.8804,0.8804,0.8804,0.9588,1.0312,1.0312,1.1158,1.199,1.232,1.2369,1.2476,1.2847,1.2905,1.2905,1.2905,1.2905,1.2905,1.2905,1.2905,1.3017,1.331,1.3324,1.3443,1.3752,1.3752,1.3752,1.3752,1.4629,1.5118,1.5118,1.6008,1.65,1.65,1.65,1.65,1.65,1.65,1.65,1.65,1.65,1.65,0.4682,0.0,0.8117,0.9272,0.9419,0.0,1.0031,1.0115,1.0266,1.0957,1.1213,1.1242,1.1035,1.108,1.0896,1.02,1.0235,1.0157,0.9749,0.0,0.0,0.0,0.0,0.0,0.0,0.0,0.0,0.0,0.0,0.7696,0.7696,0.6416,0.5624,0.5515,0.4976,0.4625,0.4491,0.4491,0.4491,0.4491,0.4491,0.4491,0.4491,0.4491,0.4491,0.4491,0.4491,0.4491,0.4491,0.4491,0.4491,0.4491,0.4491,0.4491,0.4491,0.4491,0.4491,0.4491,0.4491,0.4491,0.4491,0.4491,0.457,0.4897,0.6068,0.6583,0.7047,0.8268,0.8699,0.8804,0.8804,0.8804,0.8804,0.8804,0.9237,0.9666,0.9762,1.0346,1.099,1.1665,1.1888,1.2187,1.2798,1.2905,1.2905,1.2905,1.2905,1.2905,1.2905,1.2905,1.3128,1.3732,1.3792,1.405,1.4652,1.4698,1.4698,1.4698,1.5276,1.561,1.561,1.6194,1.65,1.65,1.65,1.65,1.65,1.65,1.65,1.65,1.65,1.65,0.0,0.0,0.8049,0.0,0.9496,0.9311,0.0,0.0,0.9063,0.0,1.0544,1.1042,1.1002,1.1379,1.1356,1.0258,1.0666,1.079,0.9836,0.0,0.0,0.0,0.0,0.0,0.0,0.0,0.0,0.0,0.8129,0.7696,0.7696,0.6912,0.6145,0.5515,0.5406,0.5081,0.4519,0.4491,0.4491,0.4491,0.4491,0.4491,0.4491,0.4491,0.4491,0.4491,0.4491,0.4491,0.4491,0.4491,0.4491,0.4491,0.4491,0.4491,0.4491,0.4491,0.4491,0.4491,0.4491,0.4491,0.4491,0.4491,0.4893,0.5406,0.5597,0.6551,0.7589,0.7777,0.8315,0.8804,0.8804,0.8804,0.8804,0.8804,0.8857,0.908,0.9666,1.0346,1.099,1.1665,1.232,1.2774,1.2881,1.2905,1.2905,1.2905,1.2905,1.2905,1.2905,1.2905,1.3128,1.3732,1.3792,1.405,1.4652,1.4698,1.4698,1.4698,1.5276,1.561,1.561,1.6194,1.65,1.65,1.65,1.65,1.65,1.65,1.65,1.65,1.65,1.65,0.0403,0.3452,0.6173,0.0,0.7325,0.7668,0.7916,0.0,0.8076,0.9251,0.9764,1.0316,1.1273,1.1441,1.1353,1.1142,1.0902,1.0509,0.0,0.0,0.0,0.0,0.0,0.0,0.0,0.0,0.0,0.0,0.8507,0.8315,0.8315,0.7616,0.7069,0.674,0.6335,0.5764,0.5058,0.5054,0.4869,0.4491,0.4491,0.4491,0.4491,0.4491,0.4491,0.4491,0.4491,0.4491,0.4491,0.4491,0.4491,0.4491,0.4491,0.4491,0.4491,0.4491,0.4491,0.4491,0.4491,0.4491,0.4491,0.4491,0.4704,0.5085,0.5873,0.6583,0.7262,0.8076,0.856,0.8804,0.8804,0.8804,0.8804,0.8804,0.8804,0.8982,0.9666,1.0038,1.0542,1.1591,1.2393,1.2905,1.2905,1.2905,1.2905,1.2905,1.2905,1.2905,1.2905,1.2905,1.3128,1.3732,1.4097,1.456,1.5141,1.5511,1.57,1.57,1.5964,1.6095,1.6095,1.6358,1.65,1.65,1.65,1.65,1.65,1.65,1.65,1.65,1.65,1.65,0.0,0.0,0.3691,0.4291,0.5165,0.5978,0.0,0.0,0.7115,0.0,0.8812,0.952,1.1299,1.1526,1.1488,1.1718,1.125,1.0615,0.0,0.0,0.0,0.0,0.0,0.0,0.0,0.0,0.0,0.0,0.8804,0.8804,0.8804,0.8289,0.7883,0.7696,0.7155,0.6443,0.5515,0.5324,0.5003,0.4491,0.4491,0.4491,0.4491,0.4491,0.4491,0.4491,0.4491,0.4491,0.4491,0.4491,0.4491,0.4491,0.4491,0.4491,0.4491,0.4491,0.4491,0.4491,0.4491,0.4491,0.4491,0.4491,0.4625,0.4952,0.6014,0.6583,0.7101,0.8209,0.8646,0.8804,0.8804,0.8804,0.8804,0.8804,0.8804,0.8982,0.9666,1.0064,1.0593,1.1616,1.2393,1.2905,1.2905,1.2905,1.2905,1.2905,1.2905,1.2905,1.2905,1.2905,1.3128,1.3732,1.4329,1.4949,1.5543,1.6139,1.65,1.65,1.65,1.65,1.65,1.65,1.65,1.65,1.65,1.65,1.65,1.65,1.65,1.65,1.65,1.65,0.0,0.0321,0.0,0.2745,0.4,0.0,0.0,0.0,0.6064,0.6697,0.7502,0.8706,1.0756,1.1803,1.2098,1.1434,1.1921,1.1783,0.0,0.0,0.0,0.0,0.0,0.0,0.0,0.0,0.0,0.0,0.8804,0.8804,0.8804,0.8752,0.8427,0.7723,0.767,0.6956,0.5515,0.4869,0.4546,0.4491,0.4491,0.4491,0.4491,0.4491,0.4491,0.4491,0.4491,0.4491,0.4491,0.4491,0.4491,0.4491,0.4491,0.4491,0.4491,0.4491,0.4491,0.4491,0.4491,0.4491,0.4491,0.4491,0.4921,0.546,0.5538,0.6524,0.767,0.7723,0.8268,0.8804,0.8804,0.8804,0.8804,0.8804,0.8804,0.8982,0.9666,1.0788,1.1715,1.1789,1.2393,1.2905,1.2905,1.2905,1.2905,1.2905,1.2905,1.2905,1.2905,1.2905,1.3128,1.3732,1.4329,1.4949,1.5543,1.6139,1.65,1.65,1.65,1.65,1.65,1.65,1.65,1.65,1.65,1.65,1.65,1.65,1.65,1.65,1.65,1.65,0.0,0.0,0.0,0.0912,0.2031,0.3092,0.3994,0.4493,0.5139,0.644,0.7405,0.8408,0.9758,1.1079,1.2111,1.2632,1.2339,0.0,0.0,0.0,0.0,0.0,0.0,0.0,0.0,0.0,0.0,0.0,0.0,0.8804,0.8804,0.8804,0.8672,0.8401,0.8401,0.7691,0.6231,0.5062,0.4491,0.4491,0.4491,0.4491,0.4491,0.4491,0.4491,0.4491,0.4491,0.4491,0.4491,0.4491,0.4491,0.4491,0.4491,0.4491,0.4491,0.4491,0.4491,0.4491,0.4491,0.4491,0.4491,0.4491,0.4653,0.4948,0.5378,0.6199,0.7101,0.7563,0.8242,0.8804,0.8804,0.8804,0.891,0.9335,0.9762,1.0269,1.0939,1.1466,1.1947,1.2403,1.2725,1.2905,1.2905,1.2905,1.2905,1.2905,1.2905,1.2905,1.2905,1.2905,1.2968,1.32,1.4107,1.4789,1.5005,1.592,1.65,1.65,1.65,1.65,1.65,1.65,1.65,1.65,1.65,1.65,1.65,1.65,1.65,1.65,1.65,1.65,-0.4676,0.0,0.0,0.0,0.0,0.1542,0.2556,0.0,0.4497,0.5564,0.6748,0.7847,0.8805,1.0036,1.1363,1.2705,1.2498,0.0,0.0,0.0,0.0,0.0,0.0,0.0,0.0,0.0,0.0,0.0,0.0,0.0,0.8804,0.8804,0.8804,0.8804,0.8566,0.783,0.6615,0.5414,0.4732,0.4491,0.4491,0.4491,0.4491,0.4491,0.4491,0.4491,0.4491,0.4491,0.4491,0.4491,0.4491,0.4491,0.4491,0.4491,0.4491,0.4491,0.4491,0.4491,0.4491,0.4491,0.4491,0.4491,0.4491,0.457,0.503,0.5655,0.6394,0.7128,0.7857,0.848,0.8725,0.8804,0.891,0.9361,0.9814,1.0364,1.1266,1.1848,1.232,1.2798,1.2905,1.2905,1.2905,1.2905,1.2905,1.2905,1.2905,1.2905,1.2905,1.2905,1.2968,1.3176,1.4084,1.4766,1.4994,1.592,1.65,1.65,1.65,1.65,1.65,1.65,1.65,1.65,1.65,1.65,1.65,1.65,1.65,1.65,1.65,1.65,0.0,0.0,0.0,0.0,0.0,0.0,0.0035,0.0,0.4072,0.3969,0.5397,0.6907,0.7836,0.8725,0.9855,1.1445,1.2369,0.0,0.0,0.0,0.0,0.0,0.0,0.0,0.0,0.0,0.0,0.0,0.9814,0.951,0.8857,0.8804,0.8804,0.8804,0.8076,0.7343,0.6615,0.5869,0.5164,0.4491,0.4491,0.4491,0.4491,0.4491,0.4487,0.4484,0.4487,0.4487,0.4484,0.4487,0.4491,0.4491,0.4491,0.4491,0.4491,0.4491,0.4491,0.4491,0.4491,0.4491,0.4491,0.4491,0.4491,0.4491,0.4491,0.4976,0.5651,0.6394,0.7128,0.7857,0.8619,0.8804,0.8811,0.8831,0.8831,0.9185,1.0517,1.1866,1.2856,1.2881,1.2905,1.2905,1.2905,1.2905,1.2905,1.2905,1.2929,1.2929,1.2929,1.2954,1.3176,1.3755,1.4376,1.496,1.5543,1.6139,1.65,1.65,1.65,1.65,1.65,1.65,1.65,1.65,1.65,1.65,1.65,1.65,1.65,1.65,1.65,1.65,-0.6551,0.0,0.0,0.0,0.0,0.0,0.0,0.0,0.1638,0.2825,0.3966,0.4933,0.5536,0.6752,0.8074,0.9356,1.099,0.0,0.0,0.0,0.0,0.0,0.0,0.0,0.0,0.0,0.0,0.0,1.0338,0.971,0.9536,0.9061,0.8804,0.8804,0.8076,0.7343,0.6615,0.5869,0.5164,0.4491,0.4491,0.4491,0.4491,0.4491,0.4433,0.4284,0.4447,0.4429,0.4291,0.4447,0.4491,0.4491,0.4491,0.4491,0.4491,0.4491,0.4491,0.4491,0.4491,0.4491,0.4491,0.4491,0.4491,0.4491,0.4491,0.4976,0.5651,0.6394,0.7128,0.7857,0.8619,0.8804,0.8936,0.9413,0.951,0.9762,1.0618,1.1099,1.1692,1.2691,1.2905,1.2905,1.2905,1.2905,1.2905,1.2905,1.3262,1.3552,1.3552,1.392,1.4271,1.4422,1.4983,1.541,1.5588,1.6139,1.65,1.65,1.65,1.65,1.65,1.65,1.65,1.65,1.65,1.65,1.65,1.65,1.65,1.65,1.65,1.65,0.0,0.0,0.0,0.0,0.0,0.0,-0.1824,-0.0883,0.0,0.0,0.2017,0.3028,0.3547,0.497,0.6426,0.7587,0.9313,0.0,0.0,0.0,0.0,0.0,0.0,0.0,0.0,1.2501,1.2129,1.1814,1.1091,1.0389,0.984,0.9159,0.8751,0.8631,0.8229,0.748,0.6443,0.6014,0.5362,0.4491,0.4491,0.4491,0.4487,0.4399,0.4301,0.4197,0.427,0.4072,0.3769,0.4138,0.4314,0.4379,0.4467,0.4453,0.4379,0.4467,0.4491,0.4491,0.4491,0.4491,0.4491,0.4491,0.4491,0.4491,0.4491,0.4759,0.53,0.6312,0.7343,0.8262,0.8699,0.8804,0.891,0.929,0.9387,0.9562,1.0244,1.0389,1.0796,1.2172,1.2452,1.2535,1.2856,1.2905,1.2905,1.2905,1.342,1.3792,1.3792,1.4329,1.4789,1.5062,1.5387,1.5698,1.5952,1.6303,1.65,1.65,1.65,1.65,1.65,1.65,1.65,1.65,1.65,1.65,1.65,1.65,1.65,1.65,1.65,1.65,0.0,0.0,0.0,0.0,0.0,0.0,-0.3998,-0.2778,-0.1653,0.0,-0.0354,0.0968,0.1605,0.3071,0.4585,0.5815,0.7195,0.0,0.0,0.0,0.0,0.0,0.0,0.0,1.3089,1.3041,1.273,1.2061,1.1888,1.1216,0.9865,0.9237,0.8749,0.8409,0.8402,0.769,0.6217,0.6186,0.561,0.4467,0.4467,0.4457,0.4436,0.4254,0.4134,0.4059,0.3944,0.3559,0.3023,0.3636,0.3919,0.3997,0.4254,0.4227,0.4105,0.4284,0.4395,0.4464,0.4447,0.4453,0.4464,0.4447,0.444,0.444,0.444,0.4453,0.4769,0.6199,0.767,0.8804,0.8804,0.8804,0.8804,0.8804,0.8804,0.8982,0.9666,0.9788,1.0167,1.1441,1.174,1.1996,1.2666,1.2856,1.2905,1.2905,1.3467,1.3909,1.3909,1.4491,1.5107,1.5632,1.5698,1.5908,1.6445,1.65,1.65,1.65,1.65,1.65,1.65,1.65,1.65,1.65,1.65,1.65,1.65,1.65,1.65,1.65,1.65,1.65,0.0,0.0,0.0,0.0,0.0,0.0,-0.5288,-0.51,-0.4817,0.0,-0.3045,-0.218,-0.1487,-0.0116,0.138,0.2811,0.3787,0.0,0.0,0.0,0.0,0.0,0.0,0.0,1.434,1.3897,1.3566,1.3426,1.2395,1.1216,0.9865,0.9692,0.9244,0.8434,0.8402,0.769,0.6217,0.6186,0.5544,0.4264,0.4264,0.42,0.4104,0.4051,0.3723,0.3158,0.3232,0.2864,0.2261,0.2978,0.3004,0.2647,0.3174,0.3349,0.3329,0.3354,0.3741,0.4244,0.4122,0.4163,0.4244,0.4122,0.4107,0.4107,0.4107,0.4166,0.4577,0.6161,0.767,0.8804,0.8804,0.8804,0.8804,0.8804,0.8804,0.8982,0.9666,0.9788,1.0038,1.0838,1.1433,1.1839,1.1996,1.2501,1.2905,1.2905,1.3836,1.4514,1.4514,1.5478,1.6194,1.6315,1.6315,1.638,1.65,1.65,1.65,1.65,1.65,1.65,1.65,1.65,1.65,1.65,1.65,1.65,1.65,1.65,1.65,1.65,1.65,1.65,0.0,0.0,0.0,-0.6164,0.0,0.0,0.0,-0.6415,-0.6315,-0.5846,-0.5089,-0.4371,-0.4012,0.0,-0.0844,-0.011,0.1233,0.3086,0.0,0.0,0.0,0.0,0.0,0.0,1.4675,1.4422,1.412,1.3815,1.2856,1.1764,1.0557,0.9919,0.921,0.8386,0.8214,0.7468,0.6002,0.6057,0.5458,0.4194,0.4146,0.4068,0.3994,0.3621,0.3261,0.2892,0.2586,0.2065,0.1501,0.2164,0.1923,0.1242,0.2576,0.2881,0.2571,0.2623,0.3077,0.3636,0.3567,0.3789,0.4095,0.4018,0.3994,0.3994,0.3994,0.4604,0.5471,0.6362,0.767,0.8804,0.8804,0.8804,0.8804,0.8804,0.8804,0.8982,0.9666,0.9788,0.9987,1.0669,1.1341,1.169,1.1366,1.1882,1.2344,1.2344,1.3687,1.4698,1.4698,1.5744,1.65,1.65,1.65,1.65,1.65,1.65,1.65,1.65,1.65,1.65,1.65,1.65,1.65,1.65,1.65,1.65,1.65,1.65,1.65,1.65,1.65,1.65,0.0,0.0,0.0,0.0,0.0,-0.7588,0.0,0.0,0.0,-0.7404,-0.6721,0.0,0.0,0.0,0.0,0.0,0.0,0.0,0.0,0.0,0.0,0.0,0.0,0.0,0.0,1.5096,1.4778,1.4168,1.343,1.2555,1.1568,1.0294,0.9226,0.8446,0.8036,0.7162,0.576,0.5861,0.5318,0.4132,0.4011,0.3937,0.3906,0.3186,0.2789,0.2642,0.1924,0.1274,0.0784,0.1385,0.0984,0.0181,0.197,0.2317,0.179,0.1899,0.2348,0.2881,0.2859,0.3259,0.3772,0.3767,0.3853,0.3957,0.3987,0.5027,0.6246,0.6528,0.7563,0.8619,0.8752,0.8804,0.8804,0.8804,0.8804,0.8982,0.9666,0.9891,1.0141,1.0686,1.1341,1.1641,1.1091,1.1575,1.1996,1.1996,1.3464,1.456,1.4686,1.5656,1.638,1.65,1.65,1.65,1.65,1.65,1.65,1.65,1.65,1.65,1.65,1.65,1.65,1.65,1.65,1.65,1.65,1.65,1.65,1.65,1.65,1.6552,0.0,0.0,0.0,0.0,-0.7825,0.0,0.0,0.0,-0.8862,-0.8649,0.0,0.0,0.0,0.0,0.0,0.0,0.0,0.0,-0.3761,-0.095,0.0,0.0,0.0,0.0,0.0,1.6519,1.5956,1.535,1.4309,1.3372,1.2657,1.1145,0.9842,0.8859,0.7993,0.6898,0.5538,0.5543,0.4971,0.3843,0.3826,0.3751,0.3629,0.2993,0.2424,0.1887,0.1277,0.065,0.0157,0.0761,0.0605,0.0067,0.086,0.1108,0.1037,0.1042,0.1508,0.2117,0.1993,0.241,0.3013,0.2882,0.329,0.3843,0.3954,0.4676,0.5601,0.6389,0.7182,0.7963,0.8619,0.8804,0.8804,0.8804,0.8804,0.8982,0.9666,1.0269,1.072,1.0788,1.1341,1.1789,1.169,1.2295,1.2774,1.2774,1.3409,1.4097,1.4629,1.5276,1.5908,1.6445,1.65,1.65,1.65,1.65,1.65,1.65,1.65,1.65,1.65,1.65,1.65,1.65,1.65,1.65,1.65,1.65,1.65,1.65,1.65,1.6752,0.0,0.0,0.0,0.0,0.0,0.0,-0.9068,0.0,-0.9517,0.0,0.0,0.0,0.0,0.0,0.0,0.0,0.0,0.0,0.0,0.0,0.0129,0.0,0.0,0.0,0.0,0.0,0.0,0.0,1.479,1.3921,1.3004,1.1333,0.9997,0.9163,0.8223,0.7014,0.5508,0.5568,0.5014,0.3788,0.373,0.3475,0.3056,0.2453,0.1851,0.1251,0.065,0.0224,0.0022,0.0269,0.0224,0.0022,0.0269,0.0381,0.0381,0.0381,0.0792,0.135,0.1304,0.1716,0.2306,0.2598,0.3136,0.371,0.3948,0.4557,0.5378,0.6328,0.7128,0.7857,0.8619,0.8804,0.8804,0.8804,0.8677,0.8803,0.9622,0.9885,1.0251,1.1198,1.1616,1.1947,1.2369,1.2344,1.2261,1.2261,1.315,1.3886,1.4143,1.5016,1.571,1.5964,1.6281,1.65,1.65,1.65,1.65,1.65,1.65,1.65,1.65,1.65,1.65,1.65,1.65,1.65,1.65,1.65,1.65,1.65,1.65,1.6795,-0.6776,0.0,0.0,0.0,0.0,0.0,0.0,0.0,0.0,0.0,0.0,0.0,0.0,0.0,0.0,0.0,0.0,0.0,0.0,0.0,0.0,0.0,0.0,0.0,0.0,0.0,0.0,0.0,0.0,1.3912,1.332,1.1462,1.0163,0.9606,0.8265,0.6894,0.5573,0.5412,0.4797,0.3754,0.3651,0.3284,0.2672,0.2073,0.1465,0.0858,0.0268,0.0,0.0,0.0,0.0,0.0,0.0,0.0,0.0,0.0,0.0269,0.065,0.065,0.1163,0.1895,0.2495,0.3124,0.3703,0.389,0.4351,0.5002,0.5923,0.6697,0.7408,0.8146,0.852,0.8671,0.8584,0.847,0.8575,0.926,0.9542,1.0034,1.1263,1.1848,1.227,1.2798,1.2452,1.2104,1.2104,1.2933,1.3624,1.3779,1.4561,1.5219,1.5565,1.5986,1.6315,1.65,1.65,1.65,1.65,1.65,1.65,1.65,1.65,1.65,1.65,1.65,1.65,1.65,1.65,1.6573,1.671,1.671,1.7013,0.0,0.0,0.0,-0.8556,0.0,0.0,0.0,0.0,-0.9788,0.0,0.0,0.0,0.0,0.0,0.0,0.0,0.0,0.0,0.0,0.0,0.0,0.0,0.0,0.0,0.0,0.0,0.0,0.0,0.0,0.0,1.3747,1.1641,1.0397,1.0372,0.7934,0.6339,0.57,0.4866,0.4166,0.361,0.3604,0.3284,0.2672,0.2073,0.1463,0.0864,0.0264,0.0,0.0,0.0,0.0,0.0,0.0,0.0,0.0,0.0,0.0022,0.0022,0.0022,0.0806,0.1895,0.2495,0.3206,0.3785,0.3795,0.3904,0.4193,0.4935,0.5579,0.6215,0.6971,0.7789,0.8342,0.8005,0.817,0.8402,0.8434,0.9458,1.0465,1.0772,1.1916,1.2881,1.2905,1.2881,1.2847,1.2847,1.2905,1.3152,1.3732,1.3815,1.4318,1.5477,1.561,1.5864,1.6445,1.65,1.65,1.65,1.65,1.65,1.65,1.65,1.65,1.65,1.65,1.65,1.65,1.65,1.6774,1.7271,1.7271,1.7565,0.0,0.0,-0.9008,-0.9202,0.0,0.0,0.0,0.0,0.0,0.0,0.0,0.0,0.0,0.0,0.0,0.0,0.0,0.0,0.0,0.0,0.0,0.0,0.0,0.0,0.0,0.0,0.0,0.0,0.8519,0.0,0.0,0.9892,0.9206,0.9021,0.7656,0.6334,0.5042,0.4617,0.3931,0.3012,0.3012,0.2477,0.1495,0.1302,0.0871,0.0294,0.0083,0.0,0.0,0.0,0.0,0.0,0.0,0.0,0.0,0.0,0.0,0.0,0.0,0.0784,0.183,0.2029,0.2814,0.3692,0.3765,0.3829,0.4031,0.4861,0.5531,0.6169,0.69,0.7581,0.8032,0.7932,0.7849,0.7906,0.8315,0.8571,0.9163,1.053,1.1174,1.1816,1.2749,1.2905,1.2905,1.2905,1.2905,1.2968,1.3176,1.3552,1.412,1.4915,1.5365,1.5842,1.6445,1.65,1.65,1.65,1.65,1.65,1.65,1.65,1.65,1.65,1.65,1.65,1.65,1.6858,1.7105,1.7333,1.8027,1.8458,-0.7477,-0.8365,0.0,-0.9475,-0.9351,0.0,-0.9084,0.0,0.0,0.0,0.0,0.0,0.0,0.0,0.0,0.0,0.0,0.0,0.0,-1.1474,0.0,0.0,0.0,0.0,0.0,0.0,0.2364,0.378,0.4716,0.0,0.0,0.0,0.8229,0.8069,0.7275,0.6204,0.4867,0.4191,0.3475,0.2694,0.2472,0.1851,0.0894,0.0899,0.0562,0.0,0.0,0.0,0.0,0.0,0.0,0.0,0.0,0.0,0.0,0.0,0.0,0.0,0.0,0.065,0.1518,0.1741,0.2477,0.3344,0.3641,0.374,0.385,0.442,0.4987,0.5592,0.6273,0.6958,0.7457,0.7567,0.7535,0.7625,0.811,0.8249,0.8685,1.0154,1.0838,1.145,1.2353,1.2715,1.2905,1.2905,1.2905,1.2905,1.2905,1.3238,1.3718,1.4306,1.4915,1.5622,1.6423,1.65,1.65,1.65,1.65,1.65,1.65,1.65,1.6595,1.6774,1.6774,1.6879,1.7076,1.7435,1.7686,1.7887,1.8574,1.9006]}]]